<?xml version="1.0" encoding="UTF-8" standalone="no" ?>
<gpx xmlns="http://www.topografix.com/GPX/1/1" xmlns:xsi="http://www.w3.org/2001/XMLSchema-instance" xsi:schemaLocation="http://www.topografix.com/GPX/1/1 http://www.topografix.com/GPX/1/1/gpx.xsd" version="1.1" creator="VisuGPX - https://www.visugpx.com">
  <metadata>
    <name>Moras Lentiol</name>
    <desc><![CDATA[Moras Lentiol 75K 717m 3h12.gpx]]></desc>
  </metadata>
  <trk>
    <name><![CDATA[Moras,lentiol]]></name>
    <cmt><![CDATA[Bruno, Gilles, Thierry1 &2, Edouard, JeanPierre, Christophe, Aimé]]></cmt>
    <trkseg>
      <trkpt lat="45.11571" lon="4.96431">
        <ele>202.00100708008</ele>
        <time>2010-12-11T12:20:01Z</time>
      </trkpt>
      <trkpt lat="45.11571" lon="4.96432">
        <ele>202.00100708008</ele>
        <time>2010-12-11T12:20:02Z</time>
      </trkpt>
      <trkpt lat="45.11574" lon="4.96442">
        <ele>200.31199645996</ele>
        <time>2010-12-11T12:20:11Z</time>
      </trkpt>
      <trkpt lat="45.11574" lon="4.96446">
        <ele>200.00700378418</ele>
        <time>2010-12-11T12:20:16Z</time>
      </trkpt>
      <trkpt lat="45.11576" lon="4.9645">
        <ele>199.89300537109</ele>
        <time>2010-12-11T12:20:22Z</time>
      </trkpt>
      <trkpt lat="45.11577" lon="4.96458">
        <ele>199.32699584961</ele>
        <time>2010-12-11T12:21:46Z</time>
      </trkpt>
      <trkpt lat="45.11578" lon="4.96462">
        <ele>199.1130065918</ele>
        <time>2010-12-11T12:21:47Z</time>
      </trkpt>
      <trkpt lat="45.11578" lon="4.96486">
        <ele>198.89199829102</ele>
        <time>2010-12-11T12:21:51Z</time>
      </trkpt>
      <trkpt lat="45.1158" lon="4.96494">
        <ele>198.66000366211</ele>
        <time>2010-12-11T12:21:56Z</time>
      </trkpt>
      <trkpt lat="45.11581" lon="4.96514">
        <ele>196.45700073242</ele>
        <time>2010-12-11T12:22:08Z</time>
      </trkpt>
      <trkpt lat="45.11584" lon="4.9652">
        <ele>195.99699401856</ele>
        <time>2010-12-11T12:22:09Z</time>
      </trkpt>
      <trkpt lat="45.11589" lon="4.96531">
        <ele>195.91000366211</ele>
        <time>2010-12-11T12:22:11Z</time>
      </trkpt>
      <trkpt lat="45.11593" lon="4.96543">
        <ele>196.08099365234</ele>
        <time>2010-12-11T12:22:13Z</time>
      </trkpt>
      <trkpt lat="45.11615" lon="4.966">
        <ele>196.08999633789</ele>
        <time>2010-12-11T12:22:22Z</time>
      </trkpt>
      <trkpt lat="45.11634" lon="4.9665">
        <ele>196.11799621582</ele>
        <time>2010-12-11T12:22:30Z</time>
      </trkpt>
      <trkpt lat="45.11654" lon="4.96701">
        <ele>198.00999450684</ele>
        <time>2010-12-11T12:22:38Z</time>
      </trkpt>
      <trkpt lat="45.11672" lon="4.96742">
        <ele>196.70300292969</ele>
        <time>2010-12-11T12:22:45Z</time>
      </trkpt>
      <trkpt lat="45.11687" lon="4.96768">
        <ele>198.96000671387</ele>
        <time>2010-12-11T12:22:50Z</time>
      </trkpt>
      <trkpt lat="45.11713" lon="4.9681">
        <ele>198.17900085449</ele>
        <time>2010-12-11T12:22:58Z</time>
      </trkpt>
      <trkpt lat="45.11723" lon="4.96826">
        <ele>196.83000183106</ele>
        <time>2010-12-11T12:23:01Z</time>
      </trkpt>
      <trkpt lat="45.11726" lon="4.96832">
        <ele>196.93099975586</ele>
        <time>2010-12-11T12:23:02Z</time>
      </trkpt>
      <trkpt lat="45.11736" lon="4.96865">
        <ele>198.03100585938</ele>
        <time>2010-12-11T12:23:07Z</time>
      </trkpt>
      <trkpt lat="45.11747" lon="4.96879">
        <ele>197.65600585938</ele>
        <time>2010-12-11T12:23:10Z</time>
      </trkpt>
      <trkpt lat="45.11756" lon="4.96886">
        <ele>198.33399963379</ele>
        <time>2010-12-11T12:23:12Z</time>
      </trkpt>
      <trkpt lat="45.11778" lon="4.96916">
        <ele>198.64500427246</ele>
        <time>2010-12-11T12:23:18Z</time>
      </trkpt>
      <trkpt lat="45.11805" lon="4.96959">
        <ele>199.08299255371</ele>
        <time>2010-12-11T12:23:26Z</time>
      </trkpt>
      <trkpt lat="45.11812" lon="4.9697">
        <ele>198.63600158691</ele>
        <time>2010-12-11T12:23:28Z</time>
      </trkpt>
      <trkpt lat="45.11815" lon="4.96975">
        <ele>198.55099487305</ele>
        <time>2010-12-11T12:23:29Z</time>
      </trkpt>
      <trkpt lat="45.11819" lon="4.9698">
        <ele>198.57200622559</ele>
        <time>2010-12-11T12:23:30Z</time>
      </trkpt>
      <trkpt lat="45.11826" lon="4.9699">
        <ele>199.32699584961</ele>
        <time>2010-12-11T12:23:32Z</time>
      </trkpt>
      <trkpt lat="45.11833" lon="4.97001">
        <ele>200.37800598144</ele>
        <time>2010-12-11T12:23:34Z</time>
      </trkpt>
      <trkpt lat="45.11849" lon="4.97022">
        <ele>200.37800598144</ele>
        <time>2010-12-11T12:23:38Z</time>
      </trkpt>
      <trkpt lat="45.11853" lon="4.97027">
        <ele>200.22200012207</ele>
        <time>2010-12-11T12:23:39Z</time>
      </trkpt>
      <trkpt lat="45.11873" lon="4.97054">
        <ele>200.36399841309</ele>
        <time>2010-12-11T12:23:44Z</time>
      </trkpt>
      <trkpt lat="45.11879" lon="4.97083">
        <ele>199.55000305176</ele>
        <time>2010-12-11T12:23:48Z</time>
      </trkpt>
      <trkpt lat="45.11879" lon="4.97091">
        <ele>199.52000427246</ele>
        <time>2010-12-11T12:23:49Z</time>
      </trkpt>
      <trkpt lat="45.11874" lon="4.97127">
        <ele>198.78199768066</ele>
        <time>2010-12-11T12:23:53Z</time>
      </trkpt>
      <trkpt lat="45.11875" lon="4.97169">
        <ele>198.11500549316</ele>
        <time>2010-12-11T12:23:57Z</time>
      </trkpt>
      <trkpt lat="45.11889" lon="4.9725">
        <ele>197.25300598144</ele>
        <time>2010-12-11T12:24:04Z</time>
      </trkpt>
      <trkpt lat="45.11893" lon="4.97276">
        <ele>196.55000305176</ele>
        <time>2010-12-11T12:24:06Z</time>
      </trkpt>
      <trkpt lat="45.11895" lon="4.97289">
        <ele>196.02299499512</ele>
        <time>2010-12-11T12:24:07Z</time>
      </trkpt>
      <trkpt lat="45.11902" lon="4.97328">
        <ele>194.94999694824</ele>
        <time>2010-12-11T12:24:10Z</time>
      </trkpt>
      <trkpt lat="45.11904" lon="4.9734">
        <ele>195.07299804688</ele>
        <time>2010-12-11T12:24:11Z</time>
      </trkpt>
      <trkpt lat="45.11923" lon="4.9745">
        <ele>198.55999755859</ele>
        <time>2010-12-11T12:24:20Z</time>
      </trkpt>
      <trkpt lat="45.11925" lon="4.97461">
        <ele>198.74800109863</ele>
        <time>2010-12-11T12:24:21Z</time>
      </trkpt>
      <trkpt lat="45.11937" lon="4.97529">
        <ele>198.92599487305</ele>
        <time>2010-12-11T12:24:28Z</time>
      </trkpt>
      <trkpt lat="45.11948" lon="4.97596">
        <ele>198.88900756836</ele>
        <time>2010-12-11T12:24:36Z</time>
      </trkpt>
      <trkpt lat="45.11958" lon="4.97649">
        <ele>200.66200256348</ele>
        <time>2010-12-11T12:24:43Z</time>
      </trkpt>
      <trkpt lat="45.11969" lon="4.97715">
        <ele>201.11799621582</ele>
        <time>2010-12-11T12:24:51Z</time>
      </trkpt>
      <trkpt lat="45.11983" lon="4.97798">
        <ele>201.20799255371</ele>
        <time>2010-12-11T12:25:01Z</time>
      </trkpt>
      <trkpt lat="45.11997" lon="4.97877">
        <ele>201.6130065918</ele>
        <time>2010-12-11T12:25:11Z</time>
      </trkpt>
      <trkpt lat="45.12012" lon="4.97954">
        <ele>202.65699768066</ele>
        <time>2010-12-11T12:25:21Z</time>
      </trkpt>
      <trkpt lat="45.12016" lon="4.97968">
        <ele>202.44500732422</ele>
        <time>2010-12-11T12:25:23Z</time>
      </trkpt>
      <trkpt lat="45.12019" lon="4.97976">
        <ele>202.59100341797</ele>
        <time>2010-12-11T12:25:24Z</time>
      </trkpt>
      <trkpt lat="45.1202" lon="4.97983">
        <ele>202.7799987793</ele>
        <time>2010-12-11T12:25:25Z</time>
      </trkpt>
      <trkpt lat="45.12023" lon="4.9799">
        <ele>202.98500061035</ele>
        <time>2010-12-11T12:25:26Z</time>
      </trkpt>
      <trkpt lat="45.12033" lon="4.98027">
        <ele>202.89300537109</ele>
        <time>2010-12-11T12:25:31Z</time>
      </trkpt>
      <trkpt lat="45.1204" lon="4.98056">
        <ele>203.05000305176</ele>
        <time>2010-12-11T12:25:35Z</time>
      </trkpt>
      <trkpt lat="45.12042" lon="4.98063">
        <ele>203.04899597168</ele>
        <time>2010-12-11T12:25:36Z</time>
      </trkpt>
      <trkpt lat="45.12049" lon="4.98091">
        <ele>203.74099731445</ele>
        <time>2010-12-11T12:25:40Z</time>
      </trkpt>
      <trkpt lat="45.12062" lon="4.98162">
        <ele>204.40899658203</ele>
        <time>2010-12-11T12:25:50Z</time>
      </trkpt>
      <trkpt lat="45.12066" lon="4.98228">
        <ele>205.00999450684</ele>
        <time>2010-12-11T12:25:59Z</time>
      </trkpt>
      <trkpt lat="45.1206" lon="4.98302">
        <ele>205.02000427246</ele>
        <time>2010-12-11T12:26:09Z</time>
      </trkpt>
      <trkpt lat="45.12059" lon="4.9831">
        <ele>205.27900695801</ele>
        <time>2010-12-11T12:26:10Z</time>
      </trkpt>
      <trkpt lat="45.12046" lon="4.98373">
        <ele>207.58700561523</ele>
        <time>2010-12-11T12:26:19Z</time>
      </trkpt>
      <trkpt lat="45.12042" lon="4.98386">
        <ele>207.67999267578</ele>
        <time>2010-12-11T12:26:21Z</time>
      </trkpt>
      <trkpt lat="45.12024" lon="4.98404">
        <ele>207.93099975586</ele>
        <time>2010-12-11T12:26:26Z</time>
      </trkpt>
      <trkpt lat="45.12018" lon="4.98403">
        <ele>207.83799743652</ele>
        <time>2010-12-11T12:26:27Z</time>
      </trkpt>
      <trkpt lat="45.11993" lon="4.98392">
        <ele>206.3869934082</ele>
        <time>2010-12-11T12:26:31Z</time>
      </trkpt>
      <trkpt lat="45.11975" lon="4.98395">
        <ele>205.93099975586</ele>
        <time>2010-12-11T12:26:34Z</time>
      </trkpt>
      <trkpt lat="45.11971" lon="4.9841">
        <ele>205.82800292969</ele>
        <time>2010-12-11T12:26:36Z</time>
      </trkpt>
      <trkpt lat="45.11978" lon="4.9843">
        <ele>205.86199951172</ele>
        <time>2010-12-11T12:26:39Z</time>
      </trkpt>
      <trkpt lat="45.11993" lon="4.9844">
        <ele>206.40699768066</ele>
        <time>2010-12-11T12:26:43Z</time>
      </trkpt>
      <trkpt lat="45.12" lon="4.98438">
        <ele>206.65199279785</ele>
        <time>2010-12-11T12:26:45Z</time>
      </trkpt>
      <trkpt lat="45.12011" lon="4.98431">
        <ele>207.38800048828</ele>
        <time>2010-12-11T12:26:49Z</time>
      </trkpt>
      <trkpt lat="45.12012" lon="4.98431">
        <ele>207.49099731445</ele>
        <time>2010-12-11T12:26:51Z</time>
      </trkpt>
      <trkpt lat="45.12011" lon="4.98426">
        <ele>204.89300537109</ele>
        <time>2010-12-11T12:34:13Z</time>
      </trkpt>
      <trkpt lat="45.11998" lon="4.9842">
        <ele>204.58200073242</ele>
        <time>2010-12-11T12:34:19Z</time>
      </trkpt>
      <trkpt lat="45.11996" lon="4.98419">
        <ele>204.55000305176</ele>
        <time>2010-12-11T12:34:20Z</time>
      </trkpt>
      <trkpt lat="45.11983" lon="4.98408">
        <ele>204.21299743652</ele>
        <time>2010-12-11T12:34:25Z</time>
      </trkpt>
      <trkpt lat="45.11986" lon="4.98394">
        <ele>203.81500244141</ele>
        <time>2010-12-11T12:34:29Z</time>
      </trkpt>
      <trkpt lat="45.11992" lon="4.98394">
        <ele>203.77200317383</ele>
        <time>2010-12-11T12:34:31Z</time>
      </trkpt>
      <trkpt lat="45.12015" lon="4.98405">
        <ele>204.90800476074</ele>
        <time>2010-12-11T12:34:38Z</time>
      </trkpt>
      <trkpt lat="45.12018" lon="4.98406">
        <ele>204.92399597168</ele>
        <time>2010-12-11T12:34:39Z</time>
      </trkpt>
      <trkpt lat="45.1203" lon="4.9842">
        <ele>205.22700500488</ele>
        <time>2010-12-11T12:34:44Z</time>
      </trkpt>
      <trkpt lat="45.12036" lon="4.98433">
        <ele>205.29499816894</ele>
        <time>2010-12-11T12:34:47Z</time>
      </trkpt>
      <trkpt lat="45.12051" lon="4.98433">
        <ele>205.52400207519</ele>
        <time>2010-12-11T12:34:51Z</time>
      </trkpt>
      <trkpt lat="45.12055" lon="4.98429">
        <ele>205.66000366211</ele>
        <time>2010-12-11T12:34:52Z</time>
      </trkpt>
      <trkpt lat="45.12081" lon="4.98413">
        <ele>205.25700378418</ele>
        <time>2010-12-11T12:34:58Z</time>
      </trkpt>
      <trkpt lat="45.12127" lon="4.98416">
        <ele>205.63400268555</ele>
        <time>2010-12-11T12:35:07Z</time>
      </trkpt>
      <trkpt lat="45.12152" lon="4.98413">
        <ele>204.55299377441</ele>
        <time>2010-12-11T12:35:11Z</time>
      </trkpt>
      <trkpt lat="45.12196" lon="4.98417">
        <ele>205.25300598144</ele>
        <time>2010-12-11T12:35:19Z</time>
      </trkpt>
      <trkpt lat="45.1223" lon="4.98418">
        <ele>205.62100219727</ele>
        <time>2010-12-11T12:35:26Z</time>
      </trkpt>
      <trkpt lat="45.12235" lon="4.98418">
        <ele>205.28999328613</ele>
        <time>2010-12-11T12:35:27Z</time>
      </trkpt>
      <trkpt lat="45.1224" lon="4.98418">
        <ele>205.11500549316</ele>
        <time>2010-12-11T12:35:28Z</time>
      </trkpt>
      <trkpt lat="45.12276" lon="4.98421">
        <ele>206.24000549316</ele>
        <time>2010-12-11T12:35:35Z</time>
      </trkpt>
      <trkpt lat="45.12283" lon="4.98421">
        <ele>206.44900512695</ele>
        <time>2010-12-11T12:35:36Z</time>
      </trkpt>
      <trkpt lat="45.12302" lon="4.98418">
        <ele>206.76400756836</ele>
        <time>2010-12-11T12:35:40Z</time>
      </trkpt>
      <trkpt lat="45.12316" lon="4.98419">
        <ele>206.86000061035</ele>
        <time>2010-12-11T12:35:43Z</time>
      </trkpt>
      <trkpt lat="45.12326" lon="4.9842">
        <ele>206.90699768066</ele>
        <time>2010-12-11T12:35:45Z</time>
      </trkpt>
      <trkpt lat="45.12348" lon="4.9841">
        <ele>207.34899902344</ele>
        <time>2010-12-11T12:35:50Z</time>
      </trkpt>
      <trkpt lat="45.12352" lon="4.98403">
        <ele>207.61399841309</ele>
        <time>2010-12-11T12:35:51Z</time>
      </trkpt>
      <trkpt lat="45.12358" lon="4.9839">
        <ele>208.5059967041</ele>
        <time>2010-12-11T12:35:53Z</time>
      </trkpt>
      <trkpt lat="45.12378" lon="4.98366">
        <ele>208.68099975586</ele>
        <time>2010-12-11T12:35:58Z</time>
      </trkpt>
      <trkpt lat="45.12427" lon="4.98337">
        <ele>208.01899719238</ele>
        <time>2010-12-11T12:36:08Z</time>
      </trkpt>
      <trkpt lat="45.12476" lon="4.9831">
        <ele>209.66000366211</ele>
        <time>2010-12-11T12:36:18Z</time>
      </trkpt>
      <trkpt lat="45.12499" lon="4.98297">
        <ele>209.7799987793</ele>
        <time>2010-12-11T12:36:23Z</time>
      </trkpt>
      <trkpt lat="45.12527" lon="4.98287">
        <ele>210.52000427246</ele>
        <time>2010-12-11T12:36:29Z</time>
      </trkpt>
      <trkpt lat="45.12566" lon="4.98277">
        <ele>211.55900573731</ele>
        <time>2010-12-11T12:36:37Z</time>
      </trkpt>
      <trkpt lat="45.12597" lon="4.98271">
        <ele>211.68400573731</ele>
        <time>2010-12-11T12:36:44Z</time>
      </trkpt>
      <trkpt lat="45.12627" lon="4.98263">
        <ele>212.91200256348</ele>
        <time>2010-12-11T12:36:51Z</time>
      </trkpt>
      <trkpt lat="45.12671" lon="4.98248">
        <ele>213.98599243164</ele>
        <time>2010-12-11T12:37:01Z</time>
      </trkpt>
      <trkpt lat="45.12702" lon="4.98245">
        <ele>216.21099853516</ele>
        <time>2010-12-11T12:37:08Z</time>
      </trkpt>
      <trkpt lat="45.12741" lon="4.98251">
        <ele>217.12600708008</ele>
        <time>2010-12-11T12:37:17Z</time>
      </trkpt>
      <trkpt lat="45.12792" lon="4.98257">
        <ele>218.12699890137</ele>
        <time>2010-12-11T12:37:29Z</time>
      </trkpt>
      <trkpt lat="45.12805" lon="4.98258">
        <ele>218.82800292969</ele>
        <time>2010-12-11T12:37:32Z</time>
      </trkpt>
      <trkpt lat="45.12827" lon="4.98263">
        <ele>219.25700378418</ele>
        <time>2010-12-11T12:37:37Z</time>
      </trkpt>
      <trkpt lat="45.12865" lon="4.98277">
        <ele>219.70300292969</ele>
        <time>2010-12-11T12:37:46Z</time>
      </trkpt>
      <trkpt lat="45.12907" lon="4.98297">
        <ele>219.5119934082</ele>
        <time>2010-12-11T12:37:55Z</time>
      </trkpt>
      <trkpt lat="45.12957" lon="4.98312">
        <ele>220.96000671387</ele>
        <time>2010-12-11T12:38:05Z</time>
      </trkpt>
      <trkpt lat="45.13015" lon="4.98317">
        <ele>220.92199707031</ele>
        <time>2010-12-11T12:38:16Z</time>
      </trkpt>
      <trkpt lat="45.13052" lon="4.9831">
        <ele>220.0890045166</ele>
        <time>2010-12-11T12:38:23Z</time>
      </trkpt>
      <trkpt lat="45.13089" lon="4.98291">
        <ele>220.84199523926</ele>
        <time>2010-12-11T12:38:30Z</time>
      </trkpt>
      <trkpt lat="45.13126" lon="4.98267">
        <ele>220.5</ele>
        <time>2010-12-11T12:38:38Z</time>
      </trkpt>
      <trkpt lat="45.1314" lon="4.98258">
        <ele>221.84199523926</ele>
        <time>2010-12-11T12:38:41Z</time>
      </trkpt>
      <trkpt lat="45.13178" lon="4.9824">
        <ele>221.36999511719</ele>
        <time>2010-12-11T12:38:48Z</time>
      </trkpt>
      <trkpt lat="45.13189" lon="4.98236">
        <ele>221.53700256348</ele>
        <time>2010-12-11T12:38:50Z</time>
      </trkpt>
      <trkpt lat="45.13205" lon="4.98228">
        <ele>222.21099853516</ele>
        <time>2010-12-11T12:38:53Z</time>
      </trkpt>
      <trkpt lat="45.13248" lon="4.98216">
        <ele>222.03300476074</ele>
        <time>2010-12-11T12:39:01Z</time>
      </trkpt>
      <trkpt lat="45.13298" lon="4.98201">
        <ele>222.92399597168</ele>
        <time>2010-12-11T12:39:10Z</time>
      </trkpt>
      <trkpt lat="45.13342" lon="4.98188">
        <ele>223.74299621582</ele>
        <time>2010-12-11T12:39:18Z</time>
      </trkpt>
      <trkpt lat="45.13392" lon="4.98174">
        <ele>224.18899536133</ele>
        <time>2010-12-11T12:39:27Z</time>
      </trkpt>
      <trkpt lat="45.1343" lon="4.98163">
        <ele>225.19299316406</ele>
        <time>2010-12-11T12:39:34Z</time>
      </trkpt>
      <trkpt lat="45.13469" lon="4.98153">
        <ele>225.42700195312</ele>
        <time>2010-12-11T12:39:41Z</time>
      </trkpt>
      <trkpt lat="45.13531" lon="4.98135">
        <ele>225.99200439453</ele>
        <time>2010-12-11T12:39:52Z</time>
      </trkpt>
      <trkpt lat="45.1358" lon="4.98116">
        <ele>226.53700256348</ele>
        <time>2010-12-11T12:40:01Z</time>
      </trkpt>
      <trkpt lat="45.13622" lon="4.98092">
        <ele>227.11700439453</ele>
        <time>2010-12-11T12:40:09Z</time>
      </trkpt>
      <trkpt lat="45.13671" lon="4.98053">
        <ele>226.80200195312</ele>
        <time>2010-12-11T12:40:19Z</time>
      </trkpt>
      <trkpt lat="45.13717" lon="4.98028">
        <ele>228.73100280762</ele>
        <time>2010-12-11T12:40:28Z</time>
      </trkpt>
      <trkpt lat="45.13763" lon="4.98007">
        <ele>228.8630065918</ele>
        <time>2010-12-11T12:40:37Z</time>
      </trkpt>
      <trkpt lat="45.13794" lon="4.97994">
        <ele>228.3390045166</ele>
        <time>2010-12-11T12:40:43Z</time>
      </trkpt>
      <trkpt lat="45.13804" lon="4.9799">
        <ele>228.98100280762</ele>
        <time>2010-12-11T12:40:45Z</time>
      </trkpt>
      <trkpt lat="45.13809" lon="4.97988">
        <ele>229.31799316406</ele>
        <time>2010-12-11T12:40:46Z</time>
      </trkpt>
      <trkpt lat="45.13824" lon="4.97981">
        <ele>229.73300170898</ele>
        <time>2010-12-11T12:40:49Z</time>
      </trkpt>
      <trkpt lat="45.1383" lon="4.97978">
        <ele>229.75500488281</ele>
        <time>2010-12-11T12:40:50Z</time>
      </trkpt>
      <trkpt lat="45.13891" lon="4.9795">
        <ele>229.98899841309</ele>
        <time>2010-12-11T12:41:02Z</time>
      </trkpt>
      <trkpt lat="45.13943" lon="4.97926">
        <ele>230.99499511719</ele>
        <time>2010-12-11T12:41:12Z</time>
      </trkpt>
      <trkpt lat="45.14" lon="4.97899">
        <ele>230.94599914551</ele>
        <time>2010-12-11T12:41:23Z</time>
      </trkpt>
      <trkpt lat="45.14053" lon="4.97874">
        <ele>231.97300720215</ele>
        <time>2010-12-11T12:41:33Z</time>
      </trkpt>
      <trkpt lat="45.14113" lon="4.97847">
        <ele>233.50300598144</ele>
        <time>2010-12-11T12:41:44Z</time>
      </trkpt>
      <trkpt lat="45.14166" lon="4.97823">
        <ele>234.3630065918</ele>
        <time>2010-12-11T12:41:54Z</time>
      </trkpt>
      <trkpt lat="45.14214" lon="4.97801">
        <ele>234.01499938965</ele>
        <time>2010-12-11T12:42:03Z</time>
      </trkpt>
      <trkpt lat="45.14265" lon="4.97779">
        <ele>234.38400268555</ele>
        <time>2010-12-11T12:42:13Z</time>
      </trkpt>
      <trkpt lat="45.14282" lon="4.97793">
        <ele>233.63200378418</ele>
        <time>2010-12-11T12:42:17Z</time>
      </trkpt>
      <trkpt lat="45.14294" lon="4.97814">
        <ele>232.92900085449</ele>
        <time>2010-12-11T12:42:20Z</time>
      </trkpt>
      <trkpt lat="45.14322" lon="4.97832">
        <ele>232.93899536133</ele>
        <time>2010-12-11T12:42:25Z</time>
      </trkpt>
      <trkpt lat="45.14361" lon="4.97844">
        <ele>233.20500183106</ele>
        <time>2010-12-11T12:42:32Z</time>
      </trkpt>
      <trkpt lat="45.14403" lon="4.97872">
        <ele>234.69299316406</ele>
        <time>2010-12-11T12:42:41Z</time>
      </trkpt>
      <trkpt lat="45.14418" lon="4.97888">
        <ele>235.41499328613</ele>
        <time>2010-12-11T12:42:45Z</time>
      </trkpt>
      <trkpt lat="45.14446" lon="4.97932">
        <ele>236.94599914551</ele>
        <time>2010-12-11T12:42:54Z</time>
      </trkpt>
      <trkpt lat="45.14466" lon="4.97977">
        <ele>239.02799987793</ele>
        <time>2010-12-11T12:43:03Z</time>
      </trkpt>
      <trkpt lat="45.14475" lon="4.98001">
        <ele>241.46000671387</ele>
        <time>2010-12-11T12:43:09Z</time>
      </trkpt>
      <trkpt lat="45.14487" lon="4.98005">
        <ele>241.85200500488</ele>
        <time>2010-12-11T12:43:13Z</time>
      </trkpt>
      <trkpt lat="45.14508" lon="4.97995">
        <ele>242.80700683594</ele>
        <time>2010-12-11T12:43:19Z</time>
      </trkpt>
      <trkpt lat="45.14542" lon="4.97983">
        <ele>244.35299682617</ele>
        <time>2010-12-11T12:43:27Z</time>
      </trkpt>
      <trkpt lat="45.14574" lon="4.97973">
        <ele>245.1609954834</ele>
        <time>2010-12-11T12:43:35Z</time>
      </trkpt>
      <trkpt lat="45.14586" lon="4.9797">
        <ele>244.94200134277</ele>
        <time>2010-12-11T12:43:38Z</time>
      </trkpt>
      <trkpt lat="45.1459" lon="4.97969">
        <ele>245.18499755859</ele>
        <time>2010-12-11T12:43:39Z</time>
      </trkpt>
      <trkpt lat="45.14594" lon="4.97967">
        <ele>245.39100646973</ele>
        <time>2010-12-11T12:43:40Z</time>
      </trkpt>
      <trkpt lat="45.14598" lon="4.97966">
        <ele>245.33799743652</ele>
        <time>2010-12-11T12:43:41Z</time>
      </trkpt>
      <trkpt lat="45.14602" lon="4.97965">
        <ele>245.50300598144</ele>
        <time>2010-12-11T12:43:42Z</time>
      </trkpt>
      <trkpt lat="45.14631" lon="4.97957">
        <ele>246.30900573731</ele>
        <time>2010-12-11T12:43:49Z</time>
      </trkpt>
      <trkpt lat="45.14635" lon="4.97956">
        <ele>246.60200500488</ele>
        <time>2010-12-11T12:43:50Z</time>
      </trkpt>
      <trkpt lat="45.14675" lon="4.9795">
        <ele>249.56399536133</ele>
        <time>2010-12-11T12:44:00Z</time>
      </trkpt>
      <trkpt lat="45.14683" lon="4.9795">
        <ele>250.23899841309</ele>
        <time>2010-12-11T12:44:02Z</time>
      </trkpt>
      <trkpt lat="45.14691" lon="4.97949">
        <ele>250.42599487305</ele>
        <time>2010-12-11T12:44:04Z</time>
      </trkpt>
      <trkpt lat="45.14699" lon="4.97948">
        <ele>250.46499633789</ele>
        <time>2010-12-11T12:44:06Z</time>
      </trkpt>
      <trkpt lat="45.14703" lon="4.97948">
        <ele>250.52000427246</ele>
        <time>2010-12-11T12:44:07Z</time>
      </trkpt>
      <trkpt lat="45.14721" lon="4.97948">
        <ele>251.20799255371</ele>
        <time>2010-12-11T12:44:11Z</time>
      </trkpt>
      <trkpt lat="45.14729" lon="4.97947">
        <ele>251.66900634766</ele>
        <time>2010-12-11T12:44:13Z</time>
      </trkpt>
      <trkpt lat="45.14734" lon="4.97946">
        <ele>251.94299316406</ele>
        <time>2010-12-11T12:44:14Z</time>
      </trkpt>
      <trkpt lat="45.14738" lon="4.97945">
        <ele>252.03900146484</ele>
        <time>2010-12-11T12:44:15Z</time>
      </trkpt>
      <trkpt lat="45.14754" lon="4.97939">
        <ele>252.29800415039</ele>
        <time>2010-12-11T12:44:19Z</time>
      </trkpt>
      <trkpt lat="45.14762" lon="4.97936">
        <ele>252.89399719238</ele>
        <time>2010-12-11T12:44:21Z</time>
      </trkpt>
      <trkpt lat="45.14802" lon="4.97917">
        <ele>253.93499755859</ele>
        <time>2010-12-11T12:44:30Z</time>
      </trkpt>
      <trkpt lat="45.14833" lon="4.97903">
        <ele>252.99800109863</ele>
        <time>2010-12-11T12:44:36Z</time>
      </trkpt>
      <trkpt lat="45.14849" lon="4.97895">
        <ele>252.32800292969</ele>
        <time>2010-12-11T12:44:39Z</time>
      </trkpt>
      <trkpt lat="45.14889" lon="4.9787">
        <ele>252.71800231934</ele>
        <time>2010-12-11T12:44:47Z</time>
      </trkpt>
      <trkpt lat="45.1492" lon="4.97853">
        <ele>252.23199462891</ele>
        <time>2010-12-11T12:44:53Z</time>
      </trkpt>
      <trkpt lat="45.14953" lon="4.97831">
        <ele>250.94500732422</ele>
        <time>2010-12-11T12:44:59Z</time>
      </trkpt>
      <trkpt lat="45.15004" lon="4.97812">
        <ele>249.72500610352</ele>
        <time>2010-12-11T12:45:07Z</time>
      </trkpt>
      <trkpt lat="45.15029" lon="4.97807">
        <ele>249.04100036621</ele>
        <time>2010-12-11T12:45:11Z</time>
      </trkpt>
      <trkpt lat="45.15056" lon="4.9781">
        <ele>249.19500732422</ele>
        <time>2010-12-11T12:45:16Z</time>
      </trkpt>
      <trkpt lat="45.15095" lon="4.97825">
        <ele>249.74699401856</ele>
        <time>2010-12-11T12:45:24Z</time>
      </trkpt>
      <trkpt lat="45.15105" lon="4.97829">
        <ele>250.20899963379</ele>
        <time>2010-12-11T12:45:26Z</time>
      </trkpt>
      <trkpt lat="45.15135" lon="4.97841">
        <ele>251.59899902344</ele>
        <time>2010-12-11T12:45:33Z</time>
      </trkpt>
      <trkpt lat="45.15171" lon="4.97861">
        <ele>252.26699829102</ele>
        <time>2010-12-11T12:45:42Z</time>
      </trkpt>
      <trkpt lat="45.15202" lon="4.97881">
        <ele>254.22999572754</ele>
        <time>2010-12-11T12:45:50Z</time>
      </trkpt>
      <trkpt lat="45.15232" lon="4.97899">
        <ele>253.04899597168</ele>
        <time>2010-12-11T12:45:57Z</time>
      </trkpt>
      <trkpt lat="45.15264" lon="4.97921">
        <ele>252.7559967041</ele>
        <time>2010-12-11T12:46:04Z</time>
      </trkpt>
      <trkpt lat="45.15305" lon="4.97946">
        <ele>253.63000488281</ele>
        <time>2010-12-11T12:46:13Z</time>
      </trkpt>
      <trkpt lat="45.15351" lon="4.97966">
        <ele>254.2200012207</ele>
        <time>2010-12-11T12:46:23Z</time>
      </trkpt>
      <trkpt lat="45.1539" lon="4.97975">
        <ele>252.9940032959</ele>
        <time>2010-12-11T12:46:30Z</time>
      </trkpt>
      <trkpt lat="45.15426" lon="4.97982">
        <ele>252.41000366211</ele>
        <time>2010-12-11T12:46:37Z</time>
      </trkpt>
      <trkpt lat="45.15461" lon="4.97986">
        <ele>253.22700500488</ele>
        <time>2010-12-11T12:46:44Z</time>
      </trkpt>
      <trkpt lat="45.15507" lon="4.97988">
        <ele>253.84599304199</ele>
        <time>2010-12-11T12:46:54Z</time>
      </trkpt>
      <trkpt lat="45.15551" lon="4.97986">
        <ele>252.52099609375</ele>
        <time>2010-12-11T12:47:02Z</time>
      </trkpt>
      <trkpt lat="45.15588" lon="4.97984">
        <ele>254.06700134277</ele>
        <time>2010-12-11T12:47:09Z</time>
      </trkpt>
      <trkpt lat="45.15631" lon="4.97981">
        <ele>254.77000427246</ele>
        <time>2010-12-11T12:47:18Z</time>
      </trkpt>
      <trkpt lat="45.15668" lon="4.9798">
        <ele>254.17100524902</ele>
        <time>2010-12-11T12:47:25Z</time>
      </trkpt>
      <trkpt lat="45.15711" lon="4.97977">
        <ele>253.18200683594</ele>
        <time>2010-12-11T12:47:32Z</time>
      </trkpt>
      <trkpt lat="45.15747" lon="4.97963">
        <ele>253.33000183106</ele>
        <time>2010-12-11T12:47:39Z</time>
      </trkpt>
      <trkpt lat="45.15794" lon="4.97939">
        <ele>253.81199645996</ele>
        <time>2010-12-11T12:47:49Z</time>
      </trkpt>
      <trkpt lat="45.15833" lon="4.9792">
        <ele>253.89599609375</ele>
        <time>2010-12-11T12:47:57Z</time>
      </trkpt>
      <trkpt lat="45.15871" lon="4.97908">
        <ele>254.8809967041</ele>
        <time>2010-12-11T12:48:05Z</time>
      </trkpt>
      <trkpt lat="45.15894" lon="4.97903">
        <ele>255.68899536133</ele>
        <time>2010-12-11T12:48:10Z</time>
      </trkpt>
      <trkpt lat="45.15911" lon="4.97886">
        <ele>255.64799499512</ele>
        <time>2010-12-11T12:48:15Z</time>
      </trkpt>
      <trkpt lat="45.15913" lon="4.97873">
        <ele>255.79100036621</ele>
        <time>2010-12-11T12:48:17Z</time>
      </trkpt>
      <trkpt lat="45.15917" lon="4.97855">
        <ele>256.57998657227</ele>
        <time>2010-12-11T12:48:21Z</time>
      </trkpt>
      <trkpt lat="45.15931" lon="4.97851">
        <ele>255.37300109863</ele>
        <time>2010-12-11T12:48:25Z</time>
      </trkpt>
      <trkpt lat="45.15967" lon="4.97858">
        <ele>255.57099914551</ele>
        <time>2010-12-11T12:48:33Z</time>
      </trkpt>
      <trkpt lat="45.16001" lon="4.97864">
        <ele>256.55099487305</ele>
        <time>2010-12-11T12:48:41Z</time>
      </trkpt>
      <trkpt lat="45.16034" lon="4.97867">
        <ele>256.59899902344</ele>
        <time>2010-12-11T12:48:48Z</time>
      </trkpt>
      <trkpt lat="45.16079" lon="4.97872">
        <ele>256.80899047852</ele>
        <time>2010-12-11T12:48:57Z</time>
      </trkpt>
      <trkpt lat="45.16117" lon="4.97877">
        <ele>258.14700317383</ele>
        <time>2010-12-11T12:49:05Z</time>
      </trkpt>
      <trkpt lat="45.16158" lon="4.97883">
        <ele>259.2080078125</ele>
        <time>2010-12-11T12:49:14Z</time>
      </trkpt>
      <trkpt lat="45.16188" lon="4.97886">
        <ele>259.19000244141</ele>
        <time>2010-12-11T12:49:21Z</time>
      </trkpt>
      <trkpt lat="45.16228" lon="4.97889">
        <ele>260.29998779297</ele>
        <time>2010-12-11T12:49:30Z</time>
      </trkpt>
      <trkpt lat="45.16233" lon="4.97889">
        <ele>260.41198730469</ele>
        <time>2010-12-11T12:49:31Z</time>
      </trkpt>
      <trkpt lat="45.16283" lon="4.97875">
        <ele>260.85998535156</ele>
        <time>2010-12-11T12:49:42Z</time>
      </trkpt>
      <trkpt lat="45.16324" lon="4.97863">
        <ele>261.0530090332</ele>
        <time>2010-12-11T12:49:51Z</time>
      </trkpt>
      <trkpt lat="45.16362" lon="4.97852">
        <ele>261.9280090332</ele>
        <time>2010-12-11T12:50:00Z</time>
      </trkpt>
      <trkpt lat="45.16409" lon="4.97842">
        <ele>261.50399780273</ele>
        <time>2010-12-11T12:50:11Z</time>
      </trkpt>
      <trkpt lat="45.16442" lon="4.97834">
        <ele>262.53799438477</ele>
        <time>2010-12-11T12:50:19Z</time>
      </trkpt>
      <trkpt lat="45.1648" lon="4.97826">
        <ele>263.19299316406</ele>
        <time>2010-12-11T12:50:28Z</time>
      </trkpt>
      <trkpt lat="45.16513" lon="4.97818">
        <ele>263.5419921875</ele>
        <time>2010-12-11T12:50:36Z</time>
      </trkpt>
      <trkpt lat="45.16553" lon="4.9781">
        <ele>263.88400268555</ele>
        <time>2010-12-11T12:50:46Z</time>
      </trkpt>
      <trkpt lat="45.16587" lon="4.97802">
        <ele>264.5539855957</ele>
        <time>2010-12-11T12:50:54Z</time>
      </trkpt>
      <trkpt lat="45.16627" lon="4.97793">
        <ele>265.52700805664</ele>
        <time>2010-12-11T12:51:04Z</time>
      </trkpt>
      <trkpt lat="45.16663" lon="4.97785">
        <ele>265.36401367188</ele>
        <time>2010-12-11T12:51:13Z</time>
      </trkpt>
      <trkpt lat="45.16693" lon="4.97778">
        <ele>266.08700561523</ele>
        <time>2010-12-11T12:51:21Z</time>
      </trkpt>
      <trkpt lat="45.16729" lon="4.97768">
        <ele>267.04699707031</ele>
        <time>2010-12-11T12:51:30Z</time>
      </trkpt>
      <trkpt lat="45.16764" lon="4.97757">
        <ele>267.23400878906</ele>
        <time>2010-12-11T12:51:39Z</time>
      </trkpt>
      <trkpt lat="45.1678" lon="4.97751">
        <ele>269.00100708008</ele>
        <time>2010-12-11T12:51:43Z</time>
      </trkpt>
      <trkpt lat="45.16813" lon="4.97739">
        <ele>269.35900878906</ele>
        <time>2010-12-11T12:51:52Z</time>
      </trkpt>
      <trkpt lat="45.1684" lon="4.97727">
        <ele>271.08801269531</ele>
        <time>2010-12-11T12:52:00Z</time>
      </trkpt>
      <trkpt lat="45.16872" lon="4.97714">
        <ele>272.99099731445</ele>
        <time>2010-12-11T12:52:09Z</time>
      </trkpt>
      <trkpt lat="45.16897" lon="4.97704">
        <ele>273.65701293945</ele>
        <time>2010-12-11T12:52:16Z</time>
      </trkpt>
      <trkpt lat="45.16929" lon="4.97693">
        <ele>275.59399414062</ele>
        <time>2010-12-11T12:52:25Z</time>
      </trkpt>
      <trkpt lat="45.16952" lon="4.97688">
        <ele>276.97799682617</ele>
        <time>2010-12-11T12:52:31Z</time>
      </trkpt>
      <trkpt lat="45.16977" lon="4.97683">
        <ele>276.05099487305</ele>
        <time>2010-12-11T12:52:37Z</time>
      </trkpt>
      <trkpt lat="45.17012" lon="4.97675">
        <ele>276.19000244141</ele>
        <time>2010-12-11T12:52:45Z</time>
      </trkpt>
      <trkpt lat="45.17057" lon="4.97667">
        <ele>276.81698608398</ele>
        <time>2010-12-11T12:52:55Z</time>
      </trkpt>
      <trkpt lat="45.17102" lon="4.97661">
        <ele>276.50299072266</ele>
        <time>2010-12-11T12:53:05Z</time>
      </trkpt>
      <trkpt lat="45.17141" lon="4.97653">
        <ele>276.26501464844</ele>
        <time>2010-12-11T12:53:14Z</time>
      </trkpt>
      <trkpt lat="45.17163" lon="4.97645">
        <ele>277.62899780273</ele>
        <time>2010-12-11T12:53:19Z</time>
      </trkpt>
      <trkpt lat="45.17202" lon="4.97629">
        <ele>277.8219909668</ele>
        <time>2010-12-11T12:53:28Z</time>
      </trkpt>
      <trkpt lat="45.17229" lon="4.97622">
        <ele>278.39999389648</ele>
        <time>2010-12-11T12:53:34Z</time>
      </trkpt>
      <trkpt lat="45.17264" lon="4.97624">
        <ele>278.70401000977</ele>
        <time>2010-12-11T12:53:42Z</time>
      </trkpt>
      <trkpt lat="45.17309" lon="4.97629">
        <ele>278.67199707031</ele>
        <time>2010-12-11T12:53:52Z</time>
      </trkpt>
      <trkpt lat="45.17339" lon="4.97633">
        <ele>279.62600708008</ele>
        <time>2010-12-11T12:53:59Z</time>
      </trkpt>
      <trkpt lat="45.17374" lon="4.97636">
        <ele>279.85400390625</ele>
        <time>2010-12-11T12:54:07Z</time>
      </trkpt>
      <trkpt lat="45.17391" lon="4.97634">
        <ele>280.9169921875</ele>
        <time>2010-12-11T12:54:11Z</time>
      </trkpt>
      <trkpt lat="45.17422" lon="4.97619">
        <ele>282.14599609375</ele>
        <time>2010-12-11T12:54:19Z</time>
      </trkpt>
      <trkpt lat="45.17448" lon="4.97599">
        <ele>283.25900268555</ele>
        <time>2010-12-11T12:54:26Z</time>
      </trkpt>
      <trkpt lat="45.17468" lon="4.97588">
        <ele>285.03500366211</ele>
        <time>2010-12-11T12:54:32Z</time>
      </trkpt>
      <trkpt lat="45.17487" lon="4.97578">
        <ele>285.39498901367</ele>
        <time>2010-12-11T12:54:38Z</time>
      </trkpt>
      <trkpt lat="45.17512" lon="4.97571">
        <ele>287.77398681641</ele>
        <time>2010-12-11T12:54:46Z</time>
      </trkpt>
      <trkpt lat="45.17524" lon="4.97569">
        <ele>289.23400878906</ele>
        <time>2010-12-11T12:54:50Z</time>
      </trkpt>
      <trkpt lat="45.17527" lon="4.97568">
        <ele>289.52099609375</ele>
        <time>2010-12-11T12:54:51Z</time>
      </trkpt>
      <trkpt lat="45.17546" lon="4.97559">
        <ele>290.24899291992</ele>
        <time>2010-12-11T12:54:57Z</time>
      </trkpt>
      <trkpt lat="45.17567" lon="4.97548">
        <ele>292.10400390625</ele>
        <time>2010-12-11T12:55:04Z</time>
      </trkpt>
      <trkpt lat="45.17586" lon="4.97538">
        <ele>293.32598876953</ele>
        <time>2010-12-11T12:55:10Z</time>
      </trkpt>
      <trkpt lat="45.17614" lon="4.97523">
        <ele>295.28201293945</ele>
        <time>2010-12-11T12:55:18Z</time>
      </trkpt>
      <trkpt lat="45.17643" lon="4.97506">
        <ele>297.5830078125</ele>
        <time>2010-12-11T12:55:26Z</time>
      </trkpt>
      <trkpt lat="45.17666" lon="4.97492">
        <ele>299.26800537109</ele>
        <time>2010-12-11T12:55:33Z</time>
      </trkpt>
      <trkpt lat="45.17688" lon="4.97488">
        <ele>299.9580078125</ele>
        <time>2010-12-11T12:55:39Z</time>
      </trkpt>
      <trkpt lat="45.17707" lon="4.97491">
        <ele>300.50900268555</ele>
        <time>2010-12-11T12:55:44Z</time>
      </trkpt>
      <trkpt lat="45.17732" lon="4.97506">
        <ele>301.30499267578</ele>
        <time>2010-12-11T12:55:50Z</time>
      </trkpt>
      <trkpt lat="45.17758" lon="4.97515">
        <ele>302.09799194336</ele>
        <time>2010-12-11T12:55:57Z</time>
      </trkpt>
      <trkpt lat="45.17773" lon="4.97533">
        <ele>302.20300292969</ele>
        <time>2010-12-11T12:56:02Z</time>
      </trkpt>
      <trkpt lat="45.17776" lon="4.97536">
        <ele>302.30200195312</ele>
        <time>2010-12-11T12:56:03Z</time>
      </trkpt>
      <trkpt lat="45.17808" lon="4.97549">
        <ele>303.27600097656</ele>
        <time>2010-12-11T12:56:11Z</time>
      </trkpt>
      <trkpt lat="45.17834" lon="4.97555">
        <ele>302.87799072266</ele>
        <time>2010-12-11T12:56:18Z</time>
      </trkpt>
      <trkpt lat="45.17846" lon="4.97545">
        <ele>303.33898925781</ele>
        <time>2010-12-11T12:56:22Z</time>
      </trkpt>
      <trkpt lat="45.17842" lon="4.97525">
        <ele>303.4049987793</ele>
        <time>2010-12-11T12:56:26Z</time>
      </trkpt>
      <trkpt lat="45.17832" lon="4.97516">
        <ele>303.75201416016</ele>
        <time>2010-12-11T12:56:29Z</time>
      </trkpt>
      <trkpt lat="45.17804" lon="4.97494">
        <ele>305.6130065918</ele>
        <time>2010-12-11T12:56:37Z</time>
      </trkpt>
      <trkpt lat="45.17793" lon="4.97466">
        <ele>307.27499389648</ele>
        <time>2010-12-11T12:56:43Z</time>
      </trkpt>
      <trkpt lat="45.17793" lon="4.9744">
        <ele>308.69799804688</ele>
        <time>2010-12-11T12:56:48Z</time>
      </trkpt>
      <trkpt lat="45.17806" lon="4.97436">
        <ele>309.91198730469</ele>
        <time>2010-12-11T12:56:52Z</time>
      </trkpt>
      <trkpt lat="45.17812" lon="4.97443">
        <ele>310.42300415039</ele>
        <time>2010-12-11T12:56:54Z</time>
      </trkpt>
      <trkpt lat="45.1783" lon="4.97468">
        <ele>311.93200683594</ele>
        <time>2010-12-11T12:57:01Z</time>
      </trkpt>
      <trkpt lat="45.17851" lon="4.97473">
        <ele>313.72399902344</ele>
        <time>2010-12-11T12:57:07Z</time>
      </trkpt>
      <trkpt lat="45.17875" lon="4.9747">
        <ele>316.05099487305</ele>
        <time>2010-12-11T12:57:14Z</time>
      </trkpt>
      <trkpt lat="45.17892" lon="4.97458">
        <ele>317.98901367188</ele>
        <time>2010-12-11T12:57:20Z</time>
      </trkpt>
      <trkpt lat="45.17905" lon="4.97446">
        <ele>319.53601074219</ele>
        <time>2010-12-11T12:57:25Z</time>
      </trkpt>
      <trkpt lat="45.17922" lon="4.97437">
        <ele>321</ele>
        <time>2010-12-11T12:57:31Z</time>
      </trkpt>
      <trkpt lat="45.1794" lon="4.97443">
        <ele>322.42401123047</ele>
        <time>2010-12-11T12:57:37Z</time>
      </trkpt>
      <trkpt lat="45.17963" lon="4.97454">
        <ele>323.61199951172</ele>
        <time>2010-12-11T12:57:44Z</time>
      </trkpt>
      <trkpt lat="45.17992" lon="4.9746">
        <ele>325.14801025391</ele>
        <time>2010-12-11T12:57:51Z</time>
      </trkpt>
      <trkpt lat="45.18004" lon="4.97463">
        <ele>326.02899169922</ele>
        <time>2010-12-11T12:57:54Z</time>
      </trkpt>
      <trkpt lat="45.18027" lon="4.97465">
        <ele>326.91799926758</ele>
        <time>2010-12-11T12:57:59Z</time>
      </trkpt>
      <trkpt lat="45.18029" lon="4.97454">
        <ele>328.2080078125</ele>
        <time>2010-12-11T12:58:01Z</time>
      </trkpt>
      <trkpt lat="45.18023" lon="4.97446">
        <ele>328.88299560547</ele>
        <time>2010-12-11T12:58:03Z</time>
      </trkpt>
      <trkpt lat="45.18019" lon="4.97442">
        <ele>329.22100830078</ele>
        <time>2010-12-11T12:58:04Z</time>
      </trkpt>
      <trkpt lat="45.18007" lon="4.97429">
        <ele>329.97900390625</ele>
        <time>2010-12-11T12:58:07Z</time>
      </trkpt>
      <trkpt lat="45.17993" lon="4.97392">
        <ele>332.03500366211</ele>
        <time>2010-12-11T12:58:12Z</time>
      </trkpt>
      <trkpt lat="45.1799" lon="4.97351">
        <ele>334.98699951172</ele>
        <time>2010-12-11T12:58:19Z</time>
      </trkpt>
      <trkpt lat="45.17988" lon="4.97313">
        <ele>337.07299804688</ele>
        <time>2010-12-11T12:58:27Z</time>
      </trkpt>
      <trkpt lat="45.17987" lon="4.973">
        <ele>337.68899536133</ele>
        <time>2010-12-11T12:58:30Z</time>
      </trkpt>
      <trkpt lat="45.1798" lon="4.97259">
        <ele>339.63500976562</ele>
        <time>2010-12-11T12:58:39Z</time>
      </trkpt>
      <trkpt lat="45.17979" lon="4.97225">
        <ele>341.15899658203</ele>
        <time>2010-12-11T12:58:46Z</time>
      </trkpt>
      <trkpt lat="45.17981" lon="4.9722">
        <ele>341.47399902344</ele>
        <time>2010-12-11T12:58:47Z</time>
      </trkpt>
      <trkpt lat="45.17997" lon="4.97206">
        <ele>343.32400512695</ele>
        <time>2010-12-11T12:58:52Z</time>
      </trkpt>
      <trkpt lat="45.18001" lon="4.97206">
        <ele>343.78201293945</ele>
        <time>2010-12-11T12:58:53Z</time>
      </trkpt>
      <trkpt lat="45.18034" lon="4.97204">
        <ele>346.90798950195</ele>
        <time>2010-12-11T12:59:02Z</time>
      </trkpt>
      <trkpt lat="45.18061" lon="4.97199">
        <ele>348.86898803711</ele>
        <time>2010-12-11T12:59:10Z</time>
      </trkpt>
      <trkpt lat="45.18087" lon="4.97192">
        <ele>351.36898803711</ele>
        <time>2010-12-11T12:59:19Z</time>
      </trkpt>
      <trkpt lat="45.18102" lon="4.9718">
        <ele>353.47500610352</ele>
        <time>2010-12-11T12:59:26Z</time>
      </trkpt>
      <trkpt lat="45.18111" lon="4.97158">
        <ele>354.47601318359</ele>
        <time>2010-12-11T12:59:33Z</time>
      </trkpt>
      <trkpt lat="45.18117" lon="4.97133">
        <ele>356.03100585938</ele>
        <time>2010-12-11T12:59:40Z</time>
      </trkpt>
      <trkpt lat="45.18118" lon="4.97101">
        <ele>357.15200805664</ele>
        <time>2010-12-11T12:59:48Z</time>
      </trkpt>
      <trkpt lat="45.18124" lon="4.97081">
        <ele>358.76098632812</ele>
        <time>2010-12-11T12:59:54Z</time>
      </trkpt>
      <trkpt lat="45.18126" lon="4.97079">
        <ele>358.77099609375</ele>
        <time>2010-12-11T12:59:55Z</time>
      </trkpt>
      <trkpt lat="45.18132" lon="4.97071">
        <ele>360.36700439453</ele>
        <time>2010-12-11T13:00:00Z</time>
      </trkpt>
      <trkpt lat="45.18132" lon="4.97071">
        <ele>360.47100830078</ele>
        <time>2010-12-11T13:00:01Z</time>
      </trkpt>
      <trkpt lat="45.18138" lon="4.97088">
        <ele>360.06399536133</ele>
        <time>2010-12-11T13:01:55Z</time>
      </trkpt>
      <trkpt lat="45.18146" lon="4.97116">
        <ele>361.22601318359</ele>
        <time>2010-12-11T13:02:00Z</time>
      </trkpt>
      <trkpt lat="45.18151" lon="4.9714">
        <ele>362.1369934082</ele>
        <time>2010-12-11T13:02:05Z</time>
      </trkpt>
      <trkpt lat="45.1816" lon="4.97183">
        <ele>363.95599365234</ele>
        <time>2010-12-11T13:02:11Z</time>
      </trkpt>
      <trkpt lat="45.18163" lon="4.97207">
        <ele>365.53601074219</ele>
        <time>2010-12-11T13:02:15Z</time>
      </trkpt>
      <trkpt lat="45.18166" lon="4.97251">
        <ele>366.73901367188</ele>
        <time>2010-12-11T13:02:23Z</time>
      </trkpt>
      <trkpt lat="45.18174" lon="4.9728">
        <ele>368.45098876953</ele>
        <time>2010-12-11T13:02:29Z</time>
      </trkpt>
      <trkpt lat="45.18189" lon="4.97288">
        <ele>368.94900512695</ele>
        <time>2010-12-11T13:02:33Z</time>
      </trkpt>
      <trkpt lat="45.18221" lon="4.97286">
        <ele>371.23300170898</ele>
        <time>2010-12-11T13:02:41Z</time>
      </trkpt>
      <trkpt lat="45.18236" lon="4.97285">
        <ele>372.28601074219</ele>
        <time>2010-12-11T13:02:45Z</time>
      </trkpt>
      <trkpt lat="45.18247" lon="4.97272">
        <ele>373.27099609375</ele>
        <time>2010-12-11T13:02:49Z</time>
      </trkpt>
      <trkpt lat="45.18248" lon="4.97253">
        <ele>373.95700073242</ele>
        <time>2010-12-11T13:02:53Z</time>
      </trkpt>
      <trkpt lat="45.18239" lon="4.97227">
        <ele>375.62899780273</ele>
        <time>2010-12-11T13:02:59Z</time>
      </trkpt>
      <trkpt lat="45.1823" lon="4.97199">
        <ele>377.20599365234</ele>
        <time>2010-12-11T13:03:05Z</time>
      </trkpt>
      <trkpt lat="45.18224" lon="4.97164">
        <ele>378.64401245117</ele>
        <time>2010-12-11T13:03:12Z</time>
      </trkpt>
      <trkpt lat="45.18221" lon="4.97117">
        <ele>380.97601318359</ele>
        <time>2010-12-11T13:03:21Z</time>
      </trkpt>
      <trkpt lat="45.18221" lon="4.9708">
        <ele>382.28100585938</ele>
        <time>2010-12-11T13:03:28Z</time>
      </trkpt>
      <trkpt lat="45.1822" lon="4.97037">
        <ele>383.10699462891</ele>
        <time>2010-12-11T13:03:35Z</time>
      </trkpt>
      <trkpt lat="45.18219" lon="4.96967">
        <ele>384.95401000977</ele>
        <time>2010-12-11T13:03:46Z</time>
      </trkpt>
      <trkpt lat="45.18218" lon="4.96926">
        <ele>386.04501342773</ele>
        <time>2010-12-11T13:03:53Z</time>
      </trkpt>
      <trkpt lat="45.18218" lon="4.96885">
        <ele>387.79598999023</ele>
        <time>2010-12-11T13:04:01Z</time>
      </trkpt>
      <trkpt lat="45.1822" lon="4.96871">
        <ele>388.94198608398</ele>
        <time>2010-12-11T13:04:04Z</time>
      </trkpt>
      <trkpt lat="45.18225" lon="4.96867">
        <ele>389.26098632812</ele>
        <time>2010-12-11T13:04:08Z</time>
      </trkpt>
      <trkpt lat="45.18225" lon="4.96867">
        <ele>389.35101318359</ele>
        <time>2010-12-11T13:04:09Z</time>
      </trkpt>
      <trkpt lat="45.1823" lon="4.96868">
        <ele>389.06698608398</ele>
        <time>2010-12-11T13:04:23Z</time>
      </trkpt>
      <trkpt lat="45.18239" lon="4.96873">
        <ele>388.46499633789</ele>
        <time>2010-12-11T13:04:26Z</time>
      </trkpt>
      <trkpt lat="45.18259" lon="4.96886">
        <ele>386.5299987793</ele>
        <time>2010-12-11T13:04:30Z</time>
      </trkpt>
      <trkpt lat="45.18304" lon="4.96911">
        <ele>383.79098510742</ele>
        <time>2010-12-11T13:04:37Z</time>
      </trkpt>
      <trkpt lat="45.18341" lon="4.9694">
        <ele>380.50900268555</ele>
        <time>2010-12-11T13:04:42Z</time>
      </trkpt>
      <trkpt lat="45.18398" lon="4.96957">
        <ele>376.09799194336</ele>
        <time>2010-12-11T13:04:48Z</time>
      </trkpt>
      <trkpt lat="45.18436" lon="4.96961">
        <ele>376.02301025391</ele>
        <time>2010-12-11T13:04:52Z</time>
      </trkpt>
      <trkpt lat="45.18481" lon="4.96947">
        <ele>374.91299438477</ele>
        <time>2010-12-11T13:04:57Z</time>
      </trkpt>
      <trkpt lat="45.18515" lon="4.96926">
        <ele>373.66500854492</ele>
        <time>2010-12-11T13:05:01Z</time>
      </trkpt>
      <trkpt lat="45.18549" lon="4.96923">
        <ele>373.67300415039</ele>
        <time>2010-12-11T13:05:05Z</time>
      </trkpt>
      <trkpt lat="45.18556" lon="4.96928">
        <ele>373.76501464844</ele>
        <time>2010-12-11T13:05:06Z</time>
      </trkpt>
      <trkpt lat="45.186" lon="4.96963">
        <ele>375.54998779297</ele>
        <time>2010-12-11T13:05:14Z</time>
      </trkpt>
      <trkpt lat="45.1861" lon="4.96969">
        <ele>376.42700195312</ele>
        <time>2010-12-11T13:05:16Z</time>
      </trkpt>
      <trkpt lat="45.18621" lon="4.96973">
        <ele>377.31201171875</ele>
        <time>2010-12-11T13:05:18Z</time>
      </trkpt>
      <trkpt lat="45.18637" lon="4.96977">
        <ele>378.27801513672</ele>
        <time>2010-12-11T13:05:21Z</time>
      </trkpt>
      <trkpt lat="45.18663" lon="4.96994">
        <ele>378.87100219727</ele>
        <time>2010-12-11T13:05:26Z</time>
      </trkpt>
      <trkpt lat="45.187" lon="4.97042">
        <ele>378.57501220703</ele>
        <time>2010-12-11T13:05:34Z</time>
      </trkpt>
      <trkpt lat="45.18705" lon="4.97049">
        <ele>379.01300048828</ele>
        <time>2010-12-11T13:05:35Z</time>
      </trkpt>
      <trkpt lat="45.18726" lon="4.97073">
        <ele>378.36199951172</ele>
        <time>2010-12-11T13:05:39Z</time>
      </trkpt>
      <trkpt lat="45.18761" lon="4.97091">
        <ele>377.63800048828</ele>
        <time>2010-12-11T13:05:44Z</time>
      </trkpt>
      <trkpt lat="45.1879" lon="4.97086">
        <ele>377.70098876953</ele>
        <time>2010-12-11T13:05:48Z</time>
      </trkpt>
      <trkpt lat="45.1881" lon="4.97071">
        <ele>379.84899902344</ele>
        <time>2010-12-11T13:05:52Z</time>
      </trkpt>
      <trkpt lat="45.18814" lon="4.97067">
        <ele>380.39599609375</ele>
        <time>2010-12-11T13:05:53Z</time>
      </trkpt>
      <trkpt lat="45.18845" lon="4.97041">
        <ele>381.81298828125</ele>
        <time>2010-12-11T13:06:00Z</time>
      </trkpt>
      <trkpt lat="45.18874" lon="4.97026">
        <ele>383.20401000977</ele>
        <time>2010-12-11T13:06:06Z</time>
      </trkpt>
      <trkpt lat="45.18917" lon="4.9702">
        <ele>384.64801025391</ele>
        <time>2010-12-11T13:06:14Z</time>
      </trkpt>
      <trkpt lat="45.18946" lon="4.97016">
        <ele>384.37200927734</ele>
        <time>2010-12-11T13:06:19Z</time>
      </trkpt>
      <trkpt lat="45.18983" lon="4.97028">
        <ele>382.31799316406</ele>
        <time>2010-12-11T13:06:24Z</time>
      </trkpt>
      <trkpt lat="45.19013" lon="4.9705">
        <ele>380.36801147461</ele>
        <time>2010-12-11T13:06:28Z</time>
      </trkpt>
      <trkpt lat="45.19029" lon="4.97058">
        <ele>379.13500976562</ele>
        <time>2010-12-11T13:06:30Z</time>
      </trkpt>
      <trkpt lat="45.19066" lon="4.97061">
        <ele>376.61999511719</ele>
        <time>2010-12-11T13:06:34Z</time>
      </trkpt>
      <trkpt lat="45.19075" lon="4.97059">
        <ele>375.81698608398</ele>
        <time>2010-12-11T13:06:35Z</time>
      </trkpt>
      <trkpt lat="45.19104" lon="4.9705">
        <ele>374.05700683594</ele>
        <time>2010-12-11T13:06:38Z</time>
      </trkpt>
      <trkpt lat="45.19112" lon="4.97047">
        <ele>373.64001464844</ele>
        <time>2010-12-11T13:06:39Z</time>
      </trkpt>
      <trkpt lat="45.19148" lon="4.97048">
        <ele>372.77600097656</ele>
        <time>2010-12-11T13:06:43Z</time>
      </trkpt>
      <trkpt lat="45.1917" lon="4.97068">
        <ele>372.60400390625</ele>
        <time>2010-12-11T13:06:46Z</time>
      </trkpt>
      <trkpt lat="45.19183" lon="4.97085">
        <ele>372.14401245117</ele>
        <time>2010-12-11T13:06:48Z</time>
      </trkpt>
      <trkpt lat="45.19213" lon="4.97108">
        <ele>372.04699707031</ele>
        <time>2010-12-11T13:06:52Z</time>
      </trkpt>
      <trkpt lat="45.19243" lon="4.97116">
        <ele>372.87701416016</ele>
        <time>2010-12-11T13:06:56Z</time>
      </trkpt>
      <trkpt lat="45.19292" lon="4.97108">
        <ele>374.17001342773</ele>
        <time>2010-12-11T13:07:03Z</time>
      </trkpt>
      <trkpt lat="45.1933" lon="4.97097">
        <ele>371.14199829102</ele>
        <time>2010-12-11T13:07:08Z</time>
      </trkpt>
      <trkpt lat="45.19339" lon="4.97094">
        <ele>370.24700927734</ele>
        <time>2010-12-11T13:07:09Z</time>
      </trkpt>
      <trkpt lat="45.19373" lon="4.97064">
        <ele>366.55700683594</ele>
        <time>2010-12-11T13:07:13Z</time>
      </trkpt>
      <trkpt lat="45.19405" lon="4.97052">
        <ele>362.62701416016</ele>
        <time>2010-12-11T13:07:16Z</time>
      </trkpt>
      <trkpt lat="45.1943" lon="4.97047">
        <ele>360.21499633789</ele>
        <time>2010-12-11T13:07:18Z</time>
      </trkpt>
      <trkpt lat="45.19459" lon="4.97038">
        <ele>360.70001220703</ele>
        <time>2010-12-11T13:07:21Z</time>
      </trkpt>
      <trkpt lat="45.1949" lon="4.97027">
        <ele>363.10000610352</ele>
        <time>2010-12-11T13:07:25Z</time>
      </trkpt>
      <trkpt lat="45.19519" lon="4.97021">
        <ele>363.03698730469</ele>
        <time>2010-12-11T13:07:29Z</time>
      </trkpt>
      <trkpt lat="45.19527" lon="4.97019">
        <ele>362.50201416016</ele>
        <time>2010-12-11T13:07:30Z</time>
      </trkpt>
      <trkpt lat="45.19559" lon="4.97013">
        <ele>360.05801391602</ele>
        <time>2010-12-11T13:07:34Z</time>
      </trkpt>
      <trkpt lat="45.19605" lon="4.97011">
        <ele>354.21398925781</ele>
        <time>2010-12-11T13:07:39Z</time>
      </trkpt>
      <trkpt lat="45.19615" lon="4.9701">
        <ele>353</ele>
        <time>2010-12-11T13:07:40Z</time>
      </trkpt>
      <trkpt lat="45.19645" lon="4.97009">
        <ele>350.81201171875</ele>
        <time>2010-12-11T13:07:43Z</time>
      </trkpt>
      <trkpt lat="45.19702" lon="4.97003">
        <ele>350.44400024414</ele>
        <time>2010-12-11T13:07:49Z</time>
      </trkpt>
      <trkpt lat="45.19736" lon="4.96992">
        <ele>347.73999023438</ele>
        <time>2010-12-11T13:07:53Z</time>
      </trkpt>
      <trkpt lat="45.19775" lon="4.96975">
        <ele>346.19299316406</ele>
        <time>2010-12-11T13:07:58Z</time>
      </trkpt>
      <trkpt lat="45.19803" lon="4.96954">
        <ele>345.25500488281</ele>
        <time>2010-12-11T13:08:02Z</time>
      </trkpt>
      <trkpt lat="45.19838" lon="4.96934">
        <ele>343.28500366211</ele>
        <time>2010-12-11T13:08:07Z</time>
      </trkpt>
      <trkpt lat="45.19858" lon="4.96905">
        <ele>343.41101074219</ele>
        <time>2010-12-11T13:08:11Z</time>
      </trkpt>
      <trkpt lat="45.1986" lon="4.96895">
        <ele>343.48400878906</ele>
        <time>2010-12-11T13:08:12Z</time>
      </trkpt>
      <trkpt lat="45.19864" lon="4.96863">
        <ele>342.68200683594</ele>
        <time>2010-12-11T13:08:15Z</time>
      </trkpt>
      <trkpt lat="45.19858" lon="4.96819">
        <ele>340.59899902344</ele>
        <time>2010-12-11T13:08:19Z</time>
      </trkpt>
      <trkpt lat="45.19837" lon="4.96799">
        <ele>340.02398681641</ele>
        <time>2010-12-11T13:08:22Z</time>
      </trkpt>
      <trkpt lat="45.19829" lon="4.96794">
        <ele>339.51300048828</ele>
        <time>2010-12-11T13:08:23Z</time>
      </trkpt>
      <trkpt lat="45.19785" lon="4.96779">
        <ele>336.89801025391</ele>
        <time>2010-12-11T13:08:28Z</time>
      </trkpt>
      <trkpt lat="45.19765" lon="4.96776">
        <ele>335.98999023438</ele>
        <time>2010-12-11T13:08:30Z</time>
      </trkpt>
      <trkpt lat="45.19715" lon="4.96765">
        <ele>332.52899169922</ele>
        <time>2010-12-11T13:08:35Z</time>
      </trkpt>
      <trkpt lat="45.19684" lon="4.96757">
        <ele>330.80599975586</ele>
        <time>2010-12-11T13:08:38Z</time>
      </trkpt>
      <trkpt lat="45.19643" lon="4.96758">
        <ele>330.21798706055</ele>
        <time>2010-12-11T13:08:42Z</time>
      </trkpt>
      <trkpt lat="45.19633" lon="4.96762">
        <ele>330.09100341797</ele>
        <time>2010-12-11T13:08:43Z</time>
      </trkpt>
      <trkpt lat="45.19598" lon="4.96783">
        <ele>329.12899780273</ele>
        <time>2010-12-11T13:08:47Z</time>
      </trkpt>
      <trkpt lat="45.19574" lon="4.96771">
        <ele>328.85299682617</ele>
        <time>2010-12-11T13:08:50Z</time>
      </trkpt>
      <trkpt lat="45.19571" lon="4.9676">
        <ele>328.3039855957</ele>
        <time>2010-12-11T13:08:51Z</time>
      </trkpt>
      <trkpt lat="45.19549" lon="4.96699">
        <ele>324.66299438477</ele>
        <time>2010-12-11T13:08:57Z</time>
      </trkpt>
      <trkpt lat="45.19547" lon="4.9669">
        <ele>324.36401367188</ele>
        <time>2010-12-11T13:08:58Z</time>
      </trkpt>
      <trkpt lat="45.19543" lon="4.96639">
        <ele>322.53100585938</ele>
        <time>2010-12-11T13:09:03Z</time>
      </trkpt>
      <trkpt lat="45.19548" lon="4.96581">
        <ele>321.37899780273</ele>
        <time>2010-12-11T13:09:09Z</time>
      </trkpt>
      <trkpt lat="45.19545" lon="4.96533">
        <ele>320.44900512695</ele>
        <time>2010-12-11T13:09:14Z</time>
      </trkpt>
      <trkpt lat="45.19543" lon="4.96475">
        <ele>316.81900024414</ele>
        <time>2010-12-11T13:09:19Z</time>
      </trkpt>
      <trkpt lat="45.19535" lon="4.96411">
        <ele>312.9049987793</ele>
        <time>2010-12-11T13:09:24Z</time>
      </trkpt>
      <trkpt lat="45.1953" lon="4.96381">
        <ele>311.80801391602</ele>
        <time>2010-12-11T13:09:27Z</time>
      </trkpt>
      <trkpt lat="45.19529" lon="4.9635">
        <ele>309.40200805664</ele>
        <time>2010-12-11T13:09:30Z</time>
      </trkpt>
      <trkpt lat="45.19531" lon="4.96328">
        <ele>307.97500610352</ele>
        <time>2010-12-11T13:09:32Z</time>
      </trkpt>
      <trkpt lat="45.19552" lon="4.96248">
        <ele>303.42401123047</ele>
        <time>2010-12-11T13:09:39Z</time>
      </trkpt>
      <trkpt lat="45.19556" lon="4.96238">
        <ele>303.13800048828</ele>
        <time>2010-12-11T13:09:40Z</time>
      </trkpt>
      <trkpt lat="45.19572" lon="4.96195">
        <ele>301.76599121094</ele>
        <time>2010-12-11T13:09:44Z</time>
      </trkpt>
      <trkpt lat="45.19593" lon="4.96134">
        <ele>301.0539855957</ele>
        <time>2010-12-11T13:09:50Z</time>
      </trkpt>
      <trkpt lat="45.19595" lon="4.96094">
        <ele>300.66799926758</ele>
        <time>2010-12-11T13:09:54Z</time>
      </trkpt>
      <trkpt lat="45.19584" lon="4.96016">
        <ele>298.76699829102</ele>
        <time>2010-12-11T13:10:02Z</time>
      </trkpt>
      <trkpt lat="45.19578" lon="4.95976">
        <ele>298.01800537109</ele>
        <time>2010-12-11T13:10:06Z</time>
      </trkpt>
      <trkpt lat="45.19567" lon="4.95901">
        <ele>297.73699951172</ele>
        <time>2010-12-11T13:10:14Z</time>
      </trkpt>
      <trkpt lat="45.19554" lon="4.95841">
        <ele>296.94500732422</ele>
        <time>2010-12-11T13:10:21Z</time>
      </trkpt>
      <trkpt lat="45.19544" lon="4.95806">
        <ele>295.26699829102</ele>
        <time>2010-12-11T13:10:25Z</time>
      </trkpt>
      <trkpt lat="45.19541" lon="4.95797">
        <ele>294.83401489258</ele>
        <time>2010-12-11T13:10:26Z</time>
      </trkpt>
      <trkpt lat="45.19535" lon="4.95764">
        <ele>292.94799804688</ele>
        <time>2010-12-11T13:10:29Z</time>
      </trkpt>
      <trkpt lat="45.19528" lon="4.95727">
        <ele>290.93200683594</ele>
        <time>2010-12-11T13:10:32Z</time>
      </trkpt>
      <trkpt lat="45.19519" lon="4.95663">
        <ele>286.58200073242</ele>
        <time>2010-12-11T13:10:37Z</time>
      </trkpt>
      <trkpt lat="45.19514" lon="4.95635">
        <ele>284.57800292969</ele>
        <time>2010-12-11T13:10:39Z</time>
      </trkpt>
      <trkpt lat="45.19508" lon="4.95607">
        <ele>283.44000244141</ele>
        <time>2010-12-11T13:10:41Z</time>
      </trkpt>
      <trkpt lat="45.19496" lon="4.9558">
        <ele>281.44198608398</ele>
        <time>2010-12-11T13:10:43Z</time>
      </trkpt>
      <trkpt lat="45.19476" lon="4.95542">
        <ele>278.66598510742</ele>
        <time>2010-12-11T13:10:46Z</time>
      </trkpt>
      <trkpt lat="45.1946" lon="4.9548">
        <ele>275.84899902344</ele>
        <time>2010-12-11T13:10:50Z</time>
      </trkpt>
      <trkpt lat="45.19462" lon="4.95446">
        <ele>273.56698608398</ele>
        <time>2010-12-11T13:10:52Z</time>
      </trkpt>
      <trkpt lat="45.19481" lon="4.95403">
        <ele>270.24398803711</ele>
        <time>2010-12-11T13:10:55Z</time>
      </trkpt>
      <trkpt lat="45.19518" lon="4.95329">
        <ele>265.54598999023</ele>
        <time>2010-12-11T13:11:00Z</time>
      </trkpt>
      <trkpt lat="45.19541" lon="4.95267">
        <ele>261.97601318359</ele>
        <time>2010-12-11T13:11:04Z</time>
      </trkpt>
      <trkpt lat="45.19552" lon="4.95241">
        <ele>261.30599975586</ele>
        <time>2010-12-11T13:11:07Z</time>
      </trkpt>
      <trkpt lat="45.19572" lon="4.95216">
        <ele>259.33700561523</ele>
        <time>2010-12-11T13:11:12Z</time>
      </trkpt>
      <trkpt lat="45.19576" lon="4.95213">
        <ele>259.05200195312</ele>
        <time>2010-12-11T13:11:13Z</time>
      </trkpt>
      <trkpt lat="45.19596" lon="4.95202">
        <ele>257.33099365234</ele>
        <time>2010-12-11T13:11:17Z</time>
      </trkpt>
      <trkpt lat="45.19633" lon="4.95182">
        <ele>253.80299377441</ele>
        <time>2010-12-11T13:11:24Z</time>
      </trkpt>
      <trkpt lat="45.19663" lon="4.95172">
        <ele>253.07899475098</ele>
        <time>2010-12-11T13:11:29Z</time>
      </trkpt>
      <trkpt lat="45.19694" lon="4.95167">
        <ele>250.54100036621</ele>
        <time>2010-12-11T13:11:34Z</time>
      </trkpt>
      <trkpt lat="45.1975" lon="4.95158">
        <ele>247.78900146484</ele>
        <time>2010-12-11T13:11:42Z</time>
      </trkpt>
      <trkpt lat="45.19779" lon="4.95153">
        <ele>246.52099609375</ele>
        <time>2010-12-11T13:11:46Z</time>
      </trkpt>
      <trkpt lat="45.198" lon="4.95151">
        <ele>245.65699768066</ele>
        <time>2010-12-11T13:11:49Z</time>
      </trkpt>
      <trkpt lat="45.19845" lon="4.95149">
        <ele>245.29600524902</ele>
        <time>2010-12-11T13:11:56Z</time>
      </trkpt>
      <trkpt lat="45.19881" lon="4.95152">
        <ele>244.66299438477</ele>
        <time>2010-12-11T13:12:02Z</time>
      </trkpt>
      <trkpt lat="45.19942" lon="4.95159">
        <ele>244.13000488281</ele>
        <time>2010-12-11T13:12:12Z</time>
      </trkpt>
      <trkpt lat="45.1996" lon="4.95161">
        <ele>244.15899658203</ele>
        <time>2010-12-11T13:12:15Z</time>
      </trkpt>
      <trkpt lat="45.20026" lon="4.95167">
        <ele>243.66799926758</ele>
        <time>2010-12-11T13:12:26Z</time>
      </trkpt>
      <trkpt lat="45.2005" lon="4.9517">
        <ele>243.81100463867</ele>
        <time>2010-12-11T13:12:30Z</time>
      </trkpt>
      <trkpt lat="45.20091" lon="4.95174">
        <ele>244.40600585938</ele>
        <time>2010-12-11T13:12:37Z</time>
      </trkpt>
      <trkpt lat="45.20148" lon="4.95179">
        <ele>243.47900390625</ele>
        <time>2010-12-11T13:12:47Z</time>
      </trkpt>
      <trkpt lat="45.20203" lon="4.95185">
        <ele>244.86799621582</ele>
        <time>2010-12-11T13:12:57Z</time>
      </trkpt>
      <trkpt lat="45.20267" lon="4.95191">
        <ele>245.21800231934</ele>
        <time>2010-12-11T13:13:09Z</time>
      </trkpt>
      <trkpt lat="45.20317" lon="4.95195">
        <ele>245.35899353027</ele>
        <time>2010-12-11T13:13:18Z</time>
      </trkpt>
      <trkpt lat="45.20381" lon="4.95202">
        <ele>246.2619934082</ele>
        <time>2010-12-11T13:13:29Z</time>
      </trkpt>
      <trkpt lat="45.20428" lon="4.95207">
        <ele>245.64199829102</ele>
        <time>2010-12-11T13:13:37Z</time>
      </trkpt>
      <trkpt lat="45.20495" lon="4.95213">
        <ele>245.22399902344</ele>
        <time>2010-12-11T13:13:48Z</time>
      </trkpt>
      <trkpt lat="45.20551" lon="4.95216">
        <ele>244.21699523926</ele>
        <time>2010-12-11T13:13:57Z</time>
      </trkpt>
      <trkpt lat="45.20616" lon="4.95218">
        <ele>242.43600463867</ele>
        <time>2010-12-11T13:14:07Z</time>
      </trkpt>
      <trkpt lat="45.20678" lon="4.95221">
        <ele>241.3450012207</ele>
        <time>2010-12-11T13:14:16Z</time>
      </trkpt>
      <trkpt lat="45.20749" lon="4.95231">
        <ele>240.08099365234</ele>
        <time>2010-12-11T13:14:26Z</time>
      </trkpt>
      <trkpt lat="45.20808" lon="4.95246">
        <ele>238.20500183106</ele>
        <time>2010-12-11T13:14:34Z</time>
      </trkpt>
      <trkpt lat="45.20853" lon="4.95256">
        <ele>237.89300537109</ele>
        <time>2010-12-11T13:14:40Z</time>
      </trkpt>
      <trkpt lat="45.20921" lon="4.95262">
        <ele>235.22700500488</ele>
        <time>2010-12-11T13:14:49Z</time>
      </trkpt>
      <trkpt lat="45.21" lon="4.9526">
        <ele>234.58599853516</ele>
        <time>2010-12-11T13:15:00Z</time>
      </trkpt>
      <trkpt lat="45.21041" lon="4.95261">
        <ele>234.25199890137</ele>
        <time>2010-12-11T13:15:06Z</time>
      </trkpt>
      <trkpt lat="45.21069" lon="4.95277">
        <ele>236.05599975586</ele>
        <time>2010-12-11T13:15:11Z</time>
      </trkpt>
      <trkpt lat="45.21079" lon="4.95302">
        <ele>237.55000305176</ele>
        <time>2010-12-11T13:15:15Z</time>
      </trkpt>
      <trkpt lat="45.2109" lon="4.95353">
        <ele>240.09100341797</ele>
        <time>2010-12-11T13:15:22Z</time>
      </trkpt>
      <trkpt lat="45.21091" lon="4.9536">
        <ele>240.37100219727</ele>
        <time>2010-12-11T13:15:23Z</time>
      </trkpt>
      <trkpt lat="45.21093" lon="4.95368">
        <ele>240.72999572754</ele>
        <time>2010-12-11T13:15:24Z</time>
      </trkpt>
      <trkpt lat="45.21095" lon="4.95375">
        <ele>241.13200378418</ele>
        <time>2010-12-11T13:15:25Z</time>
      </trkpt>
      <trkpt lat="45.21107" lon="4.95421">
        <ele>243.28100585938</ele>
        <time>2010-12-11T13:15:32Z</time>
      </trkpt>
      <trkpt lat="45.21128" lon="4.95445">
        <ele>244.12899780273</ele>
        <time>2010-12-11T13:15:38Z</time>
      </trkpt>
      <trkpt lat="45.2115" lon="4.95448">
        <ele>245.54200744629</ele>
        <time>2010-12-11T13:15:43Z</time>
      </trkpt>
      <trkpt lat="45.21159" lon="4.95445">
        <ele>245.52400207519</ele>
        <time>2010-12-11T13:15:45Z</time>
      </trkpt>
      <trkpt lat="45.21183" lon="4.95439">
        <ele>246.69099426269</ele>
        <time>2010-12-11T13:15:50Z</time>
      </trkpt>
      <trkpt lat="45.21193" lon="4.95436">
        <ele>246.80799865723</ele>
        <time>2010-12-11T13:15:52Z</time>
      </trkpt>
      <trkpt lat="45.21203" lon="4.95433">
        <ele>246.75999450684</ele>
        <time>2010-12-11T13:15:54Z</time>
      </trkpt>
      <trkpt lat="45.21209" lon="4.95432">
        <ele>246.74200439453</ele>
        <time>2010-12-11T13:15:55Z</time>
      </trkpt>
      <trkpt lat="45.21248" lon="4.95427">
        <ele>246.57699584961</ele>
        <time>2010-12-11T13:16:02Z</time>
      </trkpt>
      <trkpt lat="45.21265" lon="4.9543">
        <ele>247.02099609375</ele>
        <time>2010-12-11T13:16:05Z</time>
      </trkpt>
      <trkpt lat="45.21277" lon="4.95433">
        <ele>246.85699462891</ele>
        <time>2010-12-11T13:16:07Z</time>
      </trkpt>
      <trkpt lat="45.21283" lon="4.95435">
        <ele>246.64199829102</ele>
        <time>2010-12-11T13:16:08Z</time>
      </trkpt>
      <trkpt lat="45.21302" lon="4.9544">
        <ele>245.90699768066</ele>
        <time>2010-12-11T13:16:11Z</time>
      </trkpt>
      <trkpt lat="45.21346" lon="4.95452">
        <ele>245.88299560547</ele>
        <time>2010-12-11T13:16:18Z</time>
      </trkpt>
      <trkpt lat="45.21352" lon="4.95454">
        <ele>245.81500244141</ele>
        <time>2010-12-11T13:16:19Z</time>
      </trkpt>
      <trkpt lat="45.21375" lon="4.95461">
        <ele>245.7559967041</ele>
        <time>2010-12-11T13:16:23Z</time>
      </trkpt>
      <trkpt lat="45.21416" lon="4.95473">
        <ele>245.90100097656</ele>
        <time>2010-12-11T13:16:30Z</time>
      </trkpt>
      <trkpt lat="45.2148" lon="4.95492">
        <ele>245.44200134277</ele>
        <time>2010-12-11T13:16:40Z</time>
      </trkpt>
      <trkpt lat="45.21535" lon="4.95511">
        <ele>243.85299682617</ele>
        <time>2010-12-11T13:16:49Z</time>
      </trkpt>
      <trkpt lat="45.21574" lon="4.95534">
        <ele>243.85499572754</ele>
        <time>2010-12-11T13:16:56Z</time>
      </trkpt>
      <trkpt lat="45.21616" lon="4.95566">
        <ele>244.47399902344</ele>
        <time>2010-12-11T13:17:05Z</time>
      </trkpt>
      <trkpt lat="45.21661" lon="4.95602">
        <ele>245.44099426269</ele>
        <time>2010-12-11T13:17:15Z</time>
      </trkpt>
      <trkpt lat="45.21693" lon="4.95625">
        <ele>246.32800292969</ele>
        <time>2010-12-11T13:17:23Z</time>
      </trkpt>
      <trkpt lat="45.21725" lon="4.95652">
        <ele>246.78300476074</ele>
        <time>2010-12-11T13:17:32Z</time>
      </trkpt>
      <trkpt lat="45.21756" lon="4.95676">
        <ele>246.60400390625</ele>
        <time>2010-12-11T13:17:40Z</time>
      </trkpt>
      <trkpt lat="45.21793" lon="4.95704">
        <ele>246.84599304199</ele>
        <time>2010-12-11T13:17:49Z</time>
      </trkpt>
      <trkpt lat="45.21835" lon="4.95737">
        <ele>246.73599243164</ele>
        <time>2010-12-11T13:17:59Z</time>
      </trkpt>
      <trkpt lat="45.21868" lon="4.95763">
        <ele>247.03399658203</ele>
        <time>2010-12-11T13:18:06Z</time>
      </trkpt>
      <trkpt lat="45.2193" lon="4.95812">
        <ele>248.05999755859</ele>
        <time>2010-12-11T13:18:19Z</time>
      </trkpt>
      <trkpt lat="45.21988" lon="4.95857">
        <ele>248.98399353027</ele>
        <time>2010-12-11T13:18:31Z</time>
      </trkpt>
      <trkpt lat="45.22044" lon="4.95902">
        <ele>249.66600036621</ele>
        <time>2010-12-11T13:18:42Z</time>
      </trkpt>
      <trkpt lat="45.221" lon="4.95945">
        <ele>251.23399353027</ele>
        <time>2010-12-11T13:18:53Z</time>
      </trkpt>
      <trkpt lat="45.22105" lon="4.95949">
        <ele>251.13499450684</ele>
        <time>2010-12-11T13:18:54Z</time>
      </trkpt>
      <trkpt lat="45.2211" lon="4.95953">
        <ele>251.13900756836</ele>
        <time>2010-12-11T13:18:55Z</time>
      </trkpt>
      <trkpt lat="45.22115" lon="4.95957">
        <ele>251.10000610352</ele>
        <time>2010-12-11T13:18:56Z</time>
      </trkpt>
      <trkpt lat="45.22136" lon="4.95973">
        <ele>251.11000061035</ele>
        <time>2010-12-11T13:19:00Z</time>
      </trkpt>
      <trkpt lat="45.22178" lon="4.96006">
        <ele>251.08500671387</ele>
        <time>2010-12-11T13:19:08Z</time>
      </trkpt>
      <trkpt lat="45.22193" lon="4.96018">
        <ele>251.03799438477</ele>
        <time>2010-12-11T13:19:11Z</time>
      </trkpt>
      <trkpt lat="45.22229" lon="4.96046">
        <ele>250.58000183106</ele>
        <time>2010-12-11T13:19:18Z</time>
      </trkpt>
      <trkpt lat="45.22281" lon="4.96087">
        <ele>251.23899841309</ele>
        <time>2010-12-11T13:19:28Z</time>
      </trkpt>
      <trkpt lat="45.22332" lon="4.96127">
        <ele>251.01899719238</ele>
        <time>2010-12-11T13:19:38Z</time>
      </trkpt>
      <trkpt lat="45.22393" lon="4.96175">
        <ele>250.59399414062</ele>
        <time>2010-12-11T13:19:50Z</time>
      </trkpt>
      <trkpt lat="45.22404" lon="4.96183">
        <ele>250.69200134277</ele>
        <time>2010-12-11T13:19:52Z</time>
      </trkpt>
      <trkpt lat="45.2242" lon="4.96194">
        <ele>250.79800415039</ele>
        <time>2010-12-11T13:19:55Z</time>
      </trkpt>
      <trkpt lat="45.22475" lon="4.96226">
        <ele>251.19500732422</ele>
        <time>2010-12-11T13:20:05Z</time>
      </trkpt>
      <trkpt lat="45.2253" lon="4.96258">
        <ele>251.88499450684</ele>
        <time>2010-12-11T13:20:15Z</time>
      </trkpt>
      <trkpt lat="45.22583" lon="4.96291">
        <ele>251.07899475098</ele>
        <time>2010-12-11T13:20:24Z</time>
      </trkpt>
      <trkpt lat="45.22625" lon="4.96309">
        <ele>248.46099853516</ele>
        <time>2010-12-11T13:20:30Z</time>
      </trkpt>
      <trkpt lat="45.22655" lon="4.96307">
        <ele>247.13900756836</ele>
        <time>2010-12-11T13:20:34Z</time>
      </trkpt>
      <trkpt lat="45.22678" lon="4.96292">
        <ele>246.46600341797</ele>
        <time>2010-12-11T13:20:37Z</time>
      </trkpt>
      <trkpt lat="45.22684" lon="4.96284">
        <ele>245.92700195312</ele>
        <time>2010-12-11T13:20:38Z</time>
      </trkpt>
      <trkpt lat="45.22698" lon="4.96267">
        <ele>245.12600708008</ele>
        <time>2010-12-11T13:20:40Z</time>
      </trkpt>
      <trkpt lat="45.22726" lon="4.96226">
        <ele>244.01899719238</ele>
        <time>2010-12-11T13:20:45Z</time>
      </trkpt>
      <trkpt lat="45.2274" lon="4.96205">
        <ele>244.42300415039</ele>
        <time>2010-12-11T13:20:48Z</time>
      </trkpt>
      <trkpt lat="45.22772" lon="4.96157">
        <ele>244.10400390625</ele>
        <time>2010-12-11T13:20:56Z</time>
      </trkpt>
      <trkpt lat="45.22785" lon="4.96139">
        <ele>243.99499511719</ele>
        <time>2010-12-11T13:20:59Z</time>
      </trkpt>
      <trkpt lat="45.22804" lon="4.96083">
        <ele>244.70399475098</ele>
        <time>2010-12-11T13:21:06Z</time>
      </trkpt>
      <trkpt lat="45.22828" lon="4.96013">
        <ele>244.86099243164</ele>
        <time>2010-12-11T13:21:15Z</time>
      </trkpt>
      <trkpt lat="45.22846" lon="4.95973">
        <ele>245.40899658203</ele>
        <time>2010-12-11T13:21:21Z</time>
      </trkpt>
      <trkpt lat="45.22861" lon="4.95952">
        <ele>245.53100585938</ele>
        <time>2010-12-11T13:21:25Z</time>
      </trkpt>
      <trkpt lat="45.22874" lon="4.95931">
        <ele>245.88299560547</ele>
        <time>2010-12-11T13:21:29Z</time>
      </trkpt>
      <trkpt lat="45.22897" lon="4.95885">
        <ele>247.01400756836</ele>
        <time>2010-12-11T13:21:37Z</time>
      </trkpt>
      <trkpt lat="45.22932" lon="4.95834">
        <ele>248.18600463867</ele>
        <time>2010-12-11T13:21:47Z</time>
      </trkpt>
      <trkpt lat="45.22945" lon="4.95814">
        <ele>248.45399475098</ele>
        <time>2010-12-11T13:21:51Z</time>
      </trkpt>
      <trkpt lat="45.22952" lon="4.95805">
        <ele>248.92300415039</ele>
        <time>2010-12-11T13:21:53Z</time>
      </trkpt>
      <trkpt lat="45.22981" lon="4.95771">
        <ele>250.00100708008</ele>
        <time>2010-12-11T13:22:01Z</time>
      </trkpt>
      <trkpt lat="45.22988" lon="4.95763">
        <ele>250.625</ele>
        <time>2010-12-11T13:22:03Z</time>
      </trkpt>
      <trkpt lat="45.23017" lon="4.95727">
        <ele>251.33399963379</ele>
        <time>2010-12-11T13:22:12Z</time>
      </trkpt>
      <trkpt lat="45.23038" lon="4.957">
        <ele>252.78199768066</ele>
        <time>2010-12-11T13:22:20Z</time>
      </trkpt>
      <trkpt lat="45.23042" lon="4.95692">
        <ele>253.29699707031</ele>
        <time>2010-12-11T13:22:25Z</time>
      </trkpt>
      <trkpt lat="45.23042" lon="4.95692">
        <ele>253.34700012207</ele>
        <time>2010-12-11T13:22:26Z</time>
      </trkpt>
      <trkpt lat="45.23044" lon="4.95691">
        <ele>253.38499450684</ele>
        <time>2010-12-11T13:22:45Z</time>
      </trkpt>
      <trkpt lat="45.23054" lon="4.95682">
        <ele>253.54100036621</ele>
        <time>2010-12-11T13:22:52Z</time>
      </trkpt>
      <trkpt lat="45.23065" lon="4.95668">
        <ele>254.08200073242</ele>
        <time>2010-12-11T13:22:58Z</time>
      </trkpt>
      <trkpt lat="45.23075" lon="4.95652">
        <ele>254.41600036621</ele>
        <time>2010-12-11T13:23:03Z</time>
      </trkpt>
      <trkpt lat="45.23092" lon="4.95631">
        <ele>255.8630065918</ele>
        <time>2010-12-11T13:23:10Z</time>
      </trkpt>
      <trkpt lat="45.23103" lon="4.95623">
        <ele>256.69400024414</ele>
        <time>2010-12-11T13:23:14Z</time>
      </trkpt>
      <trkpt lat="45.23105" lon="4.95621">
        <ele>256.84100341797</ele>
        <time>2010-12-11T13:23:15Z</time>
      </trkpt>
      <trkpt lat="45.23112" lon="4.95615">
        <ele>257.12200927734</ele>
        <time>2010-12-11T13:23:18Z</time>
      </trkpt>
      <trkpt lat="45.23114" lon="4.95613">
        <ele>257.24499511719</ele>
        <time>2010-12-11T13:23:19Z</time>
      </trkpt>
      <trkpt lat="45.23128" lon="4.95603">
        <ele>258.0299987793</ele>
        <time>2010-12-11T13:23:24Z</time>
      </trkpt>
      <trkpt lat="45.2315" lon="4.95591">
        <ele>259.60000610352</ele>
        <time>2010-12-11T13:23:31Z</time>
      </trkpt>
      <trkpt lat="45.23171" lon="4.95579">
        <ele>261.0950012207</ele>
        <time>2010-12-11T13:23:38Z</time>
      </trkpt>
      <trkpt lat="45.23177" lon="4.95574">
        <ele>261.59100341797</ele>
        <time>2010-12-11T13:23:40Z</time>
      </trkpt>
      <trkpt lat="45.2318" lon="4.95572">
        <ele>261.59100341797</ele>
        <time>2010-12-11T13:23:41Z</time>
      </trkpt>
      <trkpt lat="45.2319" lon="4.95567">
        <ele>262.50900268555</ele>
        <time>2010-12-11T13:23:44Z</time>
      </trkpt>
      <trkpt lat="45.23193" lon="4.95565">
        <ele>262.8039855957</ele>
        <time>2010-12-11T13:23:45Z</time>
      </trkpt>
      <trkpt lat="45.23211" lon="4.95555">
        <ele>264.29998779297</ele>
        <time>2010-12-11T13:23:51Z</time>
      </trkpt>
      <trkpt lat="45.23226" lon="4.95553">
        <ele>265.47601318359</ele>
        <time>2010-12-11T13:23:56Z</time>
      </trkpt>
      <trkpt lat="45.2324" lon="4.95561">
        <ele>267.01699829102</ele>
        <time>2010-12-11T13:24:01Z</time>
      </trkpt>
      <trkpt lat="45.23258" lon="4.95579">
        <ele>268.94799804688</ele>
        <time>2010-12-11T13:24:08Z</time>
      </trkpt>
      <trkpt lat="45.23269" lon="4.95591">
        <ele>270.58200073242</ele>
        <time>2010-12-11T13:24:13Z</time>
      </trkpt>
      <trkpt lat="45.23286" lon="4.95609">
        <ele>272.60198974609</ele>
        <time>2010-12-11T13:24:21Z</time>
      </trkpt>
      <trkpt lat="45.23296" lon="4.9562">
        <ele>274.42401123047</ele>
        <time>2010-12-11T13:24:26Z</time>
      </trkpt>
      <trkpt lat="45.23297" lon="4.95621">
        <ele>274.76599121094</ele>
        <time>2010-12-11T13:24:27Z</time>
      </trkpt>
      <trkpt lat="45.23309" lon="4.95628">
        <ele>276.16101074219</ele>
        <time>2010-12-11T13:24:33Z</time>
      </trkpt>
      <trkpt lat="45.23323" lon="4.95634">
        <ele>278.14498901367</ele>
        <time>2010-12-11T13:24:39Z</time>
      </trkpt>
      <trkpt lat="45.23336" lon="4.95641">
        <ele>279.53799438477</ele>
        <time>2010-12-11T13:24:45Z</time>
      </trkpt>
      <trkpt lat="45.23355" lon="4.95639">
        <ele>280.29901123047</ele>
        <time>2010-12-11T13:24:51Z</time>
      </trkpt>
      <trkpt lat="45.23372" lon="4.95633">
        <ele>281.91598510742</ele>
        <time>2010-12-11T13:24:56Z</time>
      </trkpt>
      <trkpt lat="45.23381" lon="4.9563">
        <ele>282.64801025391</ele>
        <time>2010-12-11T13:24:59Z</time>
      </trkpt>
      <trkpt lat="45.23384" lon="4.95628">
        <ele>282.88598632812</ele>
        <time>2010-12-11T13:25:00Z</time>
      </trkpt>
      <trkpt lat="45.23402" lon="4.95622">
        <ele>284.28399658203</ele>
        <time>2010-12-11T13:25:06Z</time>
      </trkpt>
      <trkpt lat="45.23425" lon="4.95611">
        <ele>286.49099731445</ele>
        <time>2010-12-11T13:25:14Z</time>
      </trkpt>
      <trkpt lat="45.23444" lon="4.95592">
        <ele>288.36898803711</ele>
        <time>2010-12-11T13:25:22Z</time>
      </trkpt>
      <trkpt lat="45.23447" lon="4.9558">
        <ele>288.9580078125</ele>
        <time>2010-12-11T13:25:25Z</time>
      </trkpt>
      <trkpt lat="45.23446" lon="4.95559">
        <ele>289.66598510742</ele>
        <time>2010-12-11T13:25:30Z</time>
      </trkpt>
      <trkpt lat="45.23433" lon="4.95546">
        <ele>290.90600585938</ele>
        <time>2010-12-11T13:25:35Z</time>
      </trkpt>
      <trkpt lat="45.23411" lon="4.95546">
        <ele>292.38299560547</ele>
        <time>2010-12-11T13:25:42Z</time>
      </trkpt>
      <trkpt lat="45.23405" lon="4.95546">
        <ele>292.85299682617</ele>
        <time>2010-12-11T13:25:44Z</time>
      </trkpt>
      <trkpt lat="45.234" lon="4.95543">
        <ele>293.40200805664</ele>
        <time>2010-12-11T13:25:46Z</time>
      </trkpt>
      <trkpt lat="45.23397" lon="4.95542">
        <ele>293.7080078125</ele>
        <time>2010-12-11T13:25:47Z</time>
      </trkpt>
      <trkpt lat="45.23398" lon="4.9553">
        <ele>294.57901000977</ele>
        <time>2010-12-11T13:25:51Z</time>
      </trkpt>
      <trkpt lat="45.23404" lon="4.95529">
        <ele>295.12200927734</ele>
        <time>2010-12-11T13:25:53Z</time>
      </trkpt>
      <trkpt lat="45.23434" lon="4.95533">
        <ele>297.0719909668</ele>
        <time>2010-12-11T13:26:02Z</time>
      </trkpt>
      <trkpt lat="45.23469" lon="4.95533">
        <ele>299.4289855957</ele>
        <time>2010-12-11T13:26:13Z</time>
      </trkpt>
      <trkpt lat="45.23492" lon="4.95527">
        <ele>301.7080078125</ele>
        <time>2010-12-11T13:26:20Z</time>
      </trkpt>
      <trkpt lat="45.23521" lon="4.95523">
        <ele>304.66101074219</ele>
        <time>2010-12-11T13:26:29Z</time>
      </trkpt>
      <trkpt lat="45.23548" lon="4.9553">
        <ele>307.1780090332</ele>
        <time>2010-12-11T13:26:37Z</time>
      </trkpt>
      <trkpt lat="45.23573" lon="4.95547">
        <ele>309.09799194336</ele>
        <time>2010-12-11T13:26:45Z</time>
      </trkpt>
      <trkpt lat="45.23592" lon="4.95572">
        <ele>310.82901000977</ele>
        <time>2010-12-11T13:26:52Z</time>
      </trkpt>
      <trkpt lat="45.23606" lon="4.95604">
        <ele>312.5710144043</ele>
        <time>2010-12-11T13:26:59Z</time>
      </trkpt>
      <trkpt lat="45.23616" lon="4.95623">
        <ele>314.13299560547</ele>
        <time>2010-12-11T13:27:04Z</time>
      </trkpt>
      <trkpt lat="45.23619" lon="4.95627">
        <ele>314.45700073242</ele>
        <time>2010-12-11T13:27:05Z</time>
      </trkpt>
      <trkpt lat="45.23632" lon="4.95644">
        <ele>315.62399291992</ele>
        <time>2010-12-11T13:27:10Z</time>
      </trkpt>
      <trkpt lat="45.23656" lon="4.95668">
        <ele>318.18798828125</ele>
        <time>2010-12-11T13:27:18Z</time>
      </trkpt>
      <trkpt lat="45.23682" lon="4.95683">
        <ele>320.16000366211</ele>
        <time>2010-12-11T13:27:26Z</time>
      </trkpt>
      <trkpt lat="45.23704" lon="4.95688">
        <ele>321.65301513672</ele>
        <time>2010-12-11T13:27:33Z</time>
      </trkpt>
      <trkpt lat="45.23726" lon="4.95694">
        <ele>323.17599487305</ele>
        <time>2010-12-11T13:27:40Z</time>
      </trkpt>
      <trkpt lat="45.23743" lon="4.95706">
        <ele>324.76901245117</ele>
        <time>2010-12-11T13:27:46Z</time>
      </trkpt>
      <trkpt lat="45.23764" lon="4.95723">
        <ele>327.14300537109</ele>
        <time>2010-12-11T13:27:54Z</time>
      </trkpt>
      <trkpt lat="45.23786" lon="4.95728">
        <ele>328.35101318359</ele>
        <time>2010-12-11T13:28:01Z</time>
      </trkpt>
      <trkpt lat="45.23806" lon="4.95722">
        <ele>330.63299560547</ele>
        <time>2010-12-11T13:28:07Z</time>
      </trkpt>
      <trkpt lat="45.23822" lon="4.95702">
        <ele>332.18701171875</ele>
        <time>2010-12-11T13:28:13Z</time>
      </trkpt>
      <trkpt lat="45.23825" lon="4.95694">
        <ele>332.39300537109</ele>
        <time>2010-12-11T13:28:15Z</time>
      </trkpt>
      <trkpt lat="45.23827" lon="4.9569">
        <ele>332.60198974609</ele>
        <time>2010-12-11T13:28:16Z</time>
      </trkpt>
      <trkpt lat="45.2383" lon="4.95683">
        <ele>333.14999389648</ele>
        <time>2010-12-11T13:28:18Z</time>
      </trkpt>
      <trkpt lat="45.2383" lon="4.95679">
        <ele>333.26998901367</ele>
        <time>2010-12-11T13:28:19Z</time>
      </trkpt>
      <trkpt lat="45.23839" lon="4.95642">
        <ele>335.2919921875</ele>
        <time>2010-12-11T13:28:28Z</time>
      </trkpt>
      <trkpt lat="45.23845" lon="4.95612">
        <ele>336.86801147461</ele>
        <time>2010-12-11T13:28:36Z</time>
      </trkpt>
      <trkpt lat="45.23853" lon="4.95599">
        <ele>337.6789855957</ele>
        <time>2010-12-11T13:28:41Z</time>
      </trkpt>
      <trkpt lat="45.23864" lon="4.95587">
        <ele>338.73599243164</ele>
        <time>2010-12-11T13:28:47Z</time>
      </trkpt>
      <trkpt lat="45.23867" lon="4.95583">
        <ele>339.17700195312</ele>
        <time>2010-12-11T13:28:49Z</time>
      </trkpt>
      <trkpt lat="45.23872" lon="4.95566">
        <ele>340.12399291992</ele>
        <time>2010-12-11T13:28:55Z</time>
      </trkpt>
      <trkpt lat="45.23881" lon="4.95554">
        <ele>341.78698730469</ele>
        <time>2010-12-11T13:29:01Z</time>
      </trkpt>
      <trkpt lat="45.2389" lon="4.95549">
        <ele>344.40798950195</ele>
        <time>2010-12-11T13:29:07Z</time>
      </trkpt>
      <trkpt lat="45.23892" lon="4.95548">
        <ele>344.69400024414</ele>
        <time>2010-12-11T13:29:08Z</time>
      </trkpt>
      <trkpt lat="45.23904" lon="4.95543">
        <ele>346.54800415039</ele>
        <time>2010-12-11T13:29:15Z</time>
      </trkpt>
      <trkpt lat="45.23919" lon="4.95535">
        <ele>349.05599975586</ele>
        <time>2010-12-11T13:29:23Z</time>
      </trkpt>
      <trkpt lat="45.23926" lon="4.95528">
        <ele>349.95700073242</ele>
        <time>2010-12-11T13:29:26Z</time>
      </trkpt>
      <trkpt lat="45.23929" lon="4.95525">
        <ele>350.41101074219</ele>
        <time>2010-12-11T13:29:27Z</time>
      </trkpt>
      <trkpt lat="45.23937" lon="4.95516">
        <ele>351.33700561523</ele>
        <time>2010-12-11T13:29:29Z</time>
      </trkpt>
      <trkpt lat="45.2395" lon="4.955">
        <ele>353.82800292969</ele>
        <time>2010-12-11T13:29:32Z</time>
      </trkpt>
      <trkpt lat="45.23957" lon="4.9549">
        <ele>355.26300048828</ele>
        <time>2010-12-11T13:29:34Z</time>
      </trkpt>
      <trkpt lat="45.23967" lon="4.95474">
        <ele>357.56500244141</ele>
        <time>2010-12-11T13:29:39Z</time>
      </trkpt>
      <trkpt lat="45.23978" lon="4.95452">
        <ele>359.06399536133</ele>
        <time>2010-12-11T13:29:46Z</time>
      </trkpt>
      <trkpt lat="45.23991" lon="4.9543">
        <ele>360.22500610352</ele>
        <time>2010-12-11T13:29:54Z</time>
      </trkpt>
      <trkpt lat="45.24006" lon="4.9541">
        <ele>361.47399902344</ele>
        <time>2010-12-11T13:30:02Z</time>
      </trkpt>
      <trkpt lat="45.24019" lon="4.95399">
        <ele>362.45199584961</ele>
        <time>2010-12-11T13:30:08Z</time>
      </trkpt>
      <trkpt lat="45.24023" lon="4.95397">
        <ele>363.26300048828</ele>
        <time>2010-12-11T13:30:10Z</time>
      </trkpt>
      <trkpt lat="45.24032" lon="4.95392">
        <ele>364.58200073242</ele>
        <time>2010-12-11T13:30:14Z</time>
      </trkpt>
      <trkpt lat="45.24051" lon="4.95386">
        <ele>366.59399414062</ele>
        <time>2010-12-11T13:30:22Z</time>
      </trkpt>
      <trkpt lat="45.24059" lon="4.95387">
        <ele>367.66900634766</ele>
        <time>2010-12-11T13:30:26Z</time>
      </trkpt>
      <trkpt lat="45.24066" lon="4.95391">
        <ele>369.07299804688</ele>
        <time>2010-12-11T13:30:30Z</time>
      </trkpt>
      <trkpt lat="45.24079" lon="4.95402">
        <ele>370.59399414062</ele>
        <time>2010-12-11T13:30:37Z</time>
      </trkpt>
      <trkpt lat="45.2409" lon="4.95417">
        <ele>371.41400146484</ele>
        <time>2010-12-11T13:30:41Z</time>
      </trkpt>
      <trkpt lat="45.24094" lon="4.95423">
        <ele>371.64498901367</ele>
        <time>2010-12-11T13:30:42Z</time>
      </trkpt>
      <trkpt lat="45.24103" lon="4.95452">
        <ele>374.98098754883</ele>
        <time>2010-12-11T13:30:46Z</time>
      </trkpt>
      <trkpt lat="45.24106" lon="4.95468">
        <ele>376.80599975586</ele>
        <time>2010-12-11T13:30:49Z</time>
      </trkpt>
      <trkpt lat="45.24109" lon="4.95484">
        <ele>378.63400268555</ele>
        <time>2010-12-11T13:30:53Z</time>
      </trkpt>
      <trkpt lat="45.24117" lon="4.95512">
        <ele>380.41400146484</ele>
        <time>2010-12-11T13:31:01Z</time>
      </trkpt>
      <trkpt lat="45.24119" lon="4.95518">
        <ele>380.70199584961</ele>
        <time>2010-12-11T13:31:03Z</time>
      </trkpt>
      <trkpt lat="45.2412" lon="4.95522">
        <ele>380.82598876953</ele>
        <time>2010-12-11T13:31:04Z</time>
      </trkpt>
      <trkpt lat="45.2413" lon="4.95549">
        <ele>381.35699462891</ele>
        <time>2010-12-11T13:31:12Z</time>
      </trkpt>
      <trkpt lat="45.24144" lon="4.95581">
        <ele>381.99798583984</ele>
        <time>2010-12-11T13:31:20Z</time>
      </trkpt>
      <trkpt lat="45.24165" lon="4.95627">
        <ele>382.33999633789</ele>
        <time>2010-12-11T13:31:30Z</time>
      </trkpt>
      <trkpt lat="45.24189" lon="4.95683">
        <ele>382.99099731445</ele>
        <time>2010-12-11T13:31:42Z</time>
      </trkpt>
      <trkpt lat="45.24195" lon="4.95696">
        <ele>382.99798583984</ele>
        <time>2010-12-11T13:31:45Z</time>
      </trkpt>
      <trkpt lat="45.24207" lon="4.95714">
        <ele>382.13500976562</ele>
        <time>2010-12-11T13:31:49Z</time>
      </trkpt>
      <trkpt lat="45.24213" lon="4.95723">
        <ele>381.92001342773</ele>
        <time>2010-12-11T13:31:51Z</time>
      </trkpt>
      <trkpt lat="45.2422" lon="4.95731">
        <ele>381.42700195312</ele>
        <time>2010-12-11T13:31:53Z</time>
      </trkpt>
      <trkpt lat="45.24224" lon="4.95736">
        <ele>381.43399047852</ele>
        <time>2010-12-11T13:31:54Z</time>
      </trkpt>
      <trkpt lat="45.24258" lon="4.95777">
        <ele>381.91299438477</ele>
        <time>2010-12-11T13:32:03Z</time>
      </trkpt>
      <trkpt lat="45.24284" lon="4.95813">
        <ele>382.78799438477</ele>
        <time>2010-12-11T13:32:11Z</time>
      </trkpt>
      <trkpt lat="45.2431" lon="4.95851">
        <ele>380.49499511719</ele>
        <time>2010-12-11T13:32:19Z</time>
      </trkpt>
      <trkpt lat="45.24341" lon="4.95894">
        <ele>380.47299194336</ele>
        <time>2010-12-11T13:32:29Z</time>
      </trkpt>
      <trkpt lat="45.24366" lon="4.95929">
        <ele>382.23599243164</ele>
        <time>2010-12-11T13:32:37Z</time>
      </trkpt>
      <trkpt lat="45.24376" lon="4.95943">
        <ele>382.56399536133</ele>
        <time>2010-12-11T13:32:40Z</time>
      </trkpt>
      <trkpt lat="45.24403" lon="4.95985">
        <ele>382.67999267578</ele>
        <time>2010-12-11T13:32:49Z</time>
      </trkpt>
      <trkpt lat="45.24412" lon="4.95998">
        <ele>382.76800537109</ele>
        <time>2010-12-11T13:32:52Z</time>
      </trkpt>
      <trkpt lat="45.2443" lon="4.96022">
        <ele>383.74798583984</ele>
        <time>2010-12-11T13:32:59Z</time>
      </trkpt>
      <trkpt lat="45.24442" lon="4.96028">
        <ele>384.18399047852</ele>
        <time>2010-12-11T13:33:05Z</time>
      </trkpt>
      <trkpt lat="45.24453" lon="4.96033">
        <ele>383.99499511719</ele>
        <time>2010-12-11T13:33:10Z</time>
      </trkpt>
      <trkpt lat="45.2447" lon="4.96039">
        <ele>383.62100219727</ele>
        <time>2010-12-11T13:33:18Z</time>
      </trkpt>
      <trkpt lat="45.24489" lon="4.96045">
        <ele>382.96499633789</ele>
        <time>2010-12-11T13:33:26Z</time>
      </trkpt>
      <trkpt lat="45.2449" lon="4.96046">
        <ele>382.59899902344</ele>
        <time>2010-12-11T13:33:29Z</time>
      </trkpt>
      <trkpt lat="45.24491" lon="4.96046">
        <ele>382.50500488281</ele>
        <time>2010-12-11T13:35:06Z</time>
      </trkpt>
      <trkpt lat="45.24491" lon="4.96046">
        <ele>382.51998901367</ele>
        <time>2010-12-11T13:35:07Z</time>
      </trkpt>
      <trkpt lat="45.24494" lon="4.96046">
        <ele>382.34899902344</ele>
        <time>2010-12-11T13:38:06Z</time>
      </trkpt>
      <trkpt lat="45.24506" lon="4.96049">
        <ele>382.20199584961</ele>
        <time>2010-12-11T13:38:13Z</time>
      </trkpt>
      <trkpt lat="45.24524" lon="4.96056">
        <ele>380.67498779297</ele>
        <time>2010-12-11T13:38:20Z</time>
      </trkpt>
      <trkpt lat="45.24556" lon="4.96065">
        <ele>377.74899291992</ele>
        <time>2010-12-11T13:38:28Z</time>
      </trkpt>
      <trkpt lat="45.24601" lon="4.96075">
        <ele>375.00299072266</ele>
        <time>2010-12-11T13:38:38Z</time>
      </trkpt>
      <trkpt lat="45.24634" lon="4.96077">
        <ele>373.30700683594</ele>
        <time>2010-12-11T13:38:44Z</time>
      </trkpt>
      <trkpt lat="45.2466" lon="4.96076">
        <ele>370.97500610352</ele>
        <time>2010-12-11T13:38:48Z</time>
      </trkpt>
      <trkpt lat="45.2471" lon="4.96073">
        <ele>367.19500732422</ele>
        <time>2010-12-11T13:38:55Z</time>
      </trkpt>
      <trkpt lat="45.24759" lon="4.96074">
        <ele>363.9880065918</ele>
        <time>2010-12-11T13:39:01Z</time>
      </trkpt>
      <trkpt lat="45.24817" lon="4.96074">
        <ele>359.33898925781</ele>
        <time>2010-12-11T13:39:07Z</time>
      </trkpt>
      <trkpt lat="45.24828" lon="4.96074">
        <ele>359.11999511719</ele>
        <time>2010-12-11T13:39:08Z</time>
      </trkpt>
      <trkpt lat="45.24896" lon="4.96073">
        <ele>349.95300292969</ele>
        <time>2010-12-11T13:39:14Z</time>
      </trkpt>
      <trkpt lat="45.25004" lon="4.9607">
        <ele>340.99798583984</ele>
        <time>2010-12-11T13:39:23Z</time>
      </trkpt>
      <trkpt lat="45.2509" lon="4.96067">
        <ele>333.80499267578</ele>
        <time>2010-12-11T13:39:30Z</time>
      </trkpt>
      <trkpt lat="45.25159" lon="4.96068">
        <ele>326.49301147461</ele>
        <time>2010-12-11T13:39:35Z</time>
      </trkpt>
      <trkpt lat="45.25193" lon="4.96068">
        <ele>324.87899780273</ele>
        <time>2010-12-11T13:39:38Z</time>
      </trkpt>
      <trkpt lat="45.25259" lon="4.96069">
        <ele>320.9880065918</ele>
        <time>2010-12-11T13:39:45Z</time>
      </trkpt>
      <trkpt lat="45.25287" lon="4.96069">
        <ele>319.60501098633</ele>
        <time>2010-12-11T13:39:48Z</time>
      </trkpt>
      <trkpt lat="45.2533" lon="4.96049">
        <ele>317.36801147461</ele>
        <time>2010-12-11T13:39:53Z</time>
      </trkpt>
      <trkpt lat="45.25378" lon="4.96013">
        <ele>312.8450012207</ele>
        <time>2010-12-11T13:39:59Z</time>
      </trkpt>
      <trkpt lat="45.25407" lon="4.95961">
        <ele>309.10800170898</ele>
        <time>2010-12-11T13:40:05Z</time>
      </trkpt>
      <trkpt lat="45.25428" lon="4.959">
        <ele>303.43399047852</ele>
        <time>2010-12-11T13:40:10Z</time>
      </trkpt>
      <trkpt lat="45.25451" lon="4.95832">
        <ele>299.15701293945</ele>
        <time>2010-12-11T13:40:15Z</time>
      </trkpt>
      <trkpt lat="45.25471" lon="4.95774">
        <ele>296.21499633789</ele>
        <time>2010-12-11T13:40:20Z</time>
      </trkpt>
      <trkpt lat="45.25492" lon="4.95712">
        <ele>295.58599853516</ele>
        <time>2010-12-11T13:40:26Z</time>
      </trkpt>
      <trkpt lat="45.25516" lon="4.95644">
        <ele>290.92199707031</ele>
        <time>2010-12-11T13:40:32Z</time>
      </trkpt>
      <trkpt lat="45.25544" lon="4.95563">
        <ele>289.41299438477</ele>
        <time>2010-12-11T13:40:39Z</time>
      </trkpt>
      <trkpt lat="45.25571" lon="4.95476">
        <ele>285.09298706055</ele>
        <time>2010-12-11T13:40:46Z</time>
      </trkpt>
      <trkpt lat="45.25592" lon="4.95397">
        <ele>281.35299682617</ele>
        <time>2010-12-11T13:40:52Z</time>
      </trkpt>
      <trkpt lat="45.25599" lon="4.95339">
        <ele>281.17098999023</ele>
        <time>2010-12-11T13:40:57Z</time>
      </trkpt>
      <trkpt lat="45.25597" lon="4.9529">
        <ele>281.69299316406</ele>
        <time>2010-12-11T13:41:02Z</time>
      </trkpt>
      <trkpt lat="45.25594" lon="4.9526">
        <ele>282.94500732422</ele>
        <time>2010-12-11T13:41:06Z</time>
      </trkpt>
      <trkpt lat="45.25593" lon="4.95248">
        <ele>283.30099487305</ele>
        <time>2010-12-11T13:41:08Z</time>
      </trkpt>
      <trkpt lat="45.25595" lon="4.9523">
        <ele>284.20001220703</ele>
        <time>2010-12-11T13:41:12Z</time>
      </trkpt>
      <trkpt lat="45.25608" lon="4.9523">
        <ele>283.5419921875</ele>
        <time>2010-12-11T13:41:16Z</time>
      </trkpt>
      <trkpt lat="45.25612" lon="4.95234">
        <ele>283.10400390625</ele>
        <time>2010-12-11T13:41:17Z</time>
      </trkpt>
      <trkpt lat="45.25649" lon="4.95267">
        <ele>282.55200195312</ele>
        <time>2010-12-11T13:41:25Z</time>
      </trkpt>
      <trkpt lat="45.25653" lon="4.95272">
        <ele>282.52200317383</ele>
        <time>2010-12-11T13:41:26Z</time>
      </trkpt>
      <trkpt lat="45.25693" lon="4.953">
        <ele>283.11801147461</ele>
        <time>2010-12-11T13:41:34Z</time>
      </trkpt>
      <trkpt lat="45.25726" lon="4.95308">
        <ele>283.69198608398</ele>
        <time>2010-12-11T13:41:40Z</time>
      </trkpt>
      <trkpt lat="45.25737" lon="4.95307">
        <ele>283.72399902344</ele>
        <time>2010-12-11T13:41:42Z</time>
      </trkpt>
      <trkpt lat="45.25767" lon="4.95294">
        <ele>284.8869934082</ele>
        <time>2010-12-11T13:41:48Z</time>
      </trkpt>
      <trkpt lat="45.25793" lon="4.95268">
        <ele>286.90600585938</ele>
        <time>2010-12-11T13:41:55Z</time>
      </trkpt>
      <trkpt lat="45.25816" lon="4.95236">
        <ele>289.13198852539</ele>
        <time>2010-12-11T13:42:02Z</time>
      </trkpt>
      <trkpt lat="45.25835" lon="4.95204">
        <ele>290.69000244141</ele>
        <time>2010-12-11T13:42:09Z</time>
      </trkpt>
      <trkpt lat="45.25854" lon="4.95166">
        <ele>292.66101074219</ele>
        <time>2010-12-11T13:42:17Z</time>
      </trkpt>
      <trkpt lat="45.25859" lon="4.95157">
        <ele>292.92599487305</ele>
        <time>2010-12-11T13:42:19Z</time>
      </trkpt>
      <trkpt lat="45.25863" lon="4.95148">
        <ele>293.35299682617</ele>
        <time>2010-12-11T13:42:21Z</time>
      </trkpt>
      <trkpt lat="45.25866" lon="4.95144">
        <ele>293.50399780273</ele>
        <time>2010-12-11T13:42:22Z</time>
      </trkpt>
      <trkpt lat="45.25868" lon="4.9514">
        <ele>293.77899169922</ele>
        <time>2010-12-11T13:42:23Z</time>
      </trkpt>
      <trkpt lat="45.25885" lon="4.95111">
        <ele>295.42700195312</ele>
        <time>2010-12-11T13:42:30Z</time>
      </trkpt>
      <trkpt lat="45.25891" lon="4.95103">
        <ele>295.71099853516</ele>
        <time>2010-12-11T13:42:32Z</time>
      </trkpt>
      <trkpt lat="45.25893" lon="4.95099">
        <ele>295.91799926758</ele>
        <time>2010-12-11T13:42:33Z</time>
      </trkpt>
      <trkpt lat="45.25899" lon="4.95091">
        <ele>296.39498901367</ele>
        <time>2010-12-11T13:42:35Z</time>
      </trkpt>
      <trkpt lat="45.25902" lon="4.95088">
        <ele>296.49200439453</ele>
        <time>2010-12-11T13:42:36Z</time>
      </trkpt>
      <trkpt lat="45.25905" lon="4.95085">
        <ele>296.80099487305</ele>
        <time>2010-12-11T13:42:37Z</time>
      </trkpt>
      <trkpt lat="45.25908" lon="4.95082">
        <ele>297.17098999023</ele>
        <time>2010-12-11T13:42:38Z</time>
      </trkpt>
      <trkpt lat="45.25911" lon="4.95078">
        <ele>297.51000976562</ele>
        <time>2010-12-11T13:42:39Z</time>
      </trkpt>
      <trkpt lat="45.25914" lon="4.95075">
        <ele>297.63598632812</ele>
        <time>2010-12-11T13:42:40Z</time>
      </trkpt>
      <trkpt lat="45.25926" lon="4.95063">
        <ele>298.3039855957</ele>
        <time>2010-12-11T13:42:44Z</time>
      </trkpt>
      <trkpt lat="45.25953" lon="4.95043">
        <ele>299.70098876953</ele>
        <time>2010-12-11T13:42:52Z</time>
      </trkpt>
      <trkpt lat="45.25975" lon="4.9504">
        <ele>300.53601074219</ele>
        <time>2010-12-11T13:42:58Z</time>
      </trkpt>
      <trkpt lat="45.25998" lon="4.95049">
        <ele>302.51098632812</ele>
        <time>2010-12-11T13:43:05Z</time>
      </trkpt>
      <trkpt lat="45.26023" lon="4.95064">
        <ele>303.70498657227</ele>
        <time>2010-12-11T13:43:13Z</time>
      </trkpt>
      <trkpt lat="45.26052" lon="4.95079">
        <ele>305.08200073242</ele>
        <time>2010-12-11T13:43:22Z</time>
      </trkpt>
      <trkpt lat="45.2607" lon="4.9509">
        <ele>304.96899414062</ele>
        <time>2010-12-11T13:43:27Z</time>
      </trkpt>
      <trkpt lat="45.26106" lon="4.9511">
        <ele>304.59298706055</ele>
        <time>2010-12-11T13:43:36Z</time>
      </trkpt>
      <trkpt lat="45.26143" lon="4.95131">
        <ele>303.97100830078</ele>
        <time>2010-12-11T13:43:44Z</time>
      </trkpt>
      <trkpt lat="45.26178" lon="4.9515">
        <ele>303.39999389648</ele>
        <time>2010-12-11T13:43:51Z</time>
      </trkpt>
      <trkpt lat="45.26223" lon="4.95176">
        <ele>303.52700805664</ele>
        <time>2010-12-11T13:44:00Z</time>
      </trkpt>
      <trkpt lat="45.26266" lon="4.95204">
        <ele>302.60400390625</ele>
        <time>2010-12-11T13:44:08Z</time>
      </trkpt>
      <trkpt lat="45.26307" lon="4.95236">
        <ele>301.60800170898</ele>
        <time>2010-12-11T13:44:16Z</time>
      </trkpt>
      <trkpt lat="45.26342" lon="4.95265">
        <ele>299.45999145508</ele>
        <time>2010-12-11T13:44:22Z</time>
      </trkpt>
      <trkpt lat="45.26376" lon="4.95293">
        <ele>296.74600219727</ele>
        <time>2010-12-11T13:44:27Z</time>
      </trkpt>
      <trkpt lat="45.26424" lon="4.95328">
        <ele>295.67498779297</ele>
        <time>2010-12-11T13:44:34Z</time>
      </trkpt>
      <trkpt lat="45.26462" lon="4.95352">
        <ele>296.25900268555</ele>
        <time>2010-12-11T13:44:40Z</time>
      </trkpt>
      <trkpt lat="45.26501" lon="4.95372">
        <ele>294.88000488281</ele>
        <time>2010-12-11T13:44:46Z</time>
      </trkpt>
      <trkpt lat="45.26558" lon="4.95401">
        <ele>292.45401000977</ele>
        <time>2010-12-11T13:44:54Z</time>
      </trkpt>
      <trkpt lat="45.26602" lon="4.95423">
        <ele>290.9700012207</ele>
        <time>2010-12-11T13:45:00Z</time>
      </trkpt>
      <trkpt lat="45.2664" lon="4.9544">
        <ele>288.89199829102</ele>
        <time>2010-12-11T13:45:05Z</time>
      </trkpt>
      <trkpt lat="45.26704" lon="4.95472">
        <ele>285.81100463867</ele>
        <time>2010-12-11T13:45:13Z</time>
      </trkpt>
      <trkpt lat="45.2672" lon="4.9548">
        <ele>285.02700805664</ele>
        <time>2010-12-11T13:45:15Z</time>
      </trkpt>
      <trkpt lat="45.26752" lon="4.95496">
        <ele>283.55899047852</ele>
        <time>2010-12-11T13:45:19Z</time>
      </trkpt>
      <trkpt lat="45.26797" lon="4.95517">
        <ele>282.93200683594</ele>
        <time>2010-12-11T13:45:25Z</time>
      </trkpt>
      <trkpt lat="45.26841" lon="4.95538">
        <ele>284.53698730469</ele>
        <time>2010-12-11T13:45:32Z</time>
      </trkpt>
      <trkpt lat="45.26891" lon="4.95566">
        <ele>285.47299194336</ele>
        <time>2010-12-11T13:45:41Z</time>
      </trkpt>
      <trkpt lat="45.26921" lon="4.95589">
        <ele>286.5</ele>
        <time>2010-12-11T13:45:47Z</time>
      </trkpt>
      <trkpt lat="45.2696" lon="4.95623">
        <ele>287.18600463867</ele>
        <time>2010-12-11T13:45:56Z</time>
      </trkpt>
      <trkpt lat="45.27" lon="4.95665">
        <ele>287.98400878906</ele>
        <time>2010-12-11T13:46:06Z</time>
      </trkpt>
      <trkpt lat="45.27037" lon="4.95698">
        <ele>288.43701171875</ele>
        <time>2010-12-11T13:46:15Z</time>
      </trkpt>
      <trkpt lat="45.27077" lon="4.95732">
        <ele>289.1960144043</ele>
        <time>2010-12-11T13:46:24Z</time>
      </trkpt>
      <trkpt lat="45.27126" lon="4.95772">
        <ele>289.34698486328</ele>
        <time>2010-12-11T13:46:35Z</time>
      </trkpt>
      <trkpt lat="45.27169" lon="4.95805">
        <ele>291.23300170898</ele>
        <time>2010-12-11T13:46:45Z</time>
      </trkpt>
      <trkpt lat="45.27207" lon="4.95834">
        <ele>291.42401123047</ele>
        <time>2010-12-11T13:46:54Z</time>
      </trkpt>
      <trkpt lat="45.27253" lon="4.95873">
        <ele>290.81100463867</ele>
        <time>2010-12-11T13:47:04Z</time>
      </trkpt>
      <trkpt lat="45.273" lon="4.95914">
        <ele>289.29000854492</ele>
        <time>2010-12-11T13:47:13Z</time>
      </trkpt>
      <trkpt lat="45.27351" lon="4.95954">
        <ele>287.4169921875</ele>
        <time>2010-12-11T13:47:22Z</time>
      </trkpt>
      <trkpt lat="45.27385" lon="4.95973">
        <ele>285.40100097656</ele>
        <time>2010-12-11T13:47:27Z</time>
      </trkpt>
      <trkpt lat="45.27399" lon="4.95982">
        <ele>284.56600952148</ele>
        <time>2010-12-11T13:47:29Z</time>
      </trkpt>
      <trkpt lat="45.27451" lon="4.96016">
        <ele>281.25399780273</ele>
        <time>2010-12-11T13:47:36Z</time>
      </trkpt>
      <trkpt lat="45.27483" lon="4.96025">
        <ele>279.39001464844</ele>
        <time>2010-12-11T13:47:40Z</time>
      </trkpt>
      <trkpt lat="45.275" lon="4.96023">
        <ele>278.5539855957</ele>
        <time>2010-12-11T13:47:42Z</time>
      </trkpt>
      <trkpt lat="45.27517" lon="4.96019">
        <ele>277.77499389648</ele>
        <time>2010-12-11T13:47:44Z</time>
      </trkpt>
      <trkpt lat="45.2757" lon="4.95998">
        <ele>275.71499633789</ele>
        <time>2010-12-11T13:47:51Z</time>
      </trkpt>
      <trkpt lat="45.27621" lon="4.95978">
        <ele>273.14199829102</ele>
        <time>2010-12-11T13:47:58Z</time>
      </trkpt>
      <trkpt lat="45.27682" lon="4.95953">
        <ele>271.0119934082</ele>
        <time>2010-12-11T13:48:06Z</time>
      </trkpt>
      <trkpt lat="45.27703" lon="4.9594">
        <ele>269.71899414062</ele>
        <time>2010-12-11T13:48:09Z</time>
      </trkpt>
      <trkpt lat="45.27727" lon="4.95909">
        <ele>268.13000488281</ele>
        <time>2010-12-11T13:48:13Z</time>
      </trkpt>
      <trkpt lat="45.27765" lon="4.95838">
        <ele>263.48098754883</ele>
        <time>2010-12-11T13:48:20Z</time>
      </trkpt>
      <trkpt lat="45.27778" lon="4.95818">
        <ele>262.61700439453</ele>
        <time>2010-12-11T13:48:22Z</time>
      </trkpt>
      <trkpt lat="45.27811" lon="4.95785">
        <ele>259.60900878906</ele>
        <time>2010-12-11T13:48:26Z</time>
      </trkpt>
      <trkpt lat="45.27881" lon="4.95747">
        <ele>253.00700378418</ele>
        <time>2010-12-11T13:48:33Z</time>
      </trkpt>
      <trkpt lat="45.27962" lon="4.9571">
        <ele>248.38000488281</ele>
        <time>2010-12-11T13:48:41Z</time>
      </trkpt>
      <trkpt lat="45.27993" lon="4.95696">
        <ele>247.06199645996</ele>
        <time>2010-12-11T13:48:44Z</time>
      </trkpt>
      <trkpt lat="45.28059" lon="4.95668">
        <ele>245.7619934082</ele>
        <time>2010-12-11T13:48:51Z</time>
      </trkpt>
      <trkpt lat="45.28086" lon="4.95659">
        <ele>245.8390045166</ele>
        <time>2010-12-11T13:48:54Z</time>
      </trkpt>
      <trkpt lat="45.28094" lon="4.95657">
        <ele>245.85099792481</ele>
        <time>2010-12-11T13:48:55Z</time>
      </trkpt>
      <trkpt lat="45.28161" lon="4.95643">
        <ele>245.29600524902</ele>
        <time>2010-12-11T13:49:03Z</time>
      </trkpt>
      <trkpt lat="45.28211" lon="4.95633">
        <ele>245.46499633789</ele>
        <time>2010-12-11T13:49:10Z</time>
      </trkpt>
      <trkpt lat="45.28261" lon="4.95623">
        <ele>245.625</ele>
        <time>2010-12-11T13:49:18Z</time>
      </trkpt>
      <trkpt lat="45.28305" lon="4.95613">
        <ele>245.1130065918</ele>
        <time>2010-12-11T13:49:25Z</time>
      </trkpt>
      <trkpt lat="45.28358" lon="4.95602">
        <ele>245.05599975586</ele>
        <time>2010-12-11T13:49:33Z</time>
      </trkpt>
      <trkpt lat="45.28402" lon="4.95582">
        <ele>243.68800354004</ele>
        <time>2010-12-11T13:49:40Z</time>
      </trkpt>
      <trkpt lat="45.28429" lon="4.95545">
        <ele>241.74299621582</ele>
        <time>2010-12-11T13:49:45Z</time>
      </trkpt>
      <trkpt lat="45.28461" lon="4.95483">
        <ele>238.22700500488</ele>
        <time>2010-12-11T13:49:51Z</time>
      </trkpt>
      <trkpt lat="45.28479" lon="4.95454">
        <ele>236.86599731445</ele>
        <time>2010-12-11T13:49:54Z</time>
      </trkpt>
      <trkpt lat="45.28494" lon="4.95438">
        <ele>235.96200561523</ele>
        <time>2010-12-11T13:49:56Z</time>
      </trkpt>
      <trkpt lat="45.28536" lon="4.95411">
        <ele>233.66299438477</ele>
        <time>2010-12-11T13:50:01Z</time>
      </trkpt>
      <trkpt lat="45.28571" lon="4.95392">
        <ele>231.97200012207</ele>
        <time>2010-12-11T13:50:05Z</time>
      </trkpt>
      <trkpt lat="45.28611" lon="4.95366">
        <ele>230.34199523926</ele>
        <time>2010-12-11T13:50:10Z</time>
      </trkpt>
      <trkpt lat="45.28626" lon="4.95354">
        <ele>229.72900390625</ele>
        <time>2010-12-11T13:50:12Z</time>
      </trkpt>
      <trkpt lat="45.2866" lon="4.95311">
        <ele>227.93200683594</ele>
        <time>2010-12-11T13:50:17Z</time>
      </trkpt>
      <trkpt lat="45.2869" lon="4.95285">
        <ele>225.60099792481</ele>
        <time>2010-12-11T13:50:21Z</time>
      </trkpt>
      <trkpt lat="45.28742" lon="4.95238">
        <ele>221.28100585938</ele>
        <time>2010-12-11T13:50:28Z</time>
      </trkpt>
      <trkpt lat="45.28768" lon="4.95206">
        <ele>218.41999816894</ele>
        <time>2010-12-11T13:50:32Z</time>
      </trkpt>
      <trkpt lat="45.28808" lon="4.95175">
        <ele>215.3690032959</ele>
        <time>2010-12-11T13:50:37Z</time>
      </trkpt>
      <trkpt lat="45.28817" lon="4.95172">
        <ele>215.28999328613</ele>
        <time>2010-12-11T13:50:38Z</time>
      </trkpt>
      <trkpt lat="45.28854" lon="4.95161">
        <ele>213.95599365234</ele>
        <time>2010-12-11T13:50:43Z</time>
      </trkpt>
      <trkpt lat="45.28867" lon="4.95158">
        <ele>213.70500183106</ele>
        <time>2010-12-11T13:50:46Z</time>
      </trkpt>
      <trkpt lat="45.28876" lon="4.95156">
        <ele>213.32899475098</ele>
        <time>2010-12-11T13:50:51Z</time>
      </trkpt>
      <trkpt lat="45.28877" lon="4.95157">
        <ele>213.26600646973</ele>
        <time>2010-12-11T13:50:54Z</time>
      </trkpt>
      <trkpt lat="45.2888" lon="4.95158">
        <ele>213.10099792481</ele>
        <time>2010-12-11T13:50:57Z</time>
      </trkpt>
      <trkpt lat="45.28884" lon="4.95168">
        <ele>212.61199951172</ele>
        <time>2010-12-11T13:51:01Z</time>
      </trkpt>
      <trkpt lat="45.28889" lon="4.95187">
        <ele>212.08599853516</ele>
        <time>2010-12-11T13:51:05Z</time>
      </trkpt>
      <trkpt lat="45.28899" lon="4.95237">
        <ele>210.20899963379</ele>
        <time>2010-12-11T13:51:12Z</time>
      </trkpt>
      <trkpt lat="45.28904" lon="4.95264">
        <ele>208.63000488281</ele>
        <time>2010-12-11T13:51:15Z</time>
      </trkpt>
      <trkpt lat="45.28905" lon="4.95274">
        <ele>208.40299987793</ele>
        <time>2010-12-11T13:51:16Z</time>
      </trkpt>
      <trkpt lat="45.28908" lon="4.95296">
        <ele>207.75300598144</ele>
        <time>2010-12-11T13:51:18Z</time>
      </trkpt>
      <trkpt lat="45.28914" lon="4.95371">
        <ele>207.07299804688</ele>
        <time>2010-12-11T13:51:25Z</time>
      </trkpt>
      <trkpt lat="45.2892" lon="4.95435">
        <ele>207.15600585938</ele>
        <time>2010-12-11T13:51:32Z</time>
      </trkpt>
      <trkpt lat="45.28925" lon="4.95481">
        <ele>207.79100036621</ele>
        <time>2010-12-11T13:51:38Z</time>
      </trkpt>
      <trkpt lat="45.2893" lon="4.95537">
        <ele>207.62199401856</ele>
        <time>2010-12-11T13:51:45Z</time>
      </trkpt>
      <trkpt lat="45.28938" lon="4.95613">
        <ele>207.75700378418</ele>
        <time>2010-12-11T13:51:54Z</time>
      </trkpt>
      <trkpt lat="45.28944" lon="4.95651">
        <ele>207.94700622559</ele>
        <time>2010-12-11T13:51:59Z</time>
      </trkpt>
      <trkpt lat="45.28947" lon="4.957">
        <ele>208.28100585938</ele>
        <time>2010-12-11T13:52:05Z</time>
      </trkpt>
      <trkpt lat="45.28951" lon="4.95742">
        <ele>208.41900634766</ele>
        <time>2010-12-11T13:52:10Z</time>
      </trkpt>
      <trkpt lat="45.28955" lon="4.95813">
        <ele>208.49499511719</ele>
        <time>2010-12-11T13:52:19Z</time>
      </trkpt>
      <trkpt lat="45.28953" lon="4.95895">
        <ele>209.51699829102</ele>
        <time>2010-12-11T13:52:29Z</time>
      </trkpt>
      <trkpt lat="45.28951" lon="4.95981">
        <ele>210.81199645996</ele>
        <time>2010-12-11T13:52:41Z</time>
      </trkpt>
      <trkpt lat="45.2895" lon="4.96049">
        <ele>210.58599853516</ele>
        <time>2010-12-11T13:52:50Z</time>
      </trkpt>
      <trkpt lat="45.28948" lon="4.96094">
        <ele>210.28300476074</ele>
        <time>2010-12-11T13:52:55Z</time>
      </trkpt>
      <trkpt lat="45.28945" lon="4.96198">
        <ele>210.33299255371</ele>
        <time>2010-12-11T13:53:07Z</time>
      </trkpt>
      <trkpt lat="45.28943" lon="4.9626">
        <ele>210.18699645996</ele>
        <time>2010-12-11T13:53:14Z</time>
      </trkpt>
      <trkpt lat="45.28942" lon="4.96345">
        <ele>210.3450012207</ele>
        <time>2010-12-11T13:53:24Z</time>
      </trkpt>
      <trkpt lat="45.28945" lon="4.96405">
        <ele>210.56100463867</ele>
        <time>2010-12-11T13:53:31Z</time>
      </trkpt>
      <trkpt lat="45.28954" lon="4.965">
        <ele>211.23599243164</ele>
        <time>2010-12-11T13:53:42Z</time>
      </trkpt>
      <trkpt lat="45.2896" lon="4.96566">
        <ele>211.27499389648</ele>
        <time>2010-12-11T13:53:50Z</time>
      </trkpt>
      <trkpt lat="45.28966" lon="4.96634">
        <ele>212.08299255371</ele>
        <time>2010-12-11T13:53:59Z</time>
      </trkpt>
      <trkpt lat="45.28971" lon="4.96691">
        <ele>212.40400695801</ele>
        <time>2010-12-11T13:54:06Z</time>
      </trkpt>
      <trkpt lat="45.28978" lon="4.9676">
        <ele>212.4109954834</ele>
        <time>2010-12-11T13:54:14Z</time>
      </trkpt>
      <trkpt lat="45.28988" lon="4.96865">
        <ele>212.82899475098</ele>
        <time>2010-12-11T13:54:26Z</time>
      </trkpt>
      <trkpt lat="45.28997" lon="4.96969">
        <ele>212.93800354004</ele>
        <time>2010-12-11T13:54:38Z</time>
      </trkpt>
      <trkpt lat="45.29007" lon="4.97064">
        <ele>213.36700439453</ele>
        <time>2010-12-11T13:54:49Z</time>
      </trkpt>
      <trkpt lat="45.29016" lon="4.9716">
        <ele>212.60099792481</ele>
        <time>2010-12-11T13:55:00Z</time>
      </trkpt>
      <trkpt lat="45.29024" lon="4.97243">
        <ele>213.67300415039</ele>
        <time>2010-12-11T13:55:10Z</time>
      </trkpt>
      <trkpt lat="45.29025" lon="4.97251">
        <ele>213.62300109863</ele>
        <time>2010-12-11T13:55:11Z</time>
      </trkpt>
      <trkpt lat="45.29019" lon="4.97307">
        <ele>213.77000427246</ele>
        <time>2010-12-11T13:55:18Z</time>
      </trkpt>
      <trkpt lat="45.29007" lon="4.97354">
        <ele>213.69900512695</ele>
        <time>2010-12-11T13:55:24Z</time>
      </trkpt>
      <trkpt lat="45.28994" lon="4.97392">
        <ele>214.5359954834</ele>
        <time>2010-12-11T13:55:29Z</time>
      </trkpt>
      <trkpt lat="45.28972" lon="4.97456">
        <ele>214.4880065918</ele>
        <time>2010-12-11T13:55:37Z</time>
      </trkpt>
      <trkpt lat="45.28942" lon="4.9754">
        <ele>215.44200134277</ele>
        <time>2010-12-11T13:55:48Z</time>
      </trkpt>
      <trkpt lat="45.28911" lon="4.9763">
        <ele>216.79800415039</ele>
        <time>2010-12-11T13:56:00Z</time>
      </trkpt>
      <trkpt lat="45.2889" lon="4.97689">
        <ele>217.68200683594</ele>
        <time>2010-12-11T13:56:08Z</time>
      </trkpt>
      <trkpt lat="45.28873" lon="4.97739">
        <ele>218.61199951172</ele>
        <time>2010-12-11T13:56:15Z</time>
      </trkpt>
      <trkpt lat="45.28847" lon="4.97816">
        <ele>220.57699584961</ele>
        <time>2010-12-11T13:56:26Z</time>
      </trkpt>
      <trkpt lat="45.28831" lon="4.97872">
        <ele>222.27000427246</ele>
        <time>2010-12-11T13:56:34Z</time>
      </trkpt>
      <trkpt lat="45.28827" lon="4.97918">
        <ele>222.81700134277</ele>
        <time>2010-12-11T13:56:40Z</time>
      </trkpt>
      <trkpt lat="45.28828" lon="4.97981">
        <ele>223.70799255371</ele>
        <time>2010-12-11T13:56:48Z</time>
      </trkpt>
      <trkpt lat="45.28835" lon="4.98042">
        <ele>224.55299377441</ele>
        <time>2010-12-11T13:56:56Z</time>
      </trkpt>
      <trkpt lat="45.28838" lon="4.98071">
        <ele>225.08299255371</ele>
        <time>2010-12-11T13:57:00Z</time>
      </trkpt>
      <trkpt lat="45.28838" lon="4.98143">
        <ele>227.09100341797</ele>
        <time>2010-12-11T13:57:10Z</time>
      </trkpt>
      <trkpt lat="45.2883" lon="4.98192">
        <ele>227.10699462891</ele>
        <time>2010-12-11T13:57:17Z</time>
      </trkpt>
      <trkpt lat="45.28823" lon="4.98247">
        <ele>228.37600708008</ele>
        <time>2010-12-11T13:57:25Z</time>
      </trkpt>
      <trkpt lat="45.28823" lon="4.98287">
        <ele>229.68699645996</ele>
        <time>2010-12-11T13:57:32Z</time>
      </trkpt>
      <trkpt lat="45.28825" lon="4.98309">
        <ele>231.52299499512</ele>
        <time>2010-12-11T13:57:36Z</time>
      </trkpt>
      <trkpt lat="45.2883" lon="4.98338">
        <ele>233.28100585938</ele>
        <time>2010-12-11T13:57:42Z</time>
      </trkpt>
      <trkpt lat="45.28835" lon="4.98362">
        <ele>234.53199768066</ele>
        <time>2010-12-11T13:57:47Z</time>
      </trkpt>
      <trkpt lat="45.28846" lon="4.98397">
        <ele>236.26100158691</ele>
        <time>2010-12-11T13:57:54Z</time>
      </trkpt>
      <trkpt lat="45.28858" lon="4.9843">
        <ele>238.71200561523</ele>
        <time>2010-12-11T13:58:01Z</time>
      </trkpt>
      <trkpt lat="45.28872" lon="4.9846">
        <ele>240.86099243164</ele>
        <time>2010-12-11T13:58:08Z</time>
      </trkpt>
      <trkpt lat="45.28881" lon="4.98485">
        <ele>242.73699951172</ele>
        <time>2010-12-11T13:58:14Z</time>
      </trkpt>
      <trkpt lat="45.28891" lon="4.98511">
        <ele>244.64500427246</ele>
        <time>2010-12-11T13:58:21Z</time>
      </trkpt>
      <trkpt lat="45.28902" lon="4.98529">
        <ele>245.8809967041</ele>
        <time>2010-12-11T13:58:26Z</time>
      </trkpt>
      <trkpt lat="45.28913" lon="4.98545">
        <ele>247.16799926758</ele>
        <time>2010-12-11T13:58:31Z</time>
      </trkpt>
      <trkpt lat="45.28927" lon="4.98563">
        <ele>248.07899475098</ele>
        <time>2010-12-11T13:58:36Z</time>
      </trkpt>
      <trkpt lat="45.28939" lon="4.98576">
        <ele>249.04100036621</ele>
        <time>2010-12-11T13:58:41Z</time>
      </trkpt>
      <trkpt lat="45.28953" lon="4.98594">
        <ele>249.74800109863</ele>
        <time>2010-12-11T13:58:46Z</time>
      </trkpt>
      <trkpt lat="45.28967" lon="4.98628">
        <ele>251.63999938965</ele>
        <time>2010-12-11T13:58:54Z</time>
      </trkpt>
      <trkpt lat="45.28975" lon="4.98655">
        <ele>253.62100219727</ele>
        <time>2010-12-11T13:59:01Z</time>
      </trkpt>
      <trkpt lat="45.2898" lon="4.98679">
        <ele>255.32699584961</ele>
        <time>2010-12-11T13:59:07Z</time>
      </trkpt>
      <trkpt lat="45.28986" lon="4.98709">
        <ele>257.29400634766</ele>
        <time>2010-12-11T13:59:14Z</time>
      </trkpt>
      <trkpt lat="45.28993" lon="4.98741">
        <ele>259.60501098633</ele>
        <time>2010-12-11T13:59:22Z</time>
      </trkpt>
      <trkpt lat="45.28997" lon="4.98766">
        <ele>261.00399780273</ele>
        <time>2010-12-11T13:59:28Z</time>
      </trkpt>
      <trkpt lat="45.29" lon="4.98792">
        <ele>262.51300048828</ele>
        <time>2010-12-11T13:59:34Z</time>
      </trkpt>
      <trkpt lat="45.29002" lon="4.98829">
        <ele>264.18301391602</ele>
        <time>2010-12-11T13:59:42Z</time>
      </trkpt>
      <trkpt lat="45.29003" lon="4.98858">
        <ele>265.26000976562</ele>
        <time>2010-12-11T13:59:48Z</time>
      </trkpt>
      <trkpt lat="45.29004" lon="4.98889">
        <ele>266.40399169922</ele>
        <time>2010-12-11T13:59:54Z</time>
      </trkpt>
      <trkpt lat="45.29005" lon="4.98918">
        <ele>267.27099609375</ele>
        <time>2010-12-11T14:00:00Z</time>
      </trkpt>
      <trkpt lat="45.29007" lon="4.98956">
        <ele>269.74398803711</ele>
        <time>2010-12-11T14:00:08Z</time>
      </trkpt>
      <trkpt lat="45.29012" lon="4.98984">
        <ele>270.97100830078</ele>
        <time>2010-12-11T14:00:14Z</time>
      </trkpt>
      <trkpt lat="45.2901" lon="4.99018">
        <ele>271.81500244141</ele>
        <time>2010-12-11T14:00:21Z</time>
      </trkpt>
      <trkpt lat="45.29008" lon="4.99043">
        <ele>272.47601318359</ele>
        <time>2010-12-11T14:00:26Z</time>
      </trkpt>
      <trkpt lat="45.29006" lon="4.99081">
        <ele>272.99301147461</ele>
        <time>2010-12-11T14:00:34Z</time>
      </trkpt>
      <trkpt lat="45.29004" lon="4.99123">
        <ele>273.95300292969</ele>
        <time>2010-12-11T14:00:42Z</time>
      </trkpt>
      <trkpt lat="45.29004" lon="4.99132">
        <ele>274.20001220703</ele>
        <time>2010-12-11T14:00:44Z</time>
      </trkpt>
      <trkpt lat="45.29005" lon="4.99142">
        <ele>274.42599487305</ele>
        <time>2010-12-11T14:00:46Z</time>
      </trkpt>
      <trkpt lat="45.29005" lon="4.99157">
        <ele>274.46398925781</ele>
        <time>2010-12-11T14:00:49Z</time>
      </trkpt>
      <trkpt lat="45.29006" lon="4.99162">
        <ele>274.58898925781</ele>
        <time>2010-12-11T14:00:50Z</time>
      </trkpt>
      <trkpt lat="45.29008" lon="4.99203">
        <ele>273.90399169922</ele>
        <time>2010-12-11T14:00:57Z</time>
      </trkpt>
      <trkpt lat="45.29012" lon="4.9925">
        <ele>273.09698486328</ele>
        <time>2010-12-11T14:01:05Z</time>
      </trkpt>
      <trkpt lat="45.29016" lon="4.99289">
        <ele>273.36099243164</ele>
        <time>2010-12-11T14:01:12Z</time>
      </trkpt>
      <trkpt lat="45.29018" lon="4.99306">
        <ele>273.89199829102</ele>
        <time>2010-12-11T14:01:15Z</time>
      </trkpt>
      <trkpt lat="45.29024" lon="4.99342">
        <ele>274.71301269531</ele>
        <time>2010-12-11T14:01:21Z</time>
      </trkpt>
      <trkpt lat="45.29032" lon="4.99383">
        <ele>275.63900756836</ele>
        <time>2010-12-11T14:01:28Z</time>
      </trkpt>
      <trkpt lat="45.29041" lon="4.99421">
        <ele>277.11700439453</ele>
        <time>2010-12-11T14:01:35Z</time>
      </trkpt>
      <trkpt lat="45.2905" lon="4.99457">
        <ele>278.19799804688</ele>
        <time>2010-12-11T14:01:42Z</time>
      </trkpt>
      <trkpt lat="45.29057" lon="4.99486">
        <ele>278.81900024414</ele>
        <time>2010-12-11T14:01:48Z</time>
      </trkpt>
      <trkpt lat="45.29064" lon="4.99509">
        <ele>279.20300292969</ele>
        <time>2010-12-11T14:01:54Z</time>
      </trkpt>
      <trkpt lat="45.2907" lon="4.99541">
        <ele>278.64498901367</ele>
        <time>2010-12-11T14:02:02Z</time>
      </trkpt>
      <trkpt lat="45.29076" lon="4.99566">
        <ele>278.05099487305</ele>
        <time>2010-12-11T14:02:07Z</time>
      </trkpt>
      <trkpt lat="45.29077" lon="4.99571">
        <ele>277.80999755859</ele>
        <time>2010-12-11T14:02:08Z</time>
      </trkpt>
      <trkpt lat="45.29092" lon="4.99621">
        <ele>275.42001342773</ele>
        <time>2010-12-11T14:02:15Z</time>
      </trkpt>
      <trkpt lat="45.29096" lon="4.99665">
        <ele>273.83499145508</ele>
        <time>2010-12-11T14:02:20Z</time>
      </trkpt>
      <trkpt lat="45.29097" lon="4.99673">
        <ele>273.53601074219</ele>
        <time>2010-12-11T14:02:21Z</time>
      </trkpt>
      <trkpt lat="45.29099" lon="4.99722">
        <ele>274.22500610352</ele>
        <time>2010-12-11T14:02:28Z</time>
      </trkpt>
      <trkpt lat="45.29101" lon="4.99736">
        <ele>274.48599243164</ele>
        <time>2010-12-11T14:02:30Z</time>
      </trkpt>
      <trkpt lat="45.29103" lon="4.99764">
        <ele>274.8030090332</ele>
        <time>2010-12-11T14:02:36Z</time>
      </trkpt>
      <trkpt lat="45.291" lon="4.99781">
        <ele>275.04598999023</ele>
        <time>2010-12-11T14:02:40Z</time>
      </trkpt>
      <trkpt lat="45.29098" lon="4.99801">
        <ele>276.06399536133</ele>
        <time>2010-12-11T14:02:45Z</time>
      </trkpt>
      <trkpt lat="45.29098" lon="4.99811">
        <ele>276.00900268555</ele>
        <time>2010-12-11T14:02:49Z</time>
      </trkpt>
      <trkpt lat="45.29099" lon="4.99828">
        <ele>275.72198486328</ele>
        <time>2010-12-11T14:02:56Z</time>
      </trkpt>
      <trkpt lat="45.29099" lon="4.9985">
        <ele>274.89401245117</ele>
        <time>2010-12-11T14:03:02Z</time>
      </trkpt>
      <trkpt lat="45.29099" lon="4.99879">
        <ele>273.875</ele>
        <time>2010-12-11T14:03:07Z</time>
      </trkpt>
      <trkpt lat="45.29098" lon="4.99933">
        <ele>272.34298706055</ele>
        <time>2010-12-11T14:03:14Z</time>
      </trkpt>
      <trkpt lat="45.29095" lon="4.99985">
        <ele>270.67300415039</ele>
        <time>2010-12-11T14:03:20Z</time>
      </trkpt>
      <trkpt lat="45.29085" lon="5.00055">
        <ele>269.47698974609</ele>
        <time>2010-12-11T14:03:28Z</time>
      </trkpt>
      <trkpt lat="45.29083" lon="5.00064">
        <ele>269.26998901367</ele>
        <time>2010-12-11T14:03:29Z</time>
      </trkpt>
      <trkpt lat="45.2907" lon="5.00124">
        <ele>269.05801391602</ele>
        <time>2010-12-11T14:03:36Z</time>
      </trkpt>
      <trkpt lat="45.29069" lon="5.00133">
        <ele>268.85000610352</ele>
        <time>2010-12-11T14:03:37Z</time>
      </trkpt>
      <trkpt lat="45.2907" lon="5.00182">
        <ele>266.7919921875</ele>
        <time>2010-12-11T14:03:42Z</time>
      </trkpt>
      <trkpt lat="45.29071" lon="5.00192">
        <ele>266.50500488281</ele>
        <time>2010-12-11T14:03:43Z</time>
      </trkpt>
      <trkpt lat="45.29075" lon="5.00212">
        <ele>266.03500366211</ele>
        <time>2010-12-11T14:03:45Z</time>
      </trkpt>
      <trkpt lat="45.291" lon="5.00273">
        <ele>262.41101074219</ele>
        <time>2010-12-11T14:03:51Z</time>
      </trkpt>
      <trkpt lat="45.29105" lon="5.00282">
        <ele>262.16400146484</ele>
        <time>2010-12-11T14:03:52Z</time>
      </trkpt>
      <trkpt lat="45.29143" lon="5.00353">
        <ele>257.51998901367</ele>
        <time>2010-12-11T14:03:59Z</time>
      </trkpt>
      <trkpt lat="45.29148" lon="5.00363">
        <ele>257.28698730469</ele>
        <time>2010-12-11T14:04:00Z</time>
      </trkpt>
      <trkpt lat="45.29191" lon="5.0044">
        <ele>257.33700561523</ele>
        <time>2010-12-11T14:04:08Z</time>
      </trkpt>
      <trkpt lat="45.29228" lon="5.00507">
        <ele>259.41500854492</ele>
        <time>2010-12-11T14:04:16Z</time>
      </trkpt>
      <trkpt lat="45.29255" lon="5.00566">
        <ele>260.68099975586</ele>
        <time>2010-12-11T14:04:23Z</time>
      </trkpt>
      <trkpt lat="45.29263" lon="5.00592">
        <ele>260.96301269531</ele>
        <time>2010-12-11T14:04:26Z</time>
      </trkpt>
      <trkpt lat="45.29268" lon="5.0061">
        <ele>261.35699462891</ele>
        <time>2010-12-11T14:04:28Z</time>
      </trkpt>
      <trkpt lat="45.2929" lon="5.0069">
        <ele>263.39498901367</ele>
        <time>2010-12-11T14:04:37Z</time>
      </trkpt>
      <trkpt lat="45.29295" lon="5.00709">
        <ele>263.52398681641</ele>
        <time>2010-12-11T14:04:39Z</time>
      </trkpt>
      <trkpt lat="45.29313" lon="5.00762">
        <ele>262.90301513672</ele>
        <time>2010-12-11T14:04:45Z</time>
      </trkpt>
      <trkpt lat="45.2933" lon="5.00792">
        <ele>263.09201049805</ele>
        <time>2010-12-11T14:04:49Z</time>
      </trkpt>
      <trkpt lat="45.29376" lon="5.00841">
        <ele>263.14498901367</ele>
        <time>2010-12-11T14:04:57Z</time>
      </trkpt>
      <trkpt lat="45.29407" lon="5.00883">
        <ele>263.72900390625</ele>
        <time>2010-12-11T14:05:03Z</time>
      </trkpt>
      <trkpt lat="45.29441" lon="5.00952">
        <ele>263.44500732422</ele>
        <time>2010-12-11T14:05:11Z</time>
      </trkpt>
      <trkpt lat="45.29466" lon="5.01018">
        <ele>263.06500244141</ele>
        <time>2010-12-11T14:05:18Z</time>
      </trkpt>
      <trkpt lat="45.29482" lon="5.0109">
        <ele>263.33099365234</ele>
        <time>2010-12-11T14:05:25Z</time>
      </trkpt>
      <trkpt lat="45.29502" lon="5.012">
        <ele>262.11199951172</ele>
        <time>2010-12-11T14:05:35Z</time>
      </trkpt>
      <trkpt lat="45.29511" lon="5.01244">
        <ele>262.01501464844</ele>
        <time>2010-12-11T14:05:39Z</time>
      </trkpt>
      <trkpt lat="45.29517" lon="5.01278">
        <ele>260.35501098633</ele>
        <time>2010-12-11T14:05:42Z</time>
      </trkpt>
      <trkpt lat="45.29533" lon="5.0136">
        <ele>259.89999389648</ele>
        <time>2010-12-11T14:05:49Z</time>
      </trkpt>
      <trkpt lat="45.29552" lon="5.01464">
        <ele>259.53100585938</ele>
        <time>2010-12-11T14:05:58Z</time>
      </trkpt>
      <trkpt lat="45.29562" lon="5.0151">
        <ele>257.67001342773</ele>
        <time>2010-12-11T14:06:02Z</time>
      </trkpt>
      <trkpt lat="45.29566" lon="5.01534">
        <ele>257.87799072266</ele>
        <time>2010-12-11T14:06:04Z</time>
      </trkpt>
      <trkpt lat="45.29569" lon="5.01546">
        <ele>257.76599121094</ele>
        <time>2010-12-11T14:06:05Z</time>
      </trkpt>
      <trkpt lat="45.29592" lon="5.01625">
        <ele>256.62600708008</ele>
        <time>2010-12-11T14:06:12Z</time>
      </trkpt>
      <trkpt lat="45.2962" lon="5.01692">
        <ele>258.0710144043</ele>
        <time>2010-12-11T14:06:19Z</time>
      </trkpt>
      <trkpt lat="45.29647" lon="5.01751">
        <ele>257.39898681641</ele>
        <time>2010-12-11T14:06:26Z</time>
      </trkpt>
      <trkpt lat="45.29665" lon="5.01794">
        <ele>258.28900146484</ele>
        <time>2010-12-11T14:06:31Z</time>
      </trkpt>
      <trkpt lat="45.29687" lon="5.01848">
        <ele>259.32800292969</ele>
        <time>2010-12-11T14:06:37Z</time>
      </trkpt>
      <trkpt lat="45.29699" lon="5.01886">
        <ele>259.61199951172</ele>
        <time>2010-12-11T14:06:41Z</time>
      </trkpt>
      <trkpt lat="45.29728" lon="5.02002">
        <ele>261.8219909668</ele>
        <time>2010-12-11T14:06:53Z</time>
      </trkpt>
      <trkpt lat="45.29739" lon="5.02051">
        <ele>262.77899169922</ele>
        <time>2010-12-11T14:06:58Z</time>
      </trkpt>
      <trkpt lat="45.29765" lon="5.02136">
        <ele>264.0710144043</ele>
        <time>2010-12-11T14:07:07Z</time>
      </trkpt>
      <trkpt lat="45.29798" lon="5.02229">
        <ele>264.9280090332</ele>
        <time>2010-12-11T14:07:17Z</time>
      </trkpt>
      <trkpt lat="45.2983" lon="5.02323">
        <ele>264.71899414062</ele>
        <time>2010-12-11T14:07:27Z</time>
      </trkpt>
      <trkpt lat="45.2986" lon="5.02409">
        <ele>265.83099365234</ele>
        <time>2010-12-11T14:07:37Z</time>
      </trkpt>
      <trkpt lat="45.29879" lon="5.02488">
        <ele>266.63000488281</ele>
        <time>2010-12-11T14:07:46Z</time>
      </trkpt>
      <trkpt lat="45.29897" lon="5.02567">
        <ele>268.12399291992</ele>
        <time>2010-12-11T14:07:55Z</time>
      </trkpt>
      <trkpt lat="45.29911" lon="5.02625">
        <ele>267.8869934082</ele>
        <time>2010-12-11T14:08:02Z</time>
      </trkpt>
      <trkpt lat="45.29923" lon="5.02681">
        <ele>268.7080078125</ele>
        <time>2010-12-11T14:08:09Z</time>
      </trkpt>
      <trkpt lat="45.2993" lon="5.02716">
        <ele>269.02499389648</ele>
        <time>2010-12-11T14:08:13Z</time>
      </trkpt>
      <trkpt lat="45.29949" lon="5.02799">
        <ele>269.56298828125</ele>
        <time>2010-12-11T14:08:23Z</time>
      </trkpt>
      <trkpt lat="45.29965" lon="5.02872">
        <ele>270.22399902344</ele>
        <time>2010-12-11T14:08:32Z</time>
      </trkpt>
      <trkpt lat="45.29985" lon="5.02967">
        <ele>270.78900146484</ele>
        <time>2010-12-11T14:08:44Z</time>
      </trkpt>
      <trkpt lat="45.29996" lon="5.03011">
        <ele>270.72100830078</ele>
        <time>2010-12-11T14:08:50Z</time>
      </trkpt>
      <trkpt lat="45.29993" lon="5.03039">
        <ele>271.34399414062</ele>
        <time>2010-12-11T14:08:54Z</time>
      </trkpt>
      <trkpt lat="45.2999" lon="5.03045">
        <ele>271.6789855957</ele>
        <time>2010-12-11T14:08:55Z</time>
      </trkpt>
      <trkpt lat="45.29983" lon="5.03055">
        <ele>272.18399047852</ele>
        <time>2010-12-11T14:08:57Z</time>
      </trkpt>
      <trkpt lat="45.29949" lon="5.03086">
        <ele>273.18499755859</ele>
        <time>2010-12-11T14:09:05Z</time>
      </trkpt>
      <trkpt lat="45.29925" lon="5.03108">
        <ele>273.5530090332</ele>
        <time>2010-12-11T14:09:11Z</time>
      </trkpt>
      <trkpt lat="45.299" lon="5.03129">
        <ele>274.94400024414</ele>
        <time>2010-12-11T14:09:17Z</time>
      </trkpt>
      <trkpt lat="45.29897" lon="5.03133">
        <ele>274.96899414062</ele>
        <time>2010-12-11T14:09:18Z</time>
      </trkpt>
      <trkpt lat="45.29884" lon="5.03142">
        <ele>275.14099121094</ele>
        <time>2010-12-11T14:09:21Z</time>
      </trkpt>
      <trkpt lat="45.2988" lon="5.03145">
        <ele>275.18499755859</ele>
        <time>2010-12-11T14:09:22Z</time>
      </trkpt>
      <trkpt lat="45.29849" lon="5.03167">
        <ele>276.02700805664</ele>
        <time>2010-12-11T14:09:30Z</time>
      </trkpt>
      <trkpt lat="45.29837" lon="5.03175">
        <ele>276.26501464844</ele>
        <time>2010-12-11T14:09:33Z</time>
      </trkpt>
      <trkpt lat="45.298" lon="5.03207">
        <ele>277.20901489258</ele>
        <time>2010-12-11T14:09:43Z</time>
      </trkpt>
      <trkpt lat="45.29774" lon="5.03237">
        <ele>278.375</ele>
        <time>2010-12-11T14:09:51Z</time>
      </trkpt>
      <trkpt lat="45.29747" lon="5.03266">
        <ele>278.57901000977</ele>
        <time>2010-12-11T14:09:59Z</time>
      </trkpt>
      <trkpt lat="45.29737" lon="5.03276">
        <ele>278.8450012207</ele>
        <time>2010-12-11T14:10:02Z</time>
      </trkpt>
      <trkpt lat="45.29706" lon="5.03309">
        <ele>279.97299194336</ele>
        <time>2010-12-11T14:10:11Z</time>
      </trkpt>
      <trkpt lat="45.29669" lon="5.03349">
        <ele>280.84201049805</ele>
        <time>2010-12-11T14:10:22Z</time>
      </trkpt>
      <trkpt lat="45.29642" lon="5.03378">
        <ele>281.67300415039</ele>
        <time>2010-12-11T14:10:30Z</time>
      </trkpt>
      <trkpt lat="45.29612" lon="5.0341">
        <ele>282.98199462891</ele>
        <time>2010-12-11T14:10:39Z</time>
      </trkpt>
      <trkpt lat="45.29598" lon="5.03426">
        <ele>283.29800415039</ele>
        <time>2010-12-11T14:10:44Z</time>
      </trkpt>
      <trkpt lat="45.29578" lon="5.03448">
        <ele>283.57800292969</ele>
        <time>2010-12-11T14:10:51Z</time>
      </trkpt>
      <trkpt lat="45.29551" lon="5.03476">
        <ele>284.51000976562</ele>
        <time>2010-12-11T14:10:59Z</time>
      </trkpt>
      <trkpt lat="45.29548" lon="5.0348">
        <ele>284.74600219727</ele>
        <time>2010-12-11T14:11:00Z</time>
      </trkpt>
      <trkpt lat="45.29512" lon="5.03524">
        <ele>284.93399047852</ele>
        <time>2010-12-11T14:11:10Z</time>
      </trkpt>
      <trkpt lat="45.29505" lon="5.03532">
        <ele>285.34600830078</ele>
        <time>2010-12-11T14:11:12Z</time>
      </trkpt>
      <trkpt lat="45.29483" lon="5.03552">
        <ele>286.20901489258</ele>
        <time>2010-12-11T14:11:18Z</time>
      </trkpt>
      <trkpt lat="45.29451" lon="5.0358">
        <ele>287.46200561523</ele>
        <time>2010-12-11T14:11:27Z</time>
      </trkpt>
      <trkpt lat="45.2943" lon="5.03599">
        <ele>289.15899658203</ele>
        <time>2010-12-11T14:11:34Z</time>
      </trkpt>
      <trkpt lat="45.29413" lon="5.03623">
        <ele>289.69000244141</ele>
        <time>2010-12-11T14:11:40Z</time>
      </trkpt>
      <trkpt lat="45.29395" lon="5.03665">
        <ele>289.875</ele>
        <time>2010-12-11T14:11:48Z</time>
      </trkpt>
      <trkpt lat="45.29369" lon="5.03729">
        <ele>290.59899902344</ele>
        <time>2010-12-11T14:11:59Z</time>
      </trkpt>
      <trkpt lat="45.29349" lon="5.0378">
        <ele>291.56698608398</ele>
        <time>2010-12-11T14:12:08Z</time>
      </trkpt>
      <trkpt lat="45.2932" lon="5.0385">
        <ele>291.84899902344</ele>
        <time>2010-12-11T14:12:20Z</time>
      </trkpt>
      <trkpt lat="45.29302" lon="5.03896">
        <ele>293.12799072266</ele>
        <time>2010-12-11T14:12:28Z</time>
      </trkpt>
      <trkpt lat="45.29281" lon="5.03946">
        <ele>293.67401123047</ele>
        <time>2010-12-11T14:12:37Z</time>
      </trkpt>
      <trkpt lat="45.29259" lon="5.04001">
        <ele>294.91799926758</ele>
        <time>2010-12-11T14:12:47Z</time>
      </trkpt>
      <trkpt lat="45.29242" lon="5.04042">
        <ele>296.47399902344</ele>
        <time>2010-12-11T14:12:55Z</time>
      </trkpt>
      <trkpt lat="45.29229" lon="5.04076">
        <ele>297.57000732422</ele>
        <time>2010-12-11T14:13:02Z</time>
      </trkpt>
      <trkpt lat="45.29218" lon="5.04104">
        <ele>298.92199707031</ele>
        <time>2010-12-11T14:13:08Z</time>
      </trkpt>
      <trkpt lat="45.29196" lon="5.04145">
        <ele>300.90701293945</ele>
        <time>2010-12-11T14:13:17Z</time>
      </trkpt>
      <trkpt lat="45.29185" lon="5.04167">
        <ele>302.10299682617</ele>
        <time>2010-12-11T14:13:23Z</time>
      </trkpt>
      <trkpt lat="45.2918" lon="5.04175">
        <ele>302.58898925781</ele>
        <time>2010-12-11T14:13:25Z</time>
      </trkpt>
      <trkpt lat="45.29178" lon="5.0418">
        <ele>302.66000366211</ele>
        <time>2010-12-11T14:13:26Z</time>
      </trkpt>
      <trkpt lat="45.29174" lon="5.04194">
        <ele>302.84201049805</ele>
        <time>2010-12-11T14:13:29Z</time>
      </trkpt>
      <trkpt lat="45.29172" lon="5.04198">
        <ele>302.85198974609</ele>
        <time>2010-12-11T14:13:30Z</time>
      </trkpt>
      <trkpt lat="45.29167" lon="5.04206">
        <ele>302.67999267578</ele>
        <time>2010-12-11T14:13:32Z</time>
      </trkpt>
      <trkpt lat="45.29165" lon="5.0421">
        <ele>302.5419921875</ele>
        <time>2010-12-11T14:13:33Z</time>
      </trkpt>
      <trkpt lat="45.29162" lon="5.0424">
        <ele>302.89898681641</ele>
        <time>2010-12-11T14:13:39Z</time>
      </trkpt>
      <trkpt lat="45.29155" lon="5.04263">
        <ele>303.67401123047</ele>
        <time>2010-12-11T14:13:44Z</time>
      </trkpt>
      <trkpt lat="45.2915" lon="5.04274">
        <ele>304.29800415039</ele>
        <time>2010-12-11T14:13:47Z</time>
      </trkpt>
      <trkpt lat="45.29153" lon="5.04289">
        <ele>304.37701416016</ele>
        <time>2010-12-11T14:13:50Z</time>
      </trkpt>
      <trkpt lat="45.29155" lon="5.04298">
        <ele>304.40600585938</ele>
        <time>2010-12-11T14:13:52Z</time>
      </trkpt>
      <trkpt lat="45.29156" lon="5.04304">
        <ele>304.57598876953</ele>
        <time>2010-12-11T14:13:53Z</time>
      </trkpt>
      <trkpt lat="45.29156" lon="5.04309">
        <ele>304.84899902344</ele>
        <time>2010-12-11T14:13:54Z</time>
      </trkpt>
      <trkpt lat="45.29153" lon="5.0434">
        <ele>305.72100830078</ele>
        <time>2010-12-11T14:14:00Z</time>
      </trkpt>
      <trkpt lat="45.29149" lon="5.0437">
        <ele>307.125</ele>
        <time>2010-12-11T14:14:06Z</time>
      </trkpt>
      <trkpt lat="45.29147" lon="5.04408">
        <ele>308.49398803711</ele>
        <time>2010-12-11T14:14:13Z</time>
      </trkpt>
      <trkpt lat="45.29142" lon="5.04453">
        <ele>309.85400390625</ele>
        <time>2010-12-11T14:14:21Z</time>
      </trkpt>
      <trkpt lat="45.29138" lon="5.04497">
        <ele>311.06500244141</ele>
        <time>2010-12-11T14:14:29Z</time>
      </trkpt>
      <trkpt lat="45.29135" lon="5.04537">
        <ele>311.25100708008</ele>
        <time>2010-12-11T14:14:36Z</time>
      </trkpt>
      <trkpt lat="45.29129" lon="5.04593">
        <ele>311.11898803711</ele>
        <time>2010-12-11T14:14:45Z</time>
      </trkpt>
      <trkpt lat="45.29124" lon="5.04654">
        <ele>311.18899536133</ele>
        <time>2010-12-11T14:14:55Z</time>
      </trkpt>
      <trkpt lat="45.29121" lon="5.04697">
        <ele>312.12399291992</ele>
        <time>2010-12-11T14:15:02Z</time>
      </trkpt>
      <trkpt lat="45.29124" lon="5.04744">
        <ele>312.43499755859</ele>
        <time>2010-12-11T14:15:10Z</time>
      </trkpt>
      <trkpt lat="45.29129" lon="5.04789">
        <ele>312.39300537109</ele>
        <time>2010-12-11T14:15:17Z</time>
      </trkpt>
      <trkpt lat="45.29135" lon="5.0483">
        <ele>312.31399536133</ele>
        <time>2010-12-11T14:15:23Z</time>
      </trkpt>
      <trkpt lat="45.29135" lon="5.04838">
        <ele>312.30801391602</ele>
        <time>2010-12-11T14:15:24Z</time>
      </trkpt>
      <trkpt lat="45.2914" lon="5.04881">
        <ele>312.10000610352</ele>
        <time>2010-12-11T14:15:30Z</time>
      </trkpt>
      <trkpt lat="45.29148" lon="5.0493">
        <ele>311.87600708008</ele>
        <time>2010-12-11T14:15:37Z</time>
      </trkpt>
      <trkpt lat="45.29166" lon="5.04984">
        <ele>311.76699829102</ele>
        <time>2010-12-11T14:15:45Z</time>
      </trkpt>
      <trkpt lat="45.29187" lon="5.05035">
        <ele>311.55899047852</ele>
        <time>2010-12-11T14:15:53Z</time>
      </trkpt>
      <trkpt lat="45.29192" lon="5.05048">
        <ele>311.38000488281</ele>
        <time>2010-12-11T14:15:55Z</time>
      </trkpt>
      <trkpt lat="45.29206" lon="5.0509">
        <ele>311.61499023438</ele>
        <time>2010-12-11T14:16:02Z</time>
      </trkpt>
      <trkpt lat="45.29221" lon="5.05147">
        <ele>312.06298828125</ele>
        <time>2010-12-11T14:16:10Z</time>
      </trkpt>
      <trkpt lat="45.29229" lon="5.05187">
        <ele>311.85101318359</ele>
        <time>2010-12-11T14:16:16Z</time>
      </trkpt>
      <trkpt lat="45.29238" lon="5.05219">
        <ele>312.73098754883</ele>
        <time>2010-12-11T14:16:22Z</time>
      </trkpt>
      <trkpt lat="45.29247" lon="5.05273">
        <ele>314.54699707031</ele>
        <time>2010-12-11T14:16:32Z</time>
      </trkpt>
      <trkpt lat="45.29251" lon="5.05302">
        <ele>315.65701293945</ele>
        <time>2010-12-11T14:16:38Z</time>
      </trkpt>
      <trkpt lat="45.29256" lon="5.05318">
        <ele>316.63598632812</ele>
        <time>2010-12-11T14:16:43Z</time>
      </trkpt>
      <trkpt lat="45.29262" lon="5.05339">
        <ele>316.33898925781</ele>
        <time>2010-12-11T14:16:50Z</time>
      </trkpt>
      <trkpt lat="45.29264" lon="5.05343">
        <ele>316.31399536133</ele>
        <time>2010-12-11T14:16:51Z</time>
      </trkpt>
      <trkpt lat="45.29266" lon="5.0535">
        <ele>316.5710144043</ele>
        <time>2010-12-11T14:16:57Z</time>
      </trkpt>
      <trkpt lat="45.29263" lon="5.0534">
        <ele>316.27200317383</ele>
        <time>2010-12-11T14:17:03Z</time>
      </trkpt>
      <trkpt lat="45.29261" lon="5.05334">
        <ele>316.20300292969</ele>
        <time>2010-12-11T14:17:06Z</time>
      </trkpt>
      <trkpt lat="45.29258" lon="5.0532">
        <ele>316.27801513672</ele>
        <time>2010-12-11T14:17:14Z</time>
      </trkpt>
      <trkpt lat="45.29256" lon="5.05314">
        <ele>316.34600830078</ele>
        <time>2010-12-11T14:17:19Z</time>
      </trkpt>
      <trkpt lat="45.2926" lon="5.05328">
        <ele>315.93701171875</ele>
        <time>2010-12-11T14:18:17Z</time>
      </trkpt>
      <trkpt lat="45.29267" lon="5.05362">
        <ele>314.61099243164</ele>
        <time>2010-12-11T14:18:21Z</time>
      </trkpt>
      <trkpt lat="45.2927" lon="5.05383">
        <ele>314.75100708008</ele>
        <time>2010-12-11T14:18:23Z</time>
      </trkpt>
      <trkpt lat="45.29264" lon="5.05434">
        <ele>315.57998657227</ele>
        <time>2010-12-11T14:18:28Z</time>
      </trkpt>
      <trkpt lat="45.29261" lon="5.05443">
        <ele>315.76699829102</ele>
        <time>2010-12-11T14:18:29Z</time>
      </trkpt>
      <trkpt lat="45.29237" lon="5.05511">
        <ele>316.89599609375</ele>
        <time>2010-12-11T14:18:37Z</time>
      </trkpt>
      <trkpt lat="45.29234" lon="5.05519">
        <ele>316.9700012207</ele>
        <time>2010-12-11T14:18:38Z</time>
      </trkpt>
      <trkpt lat="45.2923" lon="5.05555">
        <ele>317.15798950195</ele>
        <time>2010-12-11T14:18:42Z</time>
      </trkpt>
      <trkpt lat="45.29237" lon="5.05615">
        <ele>318.39099121094</ele>
        <time>2010-12-11T14:18:49Z</time>
      </trkpt>
      <trkpt lat="45.29236" lon="5.05679">
        <ele>319.0950012207</ele>
        <time>2010-12-11T14:18:56Z</time>
      </trkpt>
      <trkpt lat="45.29235" lon="5.05709">
        <ele>319.28100585938</ele>
        <time>2010-12-11T14:18:59Z</time>
      </trkpt>
      <trkpt lat="45.29234" lon="5.05729">
        <ele>319.27600097656</ele>
        <time>2010-12-11T14:19:01Z</time>
      </trkpt>
      <trkpt lat="45.29235" lon="5.05802">
        <ele>318.79098510742</ele>
        <time>2010-12-11T14:19:08Z</time>
      </trkpt>
      <trkpt lat="45.29237" lon="5.05842">
        <ele>319.03601074219</ele>
        <time>2010-12-11T14:19:12Z</time>
      </trkpt>
      <trkpt lat="45.29238" lon="5.05879">
        <ele>319.25299072266</ele>
        <time>2010-12-11T14:19:16Z</time>
      </trkpt>
      <trkpt lat="45.2923" lon="5.05913">
        <ele>318.75299072266</ele>
        <time>2010-12-11T14:19:20Z</time>
      </trkpt>
      <trkpt lat="45.29219" lon="5.0594">
        <ele>318.5830078125</ele>
        <time>2010-12-11T14:19:23Z</time>
      </trkpt>
      <trkpt lat="45.29216" lon="5.05949">
        <ele>318.53399658203</ele>
        <time>2010-12-11T14:19:24Z</time>
      </trkpt>
      <trkpt lat="45.29213" lon="5.05959">
        <ele>318.38500976562</ele>
        <time>2010-12-11T14:19:25Z</time>
      </trkpt>
      <trkpt lat="45.29204" lon="5.0601">
        <ele>318.31698608398</ele>
        <time>2010-12-11T14:19:30Z</time>
      </trkpt>
      <trkpt lat="45.29201" lon="5.06109">
        <ele>319.40200805664</ele>
        <time>2010-12-11T14:19:39Z</time>
      </trkpt>
      <trkpt lat="45.292" lon="5.0621">
        <ele>321.24301147461</ele>
        <time>2010-12-11T14:19:49Z</time>
      </trkpt>
      <trkpt lat="45.29198" lon="5.06238">
        <ele>321.91101074219</ele>
        <time>2010-12-11T14:19:52Z</time>
      </trkpt>
      <trkpt lat="45.29184" lon="5.06293">
        <ele>323.40301513672</ele>
        <time>2010-12-11T14:19:59Z</time>
      </trkpt>
      <trkpt lat="45.29181" lon="5.06309">
        <ele>323.62100219727</ele>
        <time>2010-12-11T14:20:01Z</time>
      </trkpt>
      <trkpt lat="45.29182" lon="5.06353">
        <ele>324.93200683594</ele>
        <time>2010-12-11T14:20:07Z</time>
      </trkpt>
      <trkpt lat="45.29191" lon="5.06404">
        <ele>326.02200317383</ele>
        <time>2010-12-11T14:20:14Z</time>
      </trkpt>
      <trkpt lat="45.29188" lon="5.06441">
        <ele>326.95498657227</ele>
        <time>2010-12-11T14:20:19Z</time>
      </trkpt>
      <trkpt lat="45.29168" lon="5.06506">
        <ele>328.75799560547</ele>
        <time>2010-12-11T14:20:29Z</time>
      </trkpt>
      <trkpt lat="45.29159" lon="5.06552">
        <ele>329.93399047852</ele>
        <time>2010-12-11T14:20:36Z</time>
      </trkpt>
      <trkpt lat="45.29152" lon="5.06596">
        <ele>331.08999633789</ele>
        <time>2010-12-11T14:20:43Z</time>
      </trkpt>
      <trkpt lat="45.29142" lon="5.06647">
        <ele>332.14999389648</ele>
        <time>2010-12-11T14:20:51Z</time>
      </trkpt>
      <trkpt lat="45.29136" lon="5.06689">
        <ele>332.51901245117</ele>
        <time>2010-12-11T14:20:57Z</time>
      </trkpt>
      <trkpt lat="45.29134" lon="5.06733">
        <ele>333.85699462891</ele>
        <time>2010-12-11T14:21:03Z</time>
      </trkpt>
      <trkpt lat="45.29135" lon="5.06741">
        <ele>334.09600830078</ele>
        <time>2010-12-11T14:21:04Z</time>
      </trkpt>
      <trkpt lat="45.29136" lon="5.06767">
        <ele>334.58499145508</ele>
        <time>2010-12-11T14:21:07Z</time>
      </trkpt>
      <trkpt lat="45.29137" lon="5.06775">
        <ele>334.79299926758</ele>
        <time>2010-12-11T14:21:08Z</time>
      </trkpt>
      <trkpt lat="45.29143" lon="5.06844">
        <ele>335.80899047852</ele>
        <time>2010-12-11T14:21:16Z</time>
      </trkpt>
      <trkpt lat="45.2915" lon="5.06918">
        <ele>337.57800292969</ele>
        <time>2010-12-11T14:21:25Z</time>
      </trkpt>
      <trkpt lat="45.29158" lon="5.06993">
        <ele>339.50900268555</ele>
        <time>2010-12-11T14:21:34Z</time>
      </trkpt>
      <trkpt lat="45.29172" lon="5.07063">
        <ele>341.09698486328</ele>
        <time>2010-12-11T14:21:43Z</time>
      </trkpt>
      <trkpt lat="45.2918" lon="5.0711">
        <ele>342.05999755859</ele>
        <time>2010-12-11T14:21:49Z</time>
      </trkpt>
      <trkpt lat="45.29189" lon="5.07179">
        <ele>342.23001098633</ele>
        <time>2010-12-11T14:21:57Z</time>
      </trkpt>
      <trkpt lat="45.29198" lon="5.07245">
        <ele>343.13000488281</ele>
        <time>2010-12-11T14:22:05Z</time>
      </trkpt>
      <trkpt lat="45.29198" lon="5.07253">
        <ele>343.26098632812</ele>
        <time>2010-12-11T14:22:06Z</time>
      </trkpt>
      <trkpt lat="45.292" lon="5.07284">
        <ele>343.95001220703</ele>
        <time>2010-12-11T14:22:10Z</time>
      </trkpt>
      <trkpt lat="45.29203" lon="5.07315">
        <ele>344.49398803711</ele>
        <time>2010-12-11T14:22:14Z</time>
      </trkpt>
      <trkpt lat="45.29222" lon="5.07365">
        <ele>345.33499145508</ele>
        <time>2010-12-11T14:22:21Z</time>
      </trkpt>
      <trkpt lat="45.29232" lon="5.07392">
        <ele>345.93301391602</ele>
        <time>2010-12-11T14:22:25Z</time>
      </trkpt>
      <trkpt lat="45.29241" lon="5.07438">
        <ele>346.36199951172</ele>
        <time>2010-12-11T14:22:31Z</time>
      </trkpt>
      <trkpt lat="45.29244" lon="5.07502">
        <ele>347.38800048828</ele>
        <time>2010-12-11T14:22:39Z</time>
      </trkpt>
      <trkpt lat="45.29243" lon="5.0756">
        <ele>347.39898681641</ele>
        <time>2010-12-11T14:22:46Z</time>
      </trkpt>
      <trkpt lat="45.2924" lon="5.0762">
        <ele>347.06201171875</ele>
        <time>2010-12-11T14:22:53Z</time>
      </trkpt>
      <trkpt lat="45.29241" lon="5.0768">
        <ele>347.72900390625</ele>
        <time>2010-12-11T14:23:00Z</time>
      </trkpt>
      <trkpt lat="45.2925" lon="5.07722">
        <ele>347.98599243164</ele>
        <time>2010-12-11T14:23:05Z</time>
      </trkpt>
      <trkpt lat="45.29259" lon="5.07747">
        <ele>348.07000732422</ele>
        <time>2010-12-11T14:23:08Z</time>
      </trkpt>
      <trkpt lat="45.29287" lon="5.07803">
        <ele>348.2200012207</ele>
        <time>2010-12-11T14:23:15Z</time>
      </trkpt>
      <trkpt lat="45.29298" lon="5.07845">
        <ele>349.21099853516</ele>
        <time>2010-12-11T14:23:20Z</time>
      </trkpt>
      <trkpt lat="45.29305" lon="5.07903">
        <ele>351.08898925781</ele>
        <time>2010-12-11T14:23:28Z</time>
      </trkpt>
      <trkpt lat="45.29308" lon="5.07934">
        <ele>351.01000976562</ele>
        <time>2010-12-11T14:23:32Z</time>
      </trkpt>
      <trkpt lat="45.29309" lon="5.07984">
        <ele>349.69500732422</ele>
        <time>2010-12-11T14:23:37Z</time>
      </trkpt>
      <trkpt lat="45.29316" lon="5.08027">
        <ele>349.4700012207</ele>
        <time>2010-12-11T14:23:41Z</time>
      </trkpt>
      <trkpt lat="45.29329" lon="5.08071">
        <ele>350.07400512695</ele>
        <time>2010-12-11T14:23:46Z</time>
      </trkpt>
      <trkpt lat="45.29339" lon="5.08102">
        <ele>351.18600463867</ele>
        <time>2010-12-11T14:23:51Z</time>
      </trkpt>
      <trkpt lat="45.29344" lon="5.08115">
        <ele>351.44500732422</ele>
        <time>2010-12-11T14:23:53Z</time>
      </trkpt>
      <trkpt lat="45.29348" lon="5.08135">
        <ele>351.65200805664</ele>
        <time>2010-12-11T14:23:56Z</time>
      </trkpt>
      <trkpt lat="45.29349" lon="5.08143">
        <ele>351.58801269531</ele>
        <time>2010-12-11T14:23:57Z</time>
      </trkpt>
      <trkpt lat="45.2935" lon="5.0815">
        <ele>351.57800292969</ele>
        <time>2010-12-11T14:23:58Z</time>
      </trkpt>
      <trkpt lat="45.2935" lon="5.08158">
        <ele>351.5710144043</ele>
        <time>2010-12-11T14:23:59Z</time>
      </trkpt>
      <trkpt lat="45.29351" lon="5.08165">
        <ele>351.51400756836</ele>
        <time>2010-12-11T14:24:00Z</time>
      </trkpt>
      <trkpt lat="45.29349" lon="5.08199">
        <ele>351.23901367188</ele>
        <time>2010-12-11T14:24:04Z</time>
      </trkpt>
      <trkpt lat="45.29346" lon="5.08216">
        <ele>351.21899414062</ele>
        <time>2010-12-11T14:24:06Z</time>
      </trkpt>
      <trkpt lat="45.29336" lon="5.08278">
        <ele>351.06298828125</ele>
        <time>2010-12-11T14:24:13Z</time>
      </trkpt>
      <trkpt lat="45.29324" lon="5.08344">
        <ele>351.85699462891</ele>
        <time>2010-12-11T14:24:21Z</time>
      </trkpt>
      <trkpt lat="45.29313" lon="5.08404">
        <ele>352.41198730469</ele>
        <time>2010-12-11T14:24:29Z</time>
      </trkpt>
      <trkpt lat="45.29306" lon="5.08457">
        <ele>353.29998779297</ele>
        <time>2010-12-11T14:24:36Z</time>
      </trkpt>
      <trkpt lat="45.29305" lon="5.08464">
        <ele>353.37399291992</ele>
        <time>2010-12-11T14:24:37Z</time>
      </trkpt>
      <trkpt lat="45.2931" lon="5.08504">
        <ele>353.25500488281</ele>
        <time>2010-12-11T14:24:42Z</time>
      </trkpt>
      <trkpt lat="45.29331" lon="5.08571">
        <ele>353.72299194336</ele>
        <time>2010-12-11T14:24:50Z</time>
      </trkpt>
      <trkpt lat="45.2935" lon="5.08628">
        <ele>354.44900512695</ele>
        <time>2010-12-11T14:24:57Z</time>
      </trkpt>
      <trkpt lat="45.29372" lon="5.08696">
        <ele>356.11898803711</ele>
        <time>2010-12-11T14:25:06Z</time>
      </trkpt>
      <trkpt lat="45.29393" lon="5.0876">
        <ele>357.8630065918</ele>
        <time>2010-12-11T14:25:15Z</time>
      </trkpt>
      <trkpt lat="45.29413" lon="5.08828">
        <ele>359.54400634766</ele>
        <time>2010-12-11T14:25:24Z</time>
      </trkpt>
      <trkpt lat="45.29419" lon="5.08876">
        <ele>360.60598754883</ele>
        <time>2010-12-11T14:25:30Z</time>
      </trkpt>
      <trkpt lat="45.29423" lon="5.08923">
        <ele>361.06900024414</ele>
        <time>2010-12-11T14:25:35Z</time>
      </trkpt>
      <trkpt lat="45.29423" lon="5.08932">
        <ele>361.16500854492</ele>
        <time>2010-12-11T14:25:36Z</time>
      </trkpt>
      <trkpt lat="45.29428" lon="5.08975">
        <ele>361.06100463867</ele>
        <time>2010-12-11T14:25:41Z</time>
      </trkpt>
      <trkpt lat="45.29446" lon="5.09029">
        <ele>361.55200195312</ele>
        <time>2010-12-11T14:25:48Z</time>
      </trkpt>
      <trkpt lat="45.29461" lon="5.0909">
        <ele>363.18399047852</ele>
        <time>2010-12-11T14:25:56Z</time>
      </trkpt>
      <trkpt lat="45.29472" lon="5.09147">
        <ele>365.34201049805</ele>
        <time>2010-12-11T14:26:04Z</time>
      </trkpt>
      <trkpt lat="45.29482" lon="5.09197">
        <ele>366.10998535156</ele>
        <time>2010-12-11T14:26:11Z</time>
      </trkpt>
      <trkpt lat="45.29496" lon="5.09259">
        <ele>366.81100463867</ele>
        <time>2010-12-11T14:26:19Z</time>
      </trkpt>
      <trkpt lat="45.29512" lon="5.09321">
        <ele>367.36401367188</ele>
        <time>2010-12-11T14:26:26Z</time>
      </trkpt>
      <trkpt lat="45.29523" lon="5.0937">
        <ele>368.52499389648</ele>
        <time>2010-12-11T14:26:32Z</time>
      </trkpt>
      <trkpt lat="45.29536" lon="5.09419">
        <ele>368.87899780273</ele>
        <time>2010-12-11T14:26:38Z</time>
      </trkpt>
      <trkpt lat="45.29562" lon="5.09499">
        <ele>369.625</ele>
        <time>2010-12-11T14:26:48Z</time>
      </trkpt>
      <trkpt lat="45.29583" lon="5.09554">
        <ele>370.58200073242</ele>
        <time>2010-12-11T14:26:55Z</time>
      </trkpt>
      <trkpt lat="45.29611" lon="5.09615">
        <ele>371.83200073242</ele>
        <time>2010-12-11T14:27:03Z</time>
      </trkpt>
      <trkpt lat="45.29637" lon="5.09684">
        <ele>372.61199951172</ele>
        <time>2010-12-11T14:27:12Z</time>
      </trkpt>
      <trkpt lat="45.29655" lon="5.09736">
        <ele>373.36801147461</ele>
        <time>2010-12-11T14:27:19Z</time>
      </trkpt>
      <trkpt lat="45.29657" lon="5.09745">
        <ele>373.39599609375</ele>
        <time>2010-12-11T14:27:20Z</time>
      </trkpt>
      <trkpt lat="45.29663" lon="5.09771">
        <ele>373.47500610352</ele>
        <time>2010-12-11T14:27:23Z</time>
      </trkpt>
      <trkpt lat="45.29667" lon="5.09788">
        <ele>373.60400390625</ele>
        <time>2010-12-11T14:27:25Z</time>
      </trkpt>
      <trkpt lat="45.2967" lon="5.09824">
        <ele>373.71099853516</ele>
        <time>2010-12-11T14:27:29Z</time>
      </trkpt>
      <trkpt lat="45.29671" lon="5.09833">
        <ele>373.67401123047</ele>
        <time>2010-12-11T14:27:30Z</time>
      </trkpt>
      <trkpt lat="45.29683" lon="5.09865">
        <ele>374.06100463867</ele>
        <time>2010-12-11T14:27:34Z</time>
      </trkpt>
      <trkpt lat="45.29687" lon="5.09871">
        <ele>374.22799682617</ele>
        <time>2010-12-11T14:27:35Z</time>
      </trkpt>
      <trkpt lat="45.29706" lon="5.09894">
        <ele>374.98599243164</ele>
        <time>2010-12-11T14:27:39Z</time>
      </trkpt>
      <trkpt lat="45.29717" lon="5.09916">
        <ele>375.21701049805</ele>
        <time>2010-12-11T14:27:42Z</time>
      </trkpt>
      <trkpt lat="45.2972" lon="5.09924">
        <ele>375.34799194336</ele>
        <time>2010-12-11T14:27:43Z</time>
      </trkpt>
      <trkpt lat="45.2973" lon="5.09957">
        <ele>376.32501220703</ele>
        <time>2010-12-11T14:27:47Z</time>
      </trkpt>
      <trkpt lat="45.29732" lon="5.09966">
        <ele>376.62298583984</ele>
        <time>2010-12-11T14:27:48Z</time>
      </trkpt>
      <trkpt lat="45.29737" lon="5.0999">
        <ele>377.65899658203</ele>
        <time>2010-12-11T14:27:51Z</time>
      </trkpt>
      <trkpt lat="45.29739" lon="5.09998">
        <ele>378.13598632812</ele>
        <time>2010-12-11T14:27:52Z</time>
      </trkpt>
      <trkpt lat="45.29757" lon="5.10058">
        <ele>380.4289855957</ele>
        <time>2010-12-11T14:28:00Z</time>
      </trkpt>
      <trkpt lat="45.29764" lon="5.10081">
        <ele>381.09698486328</ele>
        <time>2010-12-11T14:28:03Z</time>
      </trkpt>
      <trkpt lat="45.29783" lon="5.10146">
        <ele>380.89099121094</ele>
        <time>2010-12-11T14:28:11Z</time>
      </trkpt>
      <trkpt lat="45.29812" lon="5.10229">
        <ele>381.83801269531</ele>
        <time>2010-12-11T14:28:21Z</time>
      </trkpt>
      <trkpt lat="45.29834" lon="5.10263">
        <ele>382.97698974609</ele>
        <time>2010-12-11T14:28:26Z</time>
      </trkpt>
      <trkpt lat="45.29874" lon="5.10307">
        <ele>384.31100463867</ele>
        <time>2010-12-11T14:28:34Z</time>
      </trkpt>
      <trkpt lat="45.29892" lon="5.10329">
        <ele>385.01800537109</ele>
        <time>2010-12-11T14:28:38Z</time>
      </trkpt>
      <trkpt lat="45.29914" lon="5.10371">
        <ele>385.50601196289</ele>
        <time>2010-12-11T14:28:44Z</time>
      </trkpt>
      <trkpt lat="45.29938" lon="5.10436">
        <ele>385.9169921875</ele>
        <time>2010-12-11T14:28:52Z</time>
      </trkpt>
      <trkpt lat="45.29967" lon="5.10502">
        <ele>387.08700561523</ele>
        <time>2010-12-11T14:29:01Z</time>
      </trkpt>
      <trkpt lat="45.29977" lon="5.10524">
        <ele>387.55200195312</ele>
        <time>2010-12-11T14:29:04Z</time>
      </trkpt>
      <trkpt lat="45.29981" lon="5.10532">
        <ele>387.63299560547</ele>
        <time>2010-12-11T14:29:05Z</time>
      </trkpt>
      <trkpt lat="45.29984" lon="5.10539">
        <ele>387.7919921875</ele>
        <time>2010-12-11T14:29:06Z</time>
      </trkpt>
      <trkpt lat="45.29992" lon="5.10554">
        <ele>388.59399414062</ele>
        <time>2010-12-11T14:29:08Z</time>
      </trkpt>
      <trkpt lat="45.29995" lon="5.10562">
        <ele>388.70999145508</ele>
        <time>2010-12-11T14:29:09Z</time>
      </trkpt>
      <trkpt lat="45.30019" lon="5.10616">
        <ele>389.8630065918</ele>
        <time>2010-12-11T14:29:16Z</time>
      </trkpt>
      <trkpt lat="45.30042" lon="5.10693">
        <ele>391.8330078125</ele>
        <time>2010-12-11T14:29:25Z</time>
      </trkpt>
      <trkpt lat="45.30046" lon="5.1071">
        <ele>392.31100463867</ele>
        <time>2010-12-11T14:29:27Z</time>
      </trkpt>
      <trkpt lat="45.30048" lon="5.10758">
        <ele>392.26800537109</ele>
        <time>2010-12-11T14:29:32Z</time>
      </trkpt>
      <trkpt lat="45.30045" lon="5.10777">
        <ele>392.43200683594</ele>
        <time>2010-12-11T14:29:34Z</time>
      </trkpt>
      <trkpt lat="45.30043" lon="5.10787">
        <ele>392.44500732422</ele>
        <time>2010-12-11T14:29:35Z</time>
      </trkpt>
      <trkpt lat="45.30028" lon="5.10876">
        <ele>392.60299682617</ele>
        <time>2010-12-11T14:29:44Z</time>
      </trkpt>
      <trkpt lat="45.30017" lon="5.10947">
        <ele>394.25500488281</ele>
        <time>2010-12-11T14:29:52Z</time>
      </trkpt>
      <trkpt lat="45.30014" lon="5.10991">
        <ele>394.99099731445</ele>
        <time>2010-12-11T14:29:57Z</time>
      </trkpt>
      <trkpt lat="45.30014" lon="5.11009">
        <ele>394.97900390625</ele>
        <time>2010-12-11T14:29:59Z</time>
      </trkpt>
      <trkpt lat="45.30014" lon="5.11027">
        <ele>394.96899414062</ele>
        <time>2010-12-11T14:30:01Z</time>
      </trkpt>
      <trkpt lat="45.30014" lon="5.11037">
        <ele>394.94900512695</ele>
        <time>2010-12-11T14:30:02Z</time>
      </trkpt>
      <trkpt lat="45.30014" lon="5.11088">
        <ele>395.28900146484</ele>
        <time>2010-12-11T14:30:08Z</time>
      </trkpt>
      <trkpt lat="45.3001" lon="5.11129">
        <ele>395.49700927734</ele>
        <time>2010-12-11T14:30:14Z</time>
      </trkpt>
      <trkpt lat="45.30008" lon="5.11142">
        <ele>395.45199584961</ele>
        <time>2010-12-11T14:30:16Z</time>
      </trkpt>
      <trkpt lat="45.30007" lon="5.11148">
        <ele>395.36099243164</ele>
        <time>2010-12-11T14:30:17Z</time>
      </trkpt>
      <trkpt lat="45.30005" lon="5.11155">
        <ele>395.29501342773</ele>
        <time>2010-12-11T14:30:18Z</time>
      </trkpt>
      <trkpt lat="45.29994" lon="5.11185">
        <ele>395.34698486328</ele>
        <time>2010-12-11T14:30:23Z</time>
      </trkpt>
      <trkpt lat="45.29986" lon="5.11199">
        <ele>395.25</ele>
        <time>2010-12-11T14:30:26Z</time>
      </trkpt>
      <trkpt lat="45.29975" lon="5.11222">
        <ele>395.44000244141</ele>
        <time>2010-12-11T14:30:31Z</time>
      </trkpt>
      <trkpt lat="45.29967" lon="5.11243">
        <ele>395.58898925781</ele>
        <time>2010-12-11T14:30:36Z</time>
      </trkpt>
      <trkpt lat="45.29963" lon="5.11275">
        <ele>395.96200561523</ele>
        <time>2010-12-11T14:30:43Z</time>
      </trkpt>
      <trkpt lat="45.29964" lon="5.11301">
        <ele>396.94799804688</ele>
        <time>2010-12-11T14:30:49Z</time>
      </trkpt>
      <trkpt lat="45.29965" lon="5.11327">
        <ele>397.1780090332</ele>
        <time>2010-12-11T14:30:56Z</time>
      </trkpt>
      <trkpt lat="45.29963" lon="5.11349">
        <ele>397.18899536133</ele>
        <time>2010-12-11T14:31:03Z</time>
      </trkpt>
      <trkpt lat="45.29961" lon="5.11365">
        <ele>397.26901245117</ele>
        <time>2010-12-11T14:31:08Z</time>
      </trkpt>
      <trkpt lat="45.29958" lon="5.11393">
        <ele>397.27301025391</ele>
        <time>2010-12-11T14:31:15Z</time>
      </trkpt>
      <trkpt lat="45.29951" lon="5.11432">
        <ele>397.84298706055</ele>
        <time>2010-12-11T14:31:23Z</time>
      </trkpt>
      <trkpt lat="45.29944" lon="5.11462">
        <ele>397.73400878906</ele>
        <time>2010-12-11T14:31:30Z</time>
      </trkpt>
      <trkpt lat="45.2994" lon="5.11482">
        <ele>397.75201416016</ele>
        <time>2010-12-11T14:31:35Z</time>
      </trkpt>
      <trkpt lat="45.29934" lon="5.11509">
        <ele>397.98300170898</ele>
        <time>2010-12-11T14:31:41Z</time>
      </trkpt>
      <trkpt lat="45.29929" lon="5.11537">
        <ele>397.83099365234</ele>
        <time>2010-12-11T14:31:46Z</time>
      </trkpt>
      <trkpt lat="45.29921" lon="5.1158">
        <ele>398.27700805664</ele>
        <time>2010-12-11T14:31:53Z</time>
      </trkpt>
      <trkpt lat="45.29911" lon="5.11644">
        <ele>399.23098754883</ele>
        <time>2010-12-11T14:32:03Z</time>
      </trkpt>
      <trkpt lat="45.29904" lon="5.11687">
        <ele>400.05499267578</ele>
        <time>2010-12-11T14:32:10Z</time>
      </trkpt>
      <trkpt lat="45.29903" lon="5.11699">
        <ele>400.44299316406</ele>
        <time>2010-12-11T14:32:12Z</time>
      </trkpt>
      <trkpt lat="45.29896" lon="5.1175">
        <ele>401.19299316406</ele>
        <time>2010-12-11T14:32:20Z</time>
      </trkpt>
      <trkpt lat="45.29896" lon="5.11756">
        <ele>401.27099609375</ele>
        <time>2010-12-11T14:32:21Z</time>
      </trkpt>
      <trkpt lat="45.29894" lon="5.11768">
        <ele>401.63000488281</ele>
        <time>2010-12-11T14:32:23Z</time>
      </trkpt>
      <trkpt lat="45.29887" lon="5.11825">
        <ele>403.41400146484</ele>
        <time>2010-12-11T14:32:33Z</time>
      </trkpt>
      <trkpt lat="45.29881" lon="5.11879">
        <ele>404.51000976562</ele>
        <time>2010-12-11T14:32:42Z</time>
      </trkpt>
      <trkpt lat="45.29874" lon="5.11936">
        <ele>405.48901367188</ele>
        <time>2010-12-11T14:32:51Z</time>
      </trkpt>
      <trkpt lat="45.29871" lon="5.1198">
        <ele>406.52801513672</ele>
        <time>2010-12-11T14:32:58Z</time>
      </trkpt>
      <trkpt lat="45.29873" lon="5.12017">
        <ele>407.45599365234</ele>
        <time>2010-12-11T14:33:04Z</time>
      </trkpt>
      <trkpt lat="45.29878" lon="5.12062">
        <ele>408.17300415039</ele>
        <time>2010-12-11T14:33:11Z</time>
      </trkpt>
      <trkpt lat="45.29889" lon="5.12139">
        <ele>407.96899414062</ele>
        <time>2010-12-11T14:33:21Z</time>
      </trkpt>
      <trkpt lat="45.29898" lon="5.1221">
        <ele>407.81698608398</ele>
        <time>2010-12-11T14:33:30Z</time>
      </trkpt>
      <trkpt lat="45.29895" lon="5.12266">
        <ele>408.04998779297</ele>
        <time>2010-12-11T14:33:37Z</time>
      </trkpt>
      <trkpt lat="45.2989" lon="5.12329">
        <ele>408.72198486328</ele>
        <time>2010-12-11T14:33:45Z</time>
      </trkpt>
      <trkpt lat="45.29889" lon="5.12401">
        <ele>409.93099975586</ele>
        <time>2010-12-11T14:33:54Z</time>
      </trkpt>
      <trkpt lat="45.29895" lon="5.12448">
        <ele>410.49398803711</ele>
        <time>2010-12-11T14:34:00Z</time>
      </trkpt>
      <trkpt lat="45.29896" lon="5.12504">
        <ele>411.00399780273</ele>
        <time>2010-12-11T14:34:07Z</time>
      </trkpt>
      <trkpt lat="45.29886" lon="5.12548">
        <ele>411.99398803711</ele>
        <time>2010-12-11T14:34:13Z</time>
      </trkpt>
      <trkpt lat="45.29876" lon="5.12582">
        <ele>412.72900390625</ele>
        <time>2010-12-11T14:34:18Z</time>
      </trkpt>
      <trkpt lat="45.29869" lon="5.12615">
        <ele>413.67700195312</ele>
        <time>2010-12-11T14:34:23Z</time>
      </trkpt>
      <trkpt lat="45.29867" lon="5.1265">
        <ele>414.29400634766</ele>
        <time>2010-12-11T14:34:28Z</time>
      </trkpt>
      <trkpt lat="45.29858" lon="5.1268">
        <ele>415.38400268555</ele>
        <time>2010-12-11T14:34:33Z</time>
      </trkpt>
      <trkpt lat="45.29852" lon="5.12689">
        <ele>415.72198486328</ele>
        <time>2010-12-11T14:34:35Z</time>
      </trkpt>
      <trkpt lat="45.29839" lon="5.12707">
        <ele>416.30200195312</ele>
        <time>2010-12-11T14:34:39Z</time>
      </trkpt>
      <trkpt lat="45.29829" lon="5.12749">
        <ele>417.22100830078</ele>
        <time>2010-12-11T14:34:46Z</time>
      </trkpt>
      <trkpt lat="45.29826" lon="5.12802">
        <ele>417.89001464844</ele>
        <time>2010-12-11T14:34:54Z</time>
      </trkpt>
      <trkpt lat="45.29825" lon="5.12844">
        <ele>418.4469909668</ele>
        <time>2010-12-11T14:35:00Z</time>
      </trkpt>
      <trkpt lat="45.29832" lon="5.12899">
        <ele>419.12200927734</ele>
        <time>2010-12-11T14:35:08Z</time>
      </trkpt>
      <trkpt lat="45.29832" lon="5.12907">
        <ele>419.17199707031</ele>
        <time>2010-12-11T14:35:09Z</time>
      </trkpt>
      <trkpt lat="45.29828" lon="5.12948">
        <ele>419.58898925781</ele>
        <time>2010-12-11T14:35:15Z</time>
      </trkpt>
      <trkpt lat="45.29818" lon="5.13002">
        <ele>420.04299926758</ele>
        <time>2010-12-11T14:35:23Z</time>
      </trkpt>
      <trkpt lat="45.29811" lon="5.13039">
        <ele>420.39599609375</ele>
        <time>2010-12-11T14:35:28Z</time>
      </trkpt>
      <trkpt lat="45.29809" lon="5.13068">
        <ele>420.57598876953</ele>
        <time>2010-12-11T14:35:32Z</time>
      </trkpt>
      <trkpt lat="45.29815" lon="5.13121">
        <ele>421.4880065918</ele>
        <time>2010-12-11T14:35:39Z</time>
      </trkpt>
      <trkpt lat="45.29821" lon="5.13162">
        <ele>421.70700073242</ele>
        <time>2010-12-11T14:35:44Z</time>
      </trkpt>
      <trkpt lat="45.29823" lon="5.13195">
        <ele>421.93301391602</ele>
        <time>2010-12-11T14:35:48Z</time>
      </trkpt>
      <trkpt lat="45.29832" lon="5.1326">
        <ele>422.75900268555</ele>
        <time>2010-12-11T14:35:56Z</time>
      </trkpt>
      <trkpt lat="45.29833" lon="5.13268">
        <ele>422.93200683594</ele>
        <time>2010-12-11T14:35:57Z</time>
      </trkpt>
      <trkpt lat="45.29841" lon="5.13314">
        <ele>423.98599243164</ele>
        <time>2010-12-11T14:36:03Z</time>
      </trkpt>
      <trkpt lat="45.29843" lon="5.13321">
        <ele>424.17300415039</ele>
        <time>2010-12-11T14:36:04Z</time>
      </trkpt>
      <trkpt lat="45.29855" lon="5.13369">
        <ele>425.14001464844</ele>
        <time>2010-12-11T14:36:11Z</time>
      </trkpt>
      <trkpt lat="45.29857" lon="5.13376">
        <ele>425.25201416016</ele>
        <time>2010-12-11T14:36:12Z</time>
      </trkpt>
      <trkpt lat="45.29863" lon="5.13426">
        <ele>426.29800415039</ele>
        <time>2010-12-11T14:36:19Z</time>
      </trkpt>
      <trkpt lat="45.29863" lon="5.13434">
        <ele>426.41299438477</ele>
        <time>2010-12-11T14:36:20Z</time>
      </trkpt>
      <trkpt lat="45.29864" lon="5.13441">
        <ele>426.53298950195</ele>
        <time>2010-12-11T14:36:21Z</time>
      </trkpt>
      <trkpt lat="45.29866" lon="5.13462">
        <ele>426.66400146484</ele>
        <time>2010-12-11T14:36:24Z</time>
      </trkpt>
      <trkpt lat="45.29867" lon="5.13477">
        <ele>427.07400512695</ele>
        <time>2010-12-11T14:36:26Z</time>
      </trkpt>
      <trkpt lat="45.29867" lon="5.13484">
        <ele>427.33801269531</ele>
        <time>2010-12-11T14:36:27Z</time>
      </trkpt>
      <trkpt lat="45.29868" lon="5.13492">
        <ele>427.55700683594</ele>
        <time>2010-12-11T14:36:28Z</time>
      </trkpt>
      <trkpt lat="45.29869" lon="5.135">
        <ele>427.64001464844</ele>
        <time>2010-12-11T14:36:29Z</time>
      </trkpt>
      <trkpt lat="45.29871" lon="5.13516">
        <ele>427.73599243164</ele>
        <time>2010-12-11T14:36:31Z</time>
      </trkpt>
      <trkpt lat="45.29872" lon="5.13557">
        <ele>428.70001220703</ele>
        <time>2010-12-11T14:36:36Z</time>
      </trkpt>
      <trkpt lat="45.29861" lon="5.13611">
        <ele>429.43600463867</ele>
        <time>2010-12-11T14:36:43Z</time>
      </trkpt>
      <trkpt lat="45.29842" lon="5.13688">
        <ele>431.07699584961</ele>
        <time>2010-12-11T14:36:53Z</time>
      </trkpt>
      <trkpt lat="45.29826" lon="5.1373">
        <ele>431.69900512695</ele>
        <time>2010-12-11T14:36:59Z</time>
      </trkpt>
      <trkpt lat="45.29819" lon="5.13743">
        <ele>431.82901000977</ele>
        <time>2010-12-11T14:37:01Z</time>
      </trkpt>
      <trkpt lat="45.29795" lon="5.13787">
        <ele>433.05099487305</ele>
        <time>2010-12-11T14:37:08Z</time>
      </trkpt>
      <trkpt lat="45.29768" lon="5.13827">
        <ele>434.08898925781</ele>
        <time>2010-12-11T14:37:15Z</time>
      </trkpt>
      <trkpt lat="45.29737" lon="5.13859">
        <ele>434.93899536133</ele>
        <time>2010-12-11T14:37:22Z</time>
      </trkpt>
      <trkpt lat="45.29707" lon="5.13885">
        <ele>436.09298706055</ele>
        <time>2010-12-11T14:37:29Z</time>
      </trkpt>
      <trkpt lat="45.29698" lon="5.13893">
        <ele>436.67599487305</ele>
        <time>2010-12-11T14:37:32Z</time>
      </trkpt>
      <trkpt lat="45.29693" lon="5.13897">
        <ele>436.93301391602</ele>
        <time>2010-12-11T14:37:34Z</time>
      </trkpt>
      <trkpt lat="45.29691" lon="5.13899">
        <ele>437.02700805664</ele>
        <time>2010-12-11T14:37:35Z</time>
      </trkpt>
      <trkpt lat="45.29682" lon="5.13903">
        <ele>437.32800292969</ele>
        <time>2010-12-11T14:37:40Z</time>
      </trkpt>
      <trkpt lat="45.29676" lon="5.13901">
        <ele>437.28601074219</ele>
        <time>2010-12-11T14:37:44Z</time>
      </trkpt>
      <trkpt lat="45.29676" lon="5.13901">
        <ele>437.41799926758</ele>
        <time>2010-12-11T14:37:46Z</time>
      </trkpt>
      <trkpt lat="45.29673" lon="5.13897">
        <ele>437.31900024414</ele>
        <time>2010-12-11T14:37:54Z</time>
      </trkpt>
      <trkpt lat="45.29664" lon="5.13883">
        <ele>436.90301513672</ele>
        <time>2010-12-11T14:37:59Z</time>
      </trkpt>
      <trkpt lat="45.29649" lon="5.13867">
        <ele>436.46600341797</ele>
        <time>2010-12-11T14:38:04Z</time>
      </trkpt>
      <trkpt lat="45.29632" lon="5.13857">
        <ele>436.32901000977</ele>
        <time>2010-12-11T14:38:08Z</time>
      </trkpt>
      <trkpt lat="45.29613" lon="5.13852">
        <ele>436.18499755859</ele>
        <time>2010-12-11T14:38:12Z</time>
      </trkpt>
      <trkpt lat="45.29572" lon="5.13847">
        <ele>437.16799926758</ele>
        <time>2010-12-11T14:38:21Z</time>
      </trkpt>
      <trkpt lat="45.2955" lon="5.13846">
        <ele>438.5419921875</ele>
        <time>2010-12-11T14:38:27Z</time>
      </trkpt>
      <trkpt lat="45.29525" lon="5.13843">
        <ele>440.2200012207</ele>
        <time>2010-12-11T14:38:34Z</time>
      </trkpt>
      <trkpt lat="45.29512" lon="5.13842">
        <ele>441.10800170898</ele>
        <time>2010-12-11T14:38:38Z</time>
      </trkpt>
      <trkpt lat="45.29505" lon="5.13841">
        <ele>441.37399291992</ele>
        <time>2010-12-11T14:38:40Z</time>
      </trkpt>
      <trkpt lat="45.29502" lon="5.13841">
        <ele>441.64999389648</ele>
        <time>2010-12-11T14:38:41Z</time>
      </trkpt>
      <trkpt lat="45.29489" lon="5.1384">
        <ele>442.76998901367</ele>
        <time>2010-12-11T14:38:45Z</time>
      </trkpt>
      <trkpt lat="45.29464" lon="5.13836">
        <ele>444.46099853516</ele>
        <time>2010-12-11T14:38:52Z</time>
      </trkpt>
      <trkpt lat="45.29438" lon="5.13834">
        <ele>446.67700195312</ele>
        <time>2010-12-11T14:39:00Z</time>
      </trkpt>
      <trkpt lat="45.29418" lon="5.13833">
        <ele>447.94799804688</ele>
        <time>2010-12-11T14:39:06Z</time>
      </trkpt>
      <trkpt lat="45.29388" lon="5.1383">
        <ele>450.26800537109</ele>
        <time>2010-12-11T14:39:15Z</time>
      </trkpt>
      <trkpt lat="45.29351" lon="5.13828">
        <ele>453.12899780273</ele>
        <time>2010-12-11T14:39:26Z</time>
      </trkpt>
      <trkpt lat="45.29331" lon="5.13826">
        <ele>454.60800170898</ele>
        <time>2010-12-11T14:39:32Z</time>
      </trkpt>
      <trkpt lat="45.29313" lon="5.13816">
        <ele>456.43701171875</ele>
        <time>2010-12-11T14:39:38Z</time>
      </trkpt>
      <trkpt lat="45.29307" lon="5.13802">
        <ele>457.60198974609</ele>
        <time>2010-12-11T14:39:42Z</time>
      </trkpt>
      <trkpt lat="45.29309" lon="5.13778">
        <ele>459.51400756836</ele>
        <time>2010-12-11T14:39:48Z</time>
      </trkpt>
      <trkpt lat="45.29312" lon="5.13752">
        <ele>460.81298828125</ele>
        <time>2010-12-11T14:39:54Z</time>
      </trkpt>
      <trkpt lat="45.29311" lon="5.13723">
        <ele>462.15200805664</ele>
        <time>2010-12-11T14:40:00Z</time>
      </trkpt>
      <trkpt lat="45.293" lon="5.13696">
        <ele>464.07501220703</ele>
        <time>2010-12-11T14:40:07Z</time>
      </trkpt>
      <trkpt lat="45.29287" lon="5.13686">
        <ele>465.22799682617</ele>
        <time>2010-12-11T14:40:12Z</time>
      </trkpt>
      <trkpt lat="45.29276" lon="5.1368">
        <ele>465.79901123047</ele>
        <time>2010-12-11T14:40:15Z</time>
      </trkpt>
      <trkpt lat="45.2926" lon="5.13672">
        <ele>466.69500732422</ele>
        <time>2010-12-11T14:40:19Z</time>
      </trkpt>
      <trkpt lat="45.29252" lon="5.13667">
        <ele>466.85400390625</ele>
        <time>2010-12-11T14:40:21Z</time>
      </trkpt>
      <trkpt lat="45.29239" lon="5.13653">
        <ele>467.50299072266</ele>
        <time>2010-12-11T14:40:25Z</time>
      </trkpt>
      <trkpt lat="45.29233" lon="5.13644">
        <ele>468.10501098633</ele>
        <time>2010-12-11T14:40:27Z</time>
      </trkpt>
      <trkpt lat="45.29223" lon="5.13617">
        <ele>469.67999267578</ele>
        <time>2010-12-11T14:40:32Z</time>
      </trkpt>
      <trkpt lat="45.29211" lon="5.13577">
        <ele>471.00299072266</ele>
        <time>2010-12-11T14:40:39Z</time>
      </trkpt>
      <trkpt lat="45.2921" lon="5.1357">
        <ele>471.1780090332</ele>
        <time>2010-12-11T14:40:40Z</time>
      </trkpt>
      <trkpt lat="45.292" lon="5.13523">
        <ele>472.87100219727</ele>
        <time>2010-12-11T14:40:48Z</time>
      </trkpt>
      <trkpt lat="45.29196" lon="5.13512">
        <ele>473.41198730469</ele>
        <time>2010-12-11T14:40:50Z</time>
      </trkpt>
      <trkpt lat="45.29187" lon="5.13491">
        <ele>473.95999145508</ele>
        <time>2010-12-11T14:40:54Z</time>
      </trkpt>
      <trkpt lat="45.29174" lon="5.13473">
        <ele>474.19198608398</ele>
        <time>2010-12-11T14:40:58Z</time>
      </trkpt>
      <trkpt lat="45.29137" lon="5.1344">
        <ele>474.29800415039</ele>
        <time>2010-12-11T14:41:07Z</time>
      </trkpt>
      <trkpt lat="45.29116" lon="5.1342">
        <ele>474.375</ele>
        <time>2010-12-11T14:41:12Z</time>
      </trkpt>
      <trkpt lat="45.29098" lon="5.13403">
        <ele>474.58700561523</ele>
        <time>2010-12-11T14:41:16Z</time>
      </trkpt>
      <trkpt lat="45.29061" lon="5.13382">
        <ele>474.69400024414</ele>
        <time>2010-12-11T14:41:23Z</time>
      </trkpt>
      <trkpt lat="45.29049" lon="5.13378">
        <ele>474.55801391602</ele>
        <time>2010-12-11T14:41:25Z</time>
      </trkpt>
      <trkpt lat="45.29044" lon="5.13376">
        <ele>474.63500976562</ele>
        <time>2010-12-11T14:41:26Z</time>
      </trkpt>
      <trkpt lat="45.29038" lon="5.13375">
        <ele>474.77600097656</ele>
        <time>2010-12-11T14:41:27Z</time>
      </trkpt>
      <trkpt lat="45.28997" lon="5.13363">
        <ele>474.80200195312</ele>
        <time>2010-12-11T14:41:34Z</time>
      </trkpt>
      <trkpt lat="45.28962" lon="5.13352">
        <ele>475.05700683594</ele>
        <time>2010-12-11T14:41:40Z</time>
      </trkpt>
      <trkpt lat="45.28952" lon="5.13345">
        <ele>475.19100952148</ele>
        <time>2010-12-11T14:41:42Z</time>
      </trkpt>
      <trkpt lat="45.28937" lon="5.13331">
        <ele>475.44799804688</ele>
        <time>2010-12-11T14:41:45Z</time>
      </trkpt>
      <trkpt lat="45.28926" lon="5.1331">
        <ele>475.86599731445</ele>
        <time>2010-12-11T14:41:48Z</time>
      </trkpt>
      <trkpt lat="45.28908" lon="5.13246">
        <ele>476.77801513672</ele>
        <time>2010-12-11T14:41:56Z</time>
      </trkpt>
      <trkpt lat="45.28887" lon="5.13184">
        <ele>477.50299072266</ele>
        <time>2010-12-11T14:42:04Z</time>
      </trkpt>
      <trkpt lat="45.28863" lon="5.13141">
        <ele>477.2799987793</ele>
        <time>2010-12-11T14:42:10Z</time>
      </trkpt>
      <trkpt lat="45.28819" lon="5.1307">
        <ele>477.82800292969</ele>
        <time>2010-12-11T14:42:20Z</time>
      </trkpt>
      <trkpt lat="45.2878" lon="5.13018">
        <ele>477.89700317383</ele>
        <time>2010-12-11T14:42:28Z</time>
      </trkpt>
      <trkpt lat="45.28742" lon="5.12987">
        <ele>477.06500244141</ele>
        <time>2010-12-11T14:42:34Z</time>
      </trkpt>
      <trkpt lat="45.28685" lon="5.12949">
        <ele>476.37200927734</ele>
        <time>2010-12-11T14:42:43Z</time>
      </trkpt>
      <trkpt lat="45.2865" lon="5.12926">
        <ele>475.89401245117</ele>
        <time>2010-12-11T14:42:49Z</time>
      </trkpt>
      <trkpt lat="45.28632" lon="5.12914">
        <ele>475.51998901367</ele>
        <time>2010-12-11T14:42:52Z</time>
      </trkpt>
      <trkpt lat="45.28585" lon="5.12882">
        <ele>474.55499267578</ele>
        <time>2010-12-11T14:43:00Z</time>
      </trkpt>
      <trkpt lat="45.2856" lon="5.12866">
        <ele>474.02398681641</ele>
        <time>2010-12-11T14:43:04Z</time>
      </trkpt>
      <trkpt lat="45.28518" lon="5.12839">
        <ele>473.2619934082</ele>
        <time>2010-12-11T14:43:11Z</time>
      </trkpt>
      <trkpt lat="45.28486" lon="5.12817">
        <ele>472.7619934082</ele>
        <time>2010-12-11T14:43:17Z</time>
      </trkpt>
      <trkpt lat="45.28457" lon="5.12797">
        <ele>472.79400634766</ele>
        <time>2010-12-11T14:43:23Z</time>
      </trkpt>
      <trkpt lat="45.28453" lon="5.12794">
        <ele>472.73901367188</ele>
        <time>2010-12-11T14:43:24Z</time>
      </trkpt>
      <trkpt lat="45.28423" lon="5.12774">
        <ele>472.85598754883</ele>
        <time>2010-12-11T14:43:31Z</time>
      </trkpt>
      <trkpt lat="45.28419" lon="5.12772">
        <ele>472.94000244141</ele>
        <time>2010-12-11T14:43:32Z</time>
      </trkpt>
      <trkpt lat="45.28386" lon="5.12748">
        <ele>471.79000854492</ele>
        <time>2010-12-11T14:43:40Z</time>
      </trkpt>
      <trkpt lat="45.28353" lon="5.12724">
        <ele>470.73599243164</ele>
        <time>2010-12-11T14:43:47Z</time>
      </trkpt>
      <trkpt lat="45.28323" lon="5.12699">
        <ele>469.40899658203</ele>
        <time>2010-12-11T14:43:53Z</time>
      </trkpt>
      <trkpt lat="45.28295" lon="5.12664">
        <ele>468.25299072266</ele>
        <time>2010-12-11T14:43:59Z</time>
      </trkpt>
      <trkpt lat="45.2828" lon="5.12645">
        <ele>467.30099487305</ele>
        <time>2010-12-11T14:44:02Z</time>
      </trkpt>
      <trkpt lat="45.28247" lon="5.12615">
        <ele>464.79998779297</ele>
        <time>2010-12-11T14:44:07Z</time>
      </trkpt>
      <trkpt lat="45.28216" lon="5.12571">
        <ele>461.41400146484</ele>
        <time>2010-12-11T14:44:12Z</time>
      </trkpt>
      <trkpt lat="45.28201" lon="5.12555">
        <ele>460.07998657227</ele>
        <time>2010-12-11T14:44:14Z</time>
      </trkpt>
      <trkpt lat="45.28149" lon="5.12506">
        <ele>455.02398681641</ele>
        <time>2010-12-11T14:44:20Z</time>
      </trkpt>
      <trkpt lat="45.28087" lon="5.12461">
        <ele>448.90100097656</ele>
        <time>2010-12-11T14:44:26Z</time>
      </trkpt>
      <trkpt lat="45.28056" lon="5.12432">
        <ele>446.76098632812</ele>
        <time>2010-12-11T14:44:29Z</time>
      </trkpt>
      <trkpt lat="45.28014" lon="5.1237">
        <ele>442.24600219727</ele>
        <time>2010-12-11T14:44:34Z</time>
      </trkpt>
      <trkpt lat="45.27991" lon="5.12329">
        <ele>441.05999755859</ele>
        <time>2010-12-11T14:44:37Z</time>
      </trkpt>
      <trkpt lat="45.27944" lon="5.12282">
        <ele>439.28298950195</ele>
        <time>2010-12-11T14:44:42Z</time>
      </trkpt>
      <trkpt lat="45.27866" lon="5.12218">
        <ele>436.16299438477</ele>
        <time>2010-12-11T14:44:50Z</time>
      </trkpt>
      <trkpt lat="45.27857" lon="5.1221">
        <ele>435.65899658203</ele>
        <time>2010-12-11T14:44:51Z</time>
      </trkpt>
      <trkpt lat="45.27826" lon="5.12167">
        <ele>434.49600219727</ele>
        <time>2010-12-11T14:44:55Z</time>
      </trkpt>
      <trkpt lat="45.27794" lon="5.12104">
        <ele>431.53799438477</ele>
        <time>2010-12-11T14:45:00Z</time>
      </trkpt>
      <trkpt lat="45.2778" lon="5.1208">
        <ele>430.46600341797</ele>
        <time>2010-12-11T14:45:02Z</time>
      </trkpt>
      <trkpt lat="45.27757" lon="5.12049">
        <ele>428.66500854492</ele>
        <time>2010-12-11T14:45:05Z</time>
      </trkpt>
      <trkpt lat="45.27708" lon="5.12017">
        <ele>426.61700439453</ele>
        <time>2010-12-11T14:45:10Z</time>
      </trkpt>
      <trkpt lat="45.27654" lon="5.11992">
        <ele>423.38598632812</ele>
        <time>2010-12-11T14:45:15Z</time>
      </trkpt>
      <trkpt lat="45.27608" lon="5.11995">
        <ele>420.66799926758</ele>
        <time>2010-12-11T14:45:19Z</time>
      </trkpt>
      <trkpt lat="45.27563" lon="5.12014">
        <ele>416.14801025391</ele>
        <time>2010-12-11T14:45:23Z</time>
      </trkpt>
      <trkpt lat="45.27538" lon="5.12008">
        <ele>414.33999633789</ele>
        <time>2010-12-11T14:45:25Z</time>
      </trkpt>
      <trkpt lat="45.2744" lon="5.11972">
        <ele>407.36801147461</ele>
        <time>2010-12-11T14:45:33Z</time>
      </trkpt>
      <trkpt lat="45.27383" lon="5.11942">
        <ele>406.11999511719</ele>
        <time>2010-12-11T14:45:38Z</time>
      </trkpt>
      <trkpt lat="45.27353" lon="5.11912">
        <ele>408.69900512695</ele>
        <time>2010-12-11T14:45:42Z</time>
      </trkpt>
      <trkpt lat="45.27348" lon="5.11904">
        <ele>409.53698730469</ele>
        <time>2010-12-11T14:45:43Z</time>
      </trkpt>
      <trkpt lat="45.27333" lon="5.11876">
        <ele>411.87600708008</ele>
        <time>2010-12-11T14:45:47Z</time>
      </trkpt>
      <trkpt lat="45.27325" lon="5.11851">
        <ele>413.89700317383</ele>
        <time>2010-12-11T14:45:51Z</time>
      </trkpt>
      <trkpt lat="45.27315" lon="5.11814">
        <ele>415.37200927734</ele>
        <time>2010-12-11T14:45:58Z</time>
      </trkpt>
      <trkpt lat="45.27304" lon="5.11775">
        <ele>417.36499023438</ele>
        <time>2010-12-11T14:46:06Z</time>
      </trkpt>
      <trkpt lat="45.27289" lon="5.11722">
        <ele>419.60400390625</ele>
        <time>2010-12-11T14:46:16Z</time>
      </trkpt>
      <trkpt lat="45.27281" lon="5.11693">
        <ele>420.34600830078</ele>
        <time>2010-12-11T14:46:21Z</time>
      </trkpt>
      <trkpt lat="45.27273" lon="5.11671">
        <ele>420.97299194336</ele>
        <time>2010-12-11T14:46:24Z</time>
      </trkpt>
      <trkpt lat="45.27257" lon="5.11612">
        <ele>422.24600219727</ele>
        <time>2010-12-11T14:46:30Z</time>
      </trkpt>
      <trkpt lat="45.27243" lon="5.11571">
        <ele>423.92300415039</ele>
        <time>2010-12-11T14:46:34Z</time>
      </trkpt>
      <trkpt lat="45.27234" lon="5.11539">
        <ele>425.31399536133</ele>
        <time>2010-12-11T14:46:37Z</time>
      </trkpt>
      <trkpt lat="45.27228" lon="5.11518">
        <ele>426.11499023438</ele>
        <time>2010-12-11T14:46:39Z</time>
      </trkpt>
      <trkpt lat="45.27225" lon="5.11508">
        <ele>426.82299804688</ele>
        <time>2010-12-11T14:46:40Z</time>
      </trkpt>
      <trkpt lat="45.2721" lon="5.11456">
        <ele>429.02301025391</ele>
        <time>2010-12-11T14:46:46Z</time>
      </trkpt>
      <trkpt lat="45.27192" lon="5.11397">
        <ele>430.08499145508</ele>
        <time>2010-12-11T14:46:54Z</time>
      </trkpt>
      <trkpt lat="45.27173" lon="5.11335">
        <ele>431.10900878906</ele>
        <time>2010-12-11T14:47:03Z</time>
      </trkpt>
      <trkpt lat="45.27158" lon="5.11282">
        <ele>431.91101074219</ele>
        <time>2010-12-11T14:47:11Z</time>
      </trkpt>
      <trkpt lat="45.2714" lon="5.11222">
        <ele>432.76901245117</ele>
        <time>2010-12-11T14:47:20Z</time>
      </trkpt>
      <trkpt lat="45.27125" lon="5.11173">
        <ele>433.64199829102</ele>
        <time>2010-12-11T14:47:27Z</time>
      </trkpt>
      <trkpt lat="45.27109" lon="5.11101">
        <ele>436.06100463867</ele>
        <time>2010-12-11T14:47:36Z</time>
      </trkpt>
      <trkpt lat="45.27103" lon="5.11037">
        <ele>438.93701171875</ele>
        <time>2010-12-11T14:47:43Z</time>
      </trkpt>
      <trkpt lat="45.27102" lon="5.1102">
        <ele>439.65100097656</ele>
        <time>2010-12-11T14:47:45Z</time>
      </trkpt>
      <trkpt lat="45.27101" lon="5.11004">
        <ele>440.61099243164</ele>
        <time>2010-12-11T14:47:47Z</time>
      </trkpt>
      <trkpt lat="45.27097" lon="5.10962">
        <ele>442.27099609375</ele>
        <time>2010-12-11T14:47:53Z</time>
      </trkpt>
      <trkpt lat="45.27089" lon="5.10909">
        <ele>444.23901367188</ele>
        <time>2010-12-11T14:48:01Z</time>
      </trkpt>
      <trkpt lat="45.27074" lon="5.10864">
        <ele>445.81698608398</ele>
        <time>2010-12-11T14:48:08Z</time>
      </trkpt>
      <trkpt lat="45.27068" lon="5.10846">
        <ele>446.86199951172</ele>
        <time>2010-12-11T14:48:11Z</time>
      </trkpt>
      <trkpt lat="45.27065" lon="5.1084">
        <ele>447.0119934082</ele>
        <time>2010-12-11T14:48:12Z</time>
      </trkpt>
      <trkpt lat="45.27047" lon="5.10788">
        <ele>449.32000732422</ele>
        <time>2010-12-11T14:48:21Z</time>
      </trkpt>
      <trkpt lat="45.27037" lon="5.10758">
        <ele>450.50698852539</ele>
        <time>2010-12-11T14:48:27Z</time>
      </trkpt>
      <trkpt lat="45.27035" lon="5.10752">
        <ele>450.64300537109</ele>
        <time>2010-12-11T14:48:28Z</time>
      </trkpt>
      <trkpt lat="45.27021" lon="5.10716">
        <ele>452.47900390625</ele>
        <time>2010-12-11T14:48:36Z</time>
      </trkpt>
      <trkpt lat="45.27014" lon="5.10695">
        <ele>453.64199829102</ele>
        <time>2010-12-11T14:48:42Z</time>
      </trkpt>
      <trkpt lat="45.27007" lon="5.10673">
        <ele>454.21798706055</ele>
        <time>2010-12-11T14:48:49Z</time>
      </trkpt>
      <trkpt lat="45.26999" lon="5.1065">
        <ele>455.56799316406</ele>
        <time>2010-12-11T14:48:57Z</time>
      </trkpt>
      <trkpt lat="45.2699" lon="5.10627">
        <ele>456.51998901367</ele>
        <time>2010-12-11T14:49:04Z</time>
      </trkpt>
      <trkpt lat="45.26979" lon="5.10597">
        <ele>456.93399047852</ele>
        <time>2010-12-11T14:49:14Z</time>
      </trkpt>
      <trkpt lat="45.26978" lon="5.1059">
        <ele>457.07000732422</ele>
        <time>2010-12-11T14:49:16Z</time>
      </trkpt>
      <trkpt lat="45.26977" lon="5.10567">
        <ele>457.0299987793</ele>
        <time>2010-12-11T14:49:22Z</time>
      </trkpt>
      <trkpt lat="45.26977" lon="5.10534">
        <ele>456.43798828125</ele>
        <time>2010-12-11T14:49:29Z</time>
      </trkpt>
      <trkpt lat="45.26977" lon="5.10508">
        <ele>455.89498901367</ele>
        <time>2010-12-11T14:49:34Z</time>
      </trkpt>
      <trkpt lat="45.26977" lon="5.10469">
        <ele>454.95498657227</ele>
        <time>2010-12-11T14:49:41Z</time>
      </trkpt>
      <trkpt lat="45.26977" lon="5.10429">
        <ele>454.31900024414</ele>
        <time>2010-12-11T14:49:48Z</time>
      </trkpt>
      <trkpt lat="45.26978" lon="5.10405">
        <ele>454.3630065918</ele>
        <time>2010-12-11T14:49:52Z</time>
      </trkpt>
      <trkpt lat="45.26976" lon="5.10354">
        <ele>453.22601318359</ele>
        <time>2010-12-11T14:50:01Z</time>
      </trkpt>
      <trkpt lat="45.26973" lon="5.10321">
        <ele>453.02200317383</ele>
        <time>2010-12-11T14:50:07Z</time>
      </trkpt>
      <trkpt lat="45.26969" lon="5.10287">
        <ele>453.07800292969</ele>
        <time>2010-12-11T14:50:14Z</time>
      </trkpt>
      <trkpt lat="45.26964" lon="5.10263">
        <ele>453.35800170898</ele>
        <time>2010-12-11T14:50:20Z</time>
      </trkpt>
      <trkpt lat="45.26962" lon="5.10237">
        <ele>453.17001342773</ele>
        <time>2010-12-11T14:50:26Z</time>
      </trkpt>
      <trkpt lat="45.2696" lon="5.10208">
        <ele>453.26599121094</ele>
        <time>2010-12-11T14:50:33Z</time>
      </trkpt>
      <trkpt lat="45.26959" lon="5.10193">
        <ele>453.35998535156</ele>
        <time>2010-12-11T14:50:37Z</time>
      </trkpt>
      <trkpt lat="45.2695" lon="5.10169">
        <ele>452.54699707031</ele>
        <time>2010-12-11T14:50:43Z</time>
      </trkpt>
      <trkpt lat="45.26948" lon="5.10156">
        <ele>451.90600585938</ele>
        <time>2010-12-11T14:50:45Z</time>
      </trkpt>
      <trkpt lat="45.2694" lon="5.10119">
        <ele>449.97799682617</ele>
        <time>2010-12-11T14:50:50Z</time>
      </trkpt>
      <trkpt lat="45.26933" lon="5.10083">
        <ele>448.15701293945</ele>
        <time>2010-12-11T14:50:55Z</time>
      </trkpt>
      <trkpt lat="45.26929" lon="5.10034">
        <ele>445.69400024414</ele>
        <time>2010-12-11T14:51:00Z</time>
      </trkpt>
      <trkpt lat="45.26929" lon="5.10023">
        <ele>445.46701049805</ele>
        <time>2010-12-11T14:51:01Z</time>
      </trkpt>
      <trkpt lat="45.26928" lon="5.1">
        <ele>444.33700561523</ele>
        <time>2010-12-11T14:51:03Z</time>
      </trkpt>
      <trkpt lat="45.2692" lon="5.09922">
        <ele>439.34201049805</ele>
        <time>2010-12-11T14:51:09Z</time>
      </trkpt>
      <trkpt lat="45.26914" lon="5.09848">
        <ele>434.50299072266</ele>
        <time>2010-12-11T14:51:14Z</time>
      </trkpt>
      <trkpt lat="45.26912" lon="5.09817">
        <ele>432.90600585938</ele>
        <time>2010-12-11T14:51:16Z</time>
      </trkpt>
      <trkpt lat="45.26894" lon="5.09734">
        <ele>428.1369934082</ele>
        <time>2010-12-11T14:51:21Z</time>
      </trkpt>
      <trkpt lat="45.26875" lon="5.09628">
        <ele>421.51400756836</ele>
        <time>2010-12-11T14:51:27Z</time>
      </trkpt>
      <trkpt lat="45.26871" lon="5.0959">
        <ele>420.31500244141</ele>
        <time>2010-12-11T14:51:29Z</time>
      </trkpt>
      <trkpt lat="45.26859" lon="5.09471">
        <ele>412.44198608398</ele>
        <time>2010-12-11T14:51:35Z</time>
      </trkpt>
      <trkpt lat="45.26852" lon="5.09431">
        <ele>408.94198608398</ele>
        <time>2010-12-11T14:51:37Z</time>
      </trkpt>
      <trkpt lat="45.26823" lon="5.09339">
        <ele>403.34600830078</ele>
        <time>2010-12-11T14:51:42Z</time>
      </trkpt>
      <trkpt lat="45.26814" lon="5.093">
        <ele>402.71701049805</ele>
        <time>2010-12-11T14:51:44Z</time>
      </trkpt>
      <trkpt lat="45.26793" lon="5.09202">
        <ele>397.26400756836</ele>
        <time>2010-12-11T14:51:49Z</time>
      </trkpt>
      <trkpt lat="45.26788" lon="5.09183">
        <ele>397.05099487305</ele>
        <time>2010-12-11T14:51:50Z</time>
      </trkpt>
      <trkpt lat="45.26752" lon="5.09068">
        <ele>387.98901367188</ele>
        <time>2010-12-11T14:51:56Z</time>
      </trkpt>
      <trkpt lat="45.26746" lon="5.09049">
        <ele>386.94299316406</ele>
        <time>2010-12-11T14:51:57Z</time>
      </trkpt>
      <trkpt lat="45.26733" lon="5.08965">
        <ele>381.68899536133</ele>
        <time>2010-12-11T14:52:01Z</time>
      </trkpt>
      <trkpt lat="45.2672" lon="5.08816">
        <ele>374.59201049805</ele>
        <time>2010-12-11T14:52:08Z</time>
      </trkpt>
      <trkpt lat="45.26701" lon="5.08624">
        <ele>364.34399414062</ele>
        <time>2010-12-11T14:52:17Z</time>
      </trkpt>
      <trkpt lat="45.26696" lon="5.08582">
        <ele>362.42700195312</ele>
        <time>2010-12-11T14:52:19Z</time>
      </trkpt>
      <trkpt lat="45.26667" lon="5.08512">
        <ele>358.5119934082</ele>
        <time>2010-12-11T14:52:23Z</time>
      </trkpt>
      <trkpt lat="45.26641" lon="5.08491">
        <ele>355.87600708008</ele>
        <time>2010-12-11T14:52:25Z</time>
      </trkpt>
      <trkpt lat="45.26627" lon="5.08484">
        <ele>355.05499267578</ele>
        <time>2010-12-11T14:52:26Z</time>
      </trkpt>
      <trkpt lat="45.26501" lon="5.08423">
        <ele>348.93899536133</ele>
        <time>2010-12-11T14:52:35Z</time>
      </trkpt>
      <trkpt lat="45.26492" lon="5.08417">
        <ele>350.52801513672</ele>
        <time>2010-12-11T14:52:37Z</time>
      </trkpt>
      <trkpt lat="45.26487" lon="5.08404">
        <ele>350.66000366211</ele>
        <time>2010-12-11T14:52:43Z</time>
      </trkpt>
      <trkpt lat="45.26485" lon="5.08399">
        <ele>350.60101318359</ele>
        <time>2010-12-11T14:52:45Z</time>
      </trkpt>
      <trkpt lat="45.26474" lon="5.08394">
        <ele>350.2919921875</ele>
        <time>2010-12-11T14:52:51Z</time>
      </trkpt>
      <trkpt lat="45.26468" lon="5.08394">
        <ele>349.76000976562</ele>
        <time>2010-12-11T14:52:58Z</time>
      </trkpt>
      <trkpt lat="45.26457" lon="5.08396">
        <ele>349.22900390625</ele>
        <time>2010-12-11T14:53:07Z</time>
      </trkpt>
      <trkpt lat="45.2645" lon="5.08396">
        <ele>348.95901489258</ele>
        <time>2010-12-11T14:53:09Z</time>
      </trkpt>
      <trkpt lat="45.26437" lon="5.08391">
        <ele>348.42999267578</ele>
        <time>2010-12-11T14:53:12Z</time>
      </trkpt>
      <trkpt lat="45.26405" lon="5.08379">
        <ele>346.5530090332</ele>
        <time>2010-12-11T14:53:18Z</time>
      </trkpt>
      <trkpt lat="45.26392" lon="5.08376">
        <ele>345.68701171875</ele>
        <time>2010-12-11T14:53:20Z</time>
      </trkpt>
      <trkpt lat="45.26346" lon="5.08382">
        <ele>344.51400756836</ele>
        <time>2010-12-11T14:53:27Z</time>
      </trkpt>
      <trkpt lat="45.26284" lon="5.08391">
        <ele>344.37100219727</ele>
        <time>2010-12-11T14:53:36Z</time>
      </trkpt>
      <trkpt lat="45.2624" lon="5.08398">
        <ele>345.18399047852</ele>
        <time>2010-12-11T14:53:43Z</time>
      </trkpt>
      <trkpt lat="45.26213" lon="5.08402">
        <ele>347.27200317383</ele>
        <time>2010-12-11T14:53:49Z</time>
      </trkpt>
      <trkpt lat="45.26184" lon="5.08405">
        <ele>349.42999267578</ele>
        <time>2010-12-11T14:53:57Z</time>
      </trkpt>
      <trkpt lat="45.26173" lon="5.08406">
        <ele>350.14801025391</ele>
        <time>2010-12-11T14:54:00Z</time>
      </trkpt>
      <trkpt lat="45.26163" lon="5.0839">
        <ele>350.50399780273</ele>
        <time>2010-12-11T14:54:04Z</time>
      </trkpt>
      <trkpt lat="45.26163" lon="5.08384">
        <ele>350.52301025391</ele>
        <time>2010-12-11T14:54:05Z</time>
      </trkpt>
      <trkpt lat="45.2616" lon="5.08363">
        <ele>350.8330078125</ele>
        <time>2010-12-11T14:54:08Z</time>
      </trkpt>
      <trkpt lat="45.26148" lon="5.08335">
        <ele>350.9580078125</ele>
        <time>2010-12-11T14:54:13Z</time>
      </trkpt>
      <trkpt lat="45.26137" lon="5.08327">
        <ele>352.02899169922</ele>
        <time>2010-12-11T14:54:16Z</time>
      </trkpt>
      <trkpt lat="45.2613" lon="5.08324">
        <ele>352.79000854492</ele>
        <time>2010-12-11T14:54:18Z</time>
      </trkpt>
      <trkpt lat="45.26111" lon="5.08314">
        <ele>353.55899047852</ele>
        <time>2010-12-11T14:54:23Z</time>
      </trkpt>
      <trkpt lat="45.261" lon="5.08305">
        <ele>354.33898925781</ele>
        <time>2010-12-11T14:54:26Z</time>
      </trkpt>
      <trkpt lat="45.26087" lon="5.08281">
        <ele>354.8330078125</ele>
        <time>2010-12-11T14:54:31Z</time>
      </trkpt>
      <trkpt lat="45.2608" lon="5.08252">
        <ele>355.64498901367</ele>
        <time>2010-12-11T14:54:36Z</time>
      </trkpt>
      <trkpt lat="45.26079" lon="5.08246">
        <ele>355.70901489258</ele>
        <time>2010-12-11T14:54:37Z</time>
      </trkpt>
      <trkpt lat="45.26079" lon="5.08239">
        <ele>355.92700195312</ele>
        <time>2010-12-11T14:54:38Z</time>
      </trkpt>
      <trkpt lat="45.26079" lon="5.08187">
        <ele>355.97500610352</ele>
        <time>2010-12-11T14:54:45Z</time>
      </trkpt>
      <trkpt lat="45.26067" lon="5.08126">
        <ele>355.41400146484</ele>
        <time>2010-12-11T14:54:53Z</time>
      </trkpt>
      <trkpt lat="45.26049" lon="5.08067">
        <ele>356.36801147461</ele>
        <time>2010-12-11T14:55:01Z</time>
      </trkpt>
      <trkpt lat="45.26034" lon="5.08024">
        <ele>358.41101074219</ele>
        <time>2010-12-11T14:55:08Z</time>
      </trkpt>
      <trkpt lat="45.26023" lon="5.07977">
        <ele>360.10800170898</ele>
        <time>2010-12-11T14:55:16Z</time>
      </trkpt>
      <trkpt lat="45.26015" lon="5.07929">
        <ele>360.12600708008</ele>
        <time>2010-12-11T14:55:23Z</time>
      </trkpt>
      <trkpt lat="45.26008" lon="5.07877">
        <ele>360.92599487305</ele>
        <time>2010-12-11T14:55:30Z</time>
      </trkpt>
      <trkpt lat="45.26008" lon="5.0787">
        <ele>361.35598754883</ele>
        <time>2010-12-11T14:55:31Z</time>
      </trkpt>
      <trkpt lat="45.26003" lon="5.07833">
        <ele>362.02801513672</ele>
        <time>2010-12-11T14:55:36Z</time>
      </trkpt>
      <trkpt lat="45.25997" lon="5.07809">
        <ele>362.10998535156</ele>
        <time>2010-12-11T14:55:39Z</time>
      </trkpt>
      <trkpt lat="45.25973" lon="5.07727">
        <ele>363.28601074219</ele>
        <time>2010-12-11T14:55:50Z</time>
      </trkpt>
      <trkpt lat="45.25962" lon="5.07684">
        <ele>364.55999755859</ele>
        <time>2010-12-11T14:55:57Z</time>
      </trkpt>
      <trkpt lat="45.25959" lon="5.07673">
        <ele>364.96499633789</ele>
        <time>2010-12-11T14:55:59Z</time>
      </trkpt>
      <trkpt lat="45.25957" lon="5.07661">
        <ele>365.34201049805</ele>
        <time>2010-12-11T14:56:01Z</time>
      </trkpt>
      <trkpt lat="45.25959" lon="5.07616">
        <ele>365.59698486328</ele>
        <time>2010-12-11T14:56:08Z</time>
      </trkpt>
      <trkpt lat="45.25962" lon="5.07561">
        <ele>363.99700927734</ele>
        <time>2010-12-11T14:56:14Z</time>
      </trkpt>
      <trkpt lat="45.25968" lon="5.07493">
        <ele>361.6969909668</ele>
        <time>2010-12-11T14:56:20Z</time>
      </trkpt>
      <trkpt lat="45.25968" lon="5.0748">
        <ele>361.13900756836</ele>
        <time>2010-12-11T14:56:21Z</time>
      </trkpt>
      <trkpt lat="45.25958" lon="5.07433">
        <ele>359.94100952148</ele>
        <time>2010-12-11T14:56:25Z</time>
      </trkpt>
      <trkpt lat="45.25954" lon="5.07384">
        <ele>358.89099121094</ele>
        <time>2010-12-11T14:56:29Z</time>
      </trkpt>
      <trkpt lat="45.25958" lon="5.0736">
        <ele>358.39300537109</ele>
        <time>2010-12-11T14:56:31Z</time>
      </trkpt>
      <trkpt lat="45.25964" lon="5.07336">
        <ele>357.46701049805</ele>
        <time>2010-12-11T14:56:33Z</time>
      </trkpt>
      <trkpt lat="45.25982" lon="5.07275">
        <ele>354.3210144043</ele>
        <time>2010-12-11T14:56:38Z</time>
      </trkpt>
      <trkpt lat="45.25999" lon="5.07218">
        <ele>352.83801269531</ele>
        <time>2010-12-11T14:56:43Z</time>
      </trkpt>
      <trkpt lat="45.26017" lon="5.07157">
        <ele>350.24301147461</ele>
        <time>2010-12-11T14:56:49Z</time>
      </trkpt>
      <trkpt lat="45.26031" lon="5.07123">
        <ele>348.24301147461</ele>
        <time>2010-12-11T14:56:52Z</time>
      </trkpt>
      <trkpt lat="45.26047" lon="5.07046">
        <ele>346.04501342773</ele>
        <time>2010-12-11T14:56:58Z</time>
      </trkpt>
      <trkpt lat="45.2606" lon="5.06984">
        <ele>344.3210144043</ele>
        <time>2010-12-11T14:57:03Z</time>
      </trkpt>
      <trkpt lat="45.26077" lon="5.06937">
        <ele>343.1369934082</ele>
        <time>2010-12-11T14:57:07Z</time>
      </trkpt>
      <trkpt lat="45.261" lon="5.06828">
        <ele>340.96600341797</ele>
        <time>2010-12-11T14:57:16Z</time>
      </trkpt>
      <trkpt lat="45.26111" lon="5.06781">
        <ele>339.4580078125</ele>
        <time>2010-12-11T14:57:20Z</time>
      </trkpt>
      <trkpt lat="45.26125" lon="5.0672">
        <ele>337.41598510742</ele>
        <time>2010-12-11T14:57:25Z</time>
      </trkpt>
      <trkpt lat="45.26138" lon="5.06634">
        <ele>335.84698486328</ele>
        <time>2010-12-11T14:57:32Z</time>
      </trkpt>
      <trkpt lat="45.26147" lon="5.06597">
        <ele>334.55801391602</ele>
        <time>2010-12-11T14:57:35Z</time>
      </trkpt>
      <trkpt lat="45.26164" lon="5.06533">
        <ele>331.68701171875</ele>
        <time>2010-12-11T14:57:40Z</time>
      </trkpt>
      <trkpt lat="45.26188" lon="5.06437">
        <ele>326.62298583984</ele>
        <time>2010-12-11T14:57:47Z</time>
      </trkpt>
      <trkpt lat="45.26191" lon="5.06422">
        <ele>325.59100341797</ele>
        <time>2010-12-11T14:57:48Z</time>
      </trkpt>
      <trkpt lat="45.26193" lon="5.06391">
        <ele>324.55200195312</ele>
        <time>2010-12-11T14:57:50Z</time>
      </trkpt>
      <trkpt lat="45.2619" lon="5.06362">
        <ele>324.14300537109</ele>
        <time>2010-12-11T14:57:52Z</time>
      </trkpt>
      <trkpt lat="45.26167" lon="5.06301">
        <ele>324.24301147461</ele>
        <time>2010-12-11T14:57:57Z</time>
      </trkpt>
      <trkpt lat="45.26153" lon="5.06259">
        <ele>325.72698974609</ele>
        <time>2010-12-11T14:58:01Z</time>
      </trkpt>
      <trkpt lat="45.26147" lon="5.06211">
        <ele>326.73599243164</ele>
        <time>2010-12-11T14:58:06Z</time>
      </trkpt>
      <trkpt lat="45.26141" lon="5.06152">
        <ele>327.4580078125</ele>
        <time>2010-12-11T14:58:13Z</time>
      </trkpt>
      <trkpt lat="45.26132" lon="5.06082">
        <ele>326.85598754883</ele>
        <time>2010-12-11T14:58:20Z</time>
      </trkpt>
      <trkpt lat="45.26116" lon="5.06039">
        <ele>326.58200073242</ele>
        <time>2010-12-11T14:58:25Z</time>
      </trkpt>
      <trkpt lat="45.26094" lon="5.05977">
        <ele>326.49301147461</ele>
        <time>2010-12-11T14:58:32Z</time>
      </trkpt>
      <trkpt lat="45.26069" lon="5.05898">
        <ele>326.27600097656</ele>
        <time>2010-12-11T14:58:41Z</time>
      </trkpt>
      <trkpt lat="45.26049" lon="5.05857">
        <ele>328.00100708008</ele>
        <time>2010-12-11T14:58:47Z</time>
      </trkpt>
      <trkpt lat="45.26043" lon="5.05845">
        <ele>328.74398803711</ele>
        <time>2010-12-11T14:58:49Z</time>
      </trkpt>
      <trkpt lat="45.26033" lon="5.05802">
        <ele>329.10101318359</ele>
        <time>2010-12-11T14:58:55Z</time>
      </trkpt>
      <trkpt lat="45.26017" lon="5.05735">
        <ele>330.58200073242</ele>
        <time>2010-12-11T14:59:04Z</time>
      </trkpt>
      <trkpt lat="45.25997" lon="5.05696">
        <ele>330.94900512695</ele>
        <time>2010-12-11T14:59:10Z</time>
      </trkpt>
      <trkpt lat="45.25967" lon="5.05642">
        <ele>330.87600708008</ele>
        <time>2010-12-11T14:59:18Z</time>
      </trkpt>
      <trkpt lat="45.25944" lon="5.05597">
        <ele>330.60299682617</ele>
        <time>2010-12-11T14:59:24Z</time>
      </trkpt>
      <trkpt lat="45.25921" lon="5.05537">
        <ele>329.59600830078</ele>
        <time>2010-12-11T14:59:31Z</time>
      </trkpt>
      <trkpt lat="45.25903" lon="5.05475">
        <ele>329.59201049805</ele>
        <time>2010-12-11T14:59:38Z</time>
      </trkpt>
      <trkpt lat="45.2589" lon="5.05408">
        <ele>328.79098510742</ele>
        <time>2010-12-11T14:59:45Z</time>
      </trkpt>
      <trkpt lat="45.25876" lon="5.05329">
        <ele>328.48901367188</ele>
        <time>2010-12-11T14:59:53Z</time>
      </trkpt>
      <trkpt lat="45.25872" lon="5.05301">
        <ele>328.1669921875</ele>
        <time>2010-12-11T14:59:56Z</time>
      </trkpt>
      <trkpt lat="45.2587" lon="5.05282">
        <ele>327.81201171875</ele>
        <time>2010-12-11T14:59:58Z</time>
      </trkpt>
      <trkpt lat="45.25874" lon="5.05242">
        <ele>327.61898803711</ele>
        <time>2010-12-11T15:00:02Z</time>
      </trkpt>
      <trkpt lat="45.25883" lon="5.05181">
        <ele>327.32000732422</ele>
        <time>2010-12-11T15:00:09Z</time>
      </trkpt>
      <trkpt lat="45.25882" lon="5.05121">
        <ele>327.14300537109</ele>
        <time>2010-12-11T15:00:15Z</time>
      </trkpt>
      <trkpt lat="45.25874" lon="5.05039">
        <ele>326.20999145508</ele>
        <time>2010-12-11T15:00:23Z</time>
      </trkpt>
      <trkpt lat="45.25858" lon="5.04993">
        <ele>325.03601074219</ele>
        <time>2010-12-11T15:00:28Z</time>
      </trkpt>
      <trkpt lat="45.25824" lon="5.04922">
        <ele>322.82699584961</ele>
        <time>2010-12-11T15:00:36Z</time>
      </trkpt>
      <trkpt lat="45.25801" lon="5.04869">
        <ele>323.61099243164</ele>
        <time>2010-12-11T15:00:42Z</time>
      </trkpt>
      <trkpt lat="45.25779" lon="5.04814">
        <ele>323.99099731445</ele>
        <time>2010-12-11T15:00:49Z</time>
      </trkpt>
      <trkpt lat="45.2575" lon="5.04748">
        <ele>322.9049987793</ele>
        <time>2010-12-11T15:00:57Z</time>
      </trkpt>
      <trkpt lat="45.2572" lon="5.04681">
        <ele>321.99700927734</ele>
        <time>2010-12-11T15:01:05Z</time>
      </trkpt>
      <trkpt lat="45.25689" lon="5.0461">
        <ele>320.95401000977</ele>
        <time>2010-12-11T15:01:13Z</time>
      </trkpt>
      <trkpt lat="45.25686" lon="5.04601">
        <ele>320.85998535156</ele>
        <time>2010-12-11T15:01:14Z</time>
      </trkpt>
      <trkpt lat="45.25668" lon="5.04506">
        <ele>318.94198608398</ele>
        <time>2010-12-11T15:01:23Z</time>
      </trkpt>
      <trkpt lat="45.2565" lon="5.04415">
        <ele>317.74301147461</ele>
        <time>2010-12-11T15:01:32Z</time>
      </trkpt>
      <trkpt lat="45.25632" lon="5.04328">
        <ele>317.14599609375</ele>
        <time>2010-12-11T15:01:40Z</time>
      </trkpt>
      <trkpt lat="45.25614" lon="5.04238">
        <ele>315.70300292969</ele>
        <time>2010-12-11T15:01:48Z</time>
      </trkpt>
      <trkpt lat="45.25595" lon="5.04142">
        <ele>314.53698730469</ele>
        <time>2010-12-11T15:01:56Z</time>
      </trkpt>
      <trkpt lat="45.25575" lon="5.0404">
        <ele>313.58200073242</ele>
        <time>2010-12-11T15:02:05Z</time>
      </trkpt>
      <trkpt lat="45.25559" lon="5.03961">
        <ele>312.72198486328</ele>
        <time>2010-12-11T15:02:12Z</time>
      </trkpt>
      <trkpt lat="45.25542" lon="5.0387">
        <ele>311.69100952148</ele>
        <time>2010-12-11T15:02:20Z</time>
      </trkpt>
      <trkpt lat="45.25524" lon="5.03775">
        <ele>310.63800048828</ele>
        <time>2010-12-11T15:02:28Z</time>
      </trkpt>
      <trkpt lat="45.25521" lon="5.03752">
        <ele>310.5119934082</ele>
        <time>2010-12-11T15:02:30Z</time>
      </trkpt>
      <trkpt lat="45.25517" lon="5.03704">
        <ele>309.57998657227</ele>
        <time>2010-12-11T15:02:34Z</time>
      </trkpt>
      <trkpt lat="45.25497" lon="5.03638">
        <ele>308.98001098633</ele>
        <time>2010-12-11T15:02:40Z</time>
      </trkpt>
      <trkpt lat="45.25476" lon="5.03573">
        <ele>308.3630065918</ele>
        <time>2010-12-11T15:02:46Z</time>
      </trkpt>
      <trkpt lat="45.25456" lon="5.03493">
        <ele>307.22601318359</ele>
        <time>2010-12-11T15:02:53Z</time>
      </trkpt>
      <trkpt lat="45.25435" lon="5.03424">
        <ele>306.72198486328</ele>
        <time>2010-12-11T15:02:59Z</time>
      </trkpt>
      <trkpt lat="45.25406" lon="5.03359">
        <ele>305.99200439453</ele>
        <time>2010-12-11T15:03:05Z</time>
      </trkpt>
      <trkpt lat="45.25396" lon="5.03339">
        <ele>305.70001220703</ele>
        <time>2010-12-11T15:03:07Z</time>
      </trkpt>
      <trkpt lat="45.25373" lon="5.03287">
        <ele>305.55801391602</ele>
        <time>2010-12-11T15:03:12Z</time>
      </trkpt>
      <trkpt lat="45.25341" lon="5.03244">
        <ele>305.13400268555</ele>
        <time>2010-12-11T15:03:18Z</time>
      </trkpt>
      <trkpt lat="45.25321" lon="5.03222">
        <ele>304.74200439453</ele>
        <time>2010-12-11T15:03:22Z</time>
      </trkpt>
      <trkpt lat="45.25307" lon="5.03194">
        <ele>304.22601318359</ele>
        <time>2010-12-11T15:03:26Z</time>
      </trkpt>
      <trkpt lat="45.25297" lon="5.03161">
        <ele>303.85198974609</ele>
        <time>2010-12-11T15:03:32Z</time>
      </trkpt>
      <trkpt lat="45.25285" lon="5.03164">
        <ele>303.65100097656</ele>
        <time>2010-12-11T15:03:36Z</time>
      </trkpt>
      <trkpt lat="45.25267" lon="5.03186">
        <ele>304.29299926758</ele>
        <time>2010-12-11T15:03:43Z</time>
      </trkpt>
      <trkpt lat="45.25245" lon="5.03207">
        <ele>305.17199707031</ele>
        <time>2010-12-11T15:03:50Z</time>
      </trkpt>
      <trkpt lat="45.25228" lon="5.03224">
        <ele>305.07901000977</ele>
        <time>2010-12-11T15:03:55Z</time>
      </trkpt>
      <trkpt lat="45.25202" lon="5.03237">
        <ele>306.31799316406</ele>
        <time>2010-12-11T15:04:02Z</time>
      </trkpt>
      <trkpt lat="45.25177" lon="5.03238">
        <ele>307.57800292969</ele>
        <time>2010-12-11T15:04:09Z</time>
      </trkpt>
      <trkpt lat="45.25149" lon="5.03239">
        <ele>309.48199462891</ele>
        <time>2010-12-11T15:04:17Z</time>
      </trkpt>
      <trkpt lat="45.25132" lon="5.03248">
        <ele>310.53100585938</ele>
        <time>2010-12-11T15:04:23Z</time>
      </trkpt>
      <trkpt lat="45.25124" lon="5.03256">
        <ele>311.13400268555</ele>
        <time>2010-12-11T15:04:26Z</time>
      </trkpt>
      <trkpt lat="45.2511" lon="5.03277">
        <ele>313.15798950195</ele>
        <time>2010-12-11T15:04:33Z</time>
      </trkpt>
      <trkpt lat="45.25097" lon="5.03303">
        <ele>314.76098632812</ele>
        <time>2010-12-11T15:04:41Z</time>
      </trkpt>
      <trkpt lat="45.25087" lon="5.0333">
        <ele>316.6780090332</ele>
        <time>2010-12-11T15:04:49Z</time>
      </trkpt>
      <trkpt lat="45.25081" lon="5.03365">
        <ele>318.78601074219</ele>
        <time>2010-12-11T15:04:58Z</time>
      </trkpt>
      <trkpt lat="45.25078" lon="5.03391">
        <ele>320.56500244141</ele>
        <time>2010-12-11T15:05:05Z</time>
      </trkpt>
      <trkpt lat="45.25075" lon="5.0342">
        <ele>322.80599975586</ele>
        <time>2010-12-11T15:05:13Z</time>
      </trkpt>
      <trkpt lat="45.25072" lon="5.0344">
        <ele>323.43798828125</ele>
        <time>2010-12-11T15:05:19Z</time>
      </trkpt>
      <trkpt lat="45.25071" lon="5.03468">
        <ele>324.74798583984</ele>
        <time>2010-12-11T15:05:27Z</time>
      </trkpt>
      <trkpt lat="45.2507" lon="5.03499">
        <ele>326.14001464844</ele>
        <time>2010-12-11T15:05:35Z</time>
      </trkpt>
      <trkpt lat="45.25069" lon="5.0353">
        <ele>327.71600341797</ele>
        <time>2010-12-11T15:05:43Z</time>
      </trkpt>
      <trkpt lat="45.25069" lon="5.0354">
        <ele>328.39199829102</ele>
        <time>2010-12-11T15:05:46Z</time>
      </trkpt>
      <trkpt lat="45.25068" lon="5.03565">
        <ele>329.87799072266</ele>
        <time>2010-12-11T15:05:53Z</time>
      </trkpt>
      <trkpt lat="45.25068" lon="5.03587">
        <ele>331.375</ele>
        <time>2010-12-11T15:05:59Z</time>
      </trkpt>
      <trkpt lat="45.25067" lon="5.03607">
        <ele>331.79800415039</ele>
        <time>2010-12-11T15:06:04Z</time>
      </trkpt>
      <trkpt lat="45.25066" lon="5.03636">
        <ele>332.78100585938</ele>
        <time>2010-12-11T15:06:11Z</time>
      </trkpt>
      <trkpt lat="45.25063" lon="5.03672">
        <ele>333.6969909668</ele>
        <time>2010-12-11T15:06:19Z</time>
      </trkpt>
      <trkpt lat="45.2506" lon="5.03704">
        <ele>334.99200439453</ele>
        <time>2010-12-11T15:06:26Z</time>
      </trkpt>
      <trkpt lat="45.25059" lon="5.03708">
        <ele>335.32501220703</ele>
        <time>2010-12-11T15:06:27Z</time>
      </trkpt>
      <trkpt lat="45.25055" lon="5.03737">
        <ele>336.83700561523</ele>
        <time>2010-12-11T15:06:34Z</time>
      </trkpt>
      <trkpt lat="45.25051" lon="5.03765">
        <ele>337.95300292969</ele>
        <time>2010-12-11T15:06:41Z</time>
      </trkpt>
      <trkpt lat="45.25047" lon="5.03794">
        <ele>339.61401367188</ele>
        <time>2010-12-11T15:06:48Z</time>
      </trkpt>
      <trkpt lat="45.25042" lon="5.03827">
        <ele>341.32400512695</ele>
        <time>2010-12-11T15:06:56Z</time>
      </trkpt>
      <trkpt lat="45.2504" lon="5.03852">
        <ele>342.86700439453</ele>
        <time>2010-12-11T15:07:02Z</time>
      </trkpt>
      <trkpt lat="45.25035" lon="5.03885">
        <ele>344.84298706055</ele>
        <time>2010-12-11T15:07:10Z</time>
      </trkpt>
      <trkpt lat="45.25032" lon="5.03905">
        <ele>345.63900756836</ele>
        <time>2010-12-11T15:07:15Z</time>
      </trkpt>
      <trkpt lat="45.25026" lon="5.03933">
        <ele>346.35998535156</ele>
        <time>2010-12-11T15:07:21Z</time>
      </trkpt>
      <trkpt lat="45.2502" lon="5.03965">
        <ele>347.95300292969</ele>
        <time>2010-12-11T15:07:28Z</time>
      </trkpt>
      <trkpt lat="45.25019" lon="5.03974">
        <ele>348.84899902344</ele>
        <time>2010-12-11T15:07:30Z</time>
      </trkpt>
      <trkpt lat="45.25018" lon="5.03979">
        <ele>349.03100585938</ele>
        <time>2010-12-11T15:07:31Z</time>
      </trkpt>
      <trkpt lat="45.25018" lon="5.03984">
        <ele>349.37600708008</ele>
        <time>2010-12-11T15:07:32Z</time>
      </trkpt>
      <trkpt lat="45.25016" lon="5.04015">
        <ele>350.69400024414</ele>
        <time>2010-12-11T15:07:38Z</time>
      </trkpt>
      <trkpt lat="45.25014" lon="5.04064">
        <ele>351.67199707031</ele>
        <time>2010-12-11T15:07:47Z</time>
      </trkpt>
      <trkpt lat="45.25013" lon="5.04075">
        <ele>351.83099365234</ele>
        <time>2010-12-11T15:07:49Z</time>
      </trkpt>
      <trkpt lat="45.25011" lon="5.0412">
        <ele>352.51901245117</ele>
        <time>2010-12-11T15:07:57Z</time>
      </trkpt>
      <trkpt lat="45.25011" lon="5.04145">
        <ele>353.67700195312</ele>
        <time>2010-12-11T15:08:02Z</time>
      </trkpt>
      <trkpt lat="45.2501" lon="5.04149">
        <ele>353.85101318359</ele>
        <time>2010-12-11T15:08:03Z</time>
      </trkpt>
      <trkpt lat="45.25009" lon="5.04187">
        <ele>355.15100097656</ele>
        <time>2010-12-11T15:08:11Z</time>
      </trkpt>
      <trkpt lat="45.25006" lon="5.04221">
        <ele>355.95098876953</ele>
        <time>2010-12-11T15:08:18Z</time>
      </trkpt>
      <trkpt lat="45.25003" lon="5.04244">
        <ele>356.98400878906</ele>
        <time>2010-12-11T15:08:23Z</time>
      </trkpt>
      <trkpt lat="45.24999" lon="5.04279">
        <ele>358.50100708008</ele>
        <time>2010-12-11T15:08:30Z</time>
      </trkpt>
      <trkpt lat="45.24996" lon="5.04309">
        <ele>359.80700683594</ele>
        <time>2010-12-11T15:08:36Z</time>
      </trkpt>
      <trkpt lat="45.24995" lon="5.04314">
        <ele>359.96899414062</ele>
        <time>2010-12-11T15:08:37Z</time>
      </trkpt>
      <trkpt lat="45.24993" lon="5.04352">
        <ele>361.30899047852</ele>
        <time>2010-12-11T15:08:44Z</time>
      </trkpt>
      <trkpt lat="45.24992" lon="5.04384">
        <ele>362.85101318359</ele>
        <time>2010-12-11T15:08:49Z</time>
      </trkpt>
      <trkpt lat="45.24996" lon="5.04424">
        <ele>362.81600952148</ele>
        <time>2010-12-11T15:08:55Z</time>
      </trkpt>
      <trkpt lat="45.25002" lon="5.04474">
        <ele>362.89199829102</ele>
        <time>2010-12-11T15:09:01Z</time>
      </trkpt>
      <trkpt lat="45.25018" lon="5.04533">
        <ele>363.89898681641</ele>
        <time>2010-12-11T15:09:08Z</time>
      </trkpt>
      <trkpt lat="45.2503" lon="5.04574">
        <ele>364.09698486328</ele>
        <time>2010-12-11T15:09:13Z</time>
      </trkpt>
      <trkpt lat="45.25048" lon="5.0461">
        <ele>365.13400268555</ele>
        <time>2010-12-11T15:09:18Z</time>
      </trkpt>
      <trkpt lat="45.25058" lon="5.04652">
        <ele>366.08401489258</ele>
        <time>2010-12-11T15:09:23Z</time>
      </trkpt>
      <trkpt lat="45.25058" lon="5.04677">
        <ele>367.13101196289</ele>
        <time>2010-12-11T15:09:26Z</time>
      </trkpt>
      <trkpt lat="45.25048" lon="5.04715">
        <ele>368.41400146484</ele>
        <time>2010-12-11T15:09:31Z</time>
      </trkpt>
      <trkpt lat="45.25022" lon="5.04774">
        <ele>370.73699951172</ele>
        <time>2010-12-11T15:09:40Z</time>
      </trkpt>
      <trkpt lat="45.24994" lon="5.04816">
        <ele>370.89999389648</ele>
        <time>2010-12-11T15:09:47Z</time>
      </trkpt>
      <trkpt lat="45.24961" lon="5.04842">
        <ele>371.61199951172</ele>
        <time>2010-12-11T15:09:53Z</time>
      </trkpt>
      <trkpt lat="45.24926" lon="5.04859">
        <ele>373.14599609375</ele>
        <time>2010-12-11T15:09:59Z</time>
      </trkpt>
      <trkpt lat="45.24921" lon="5.04863">
        <ele>373.39401245117</ele>
        <time>2010-12-11T15:10:00Z</time>
      </trkpt>
      <trkpt lat="45.24906" lon="5.0488">
        <ele>374.14898681641</ele>
        <time>2010-12-11T15:10:03Z</time>
      </trkpt>
      <trkpt lat="45.24902" lon="5.04887">
        <ele>374.29000854492</ele>
        <time>2010-12-11T15:10:04Z</time>
      </trkpt>
      <trkpt lat="45.24893" lon="5.0492">
        <ele>374.25100708008</ele>
        <time>2010-12-11T15:10:08Z</time>
      </trkpt>
      <trkpt lat="45.24879" lon="5.04993">
        <ele>373.53100585938</ele>
        <time>2010-12-11T15:10:16Z</time>
      </trkpt>
      <trkpt lat="45.24877" lon="5.05002">
        <ele>373.39300537109</ele>
        <time>2010-12-11T15:10:17Z</time>
      </trkpt>
      <trkpt lat="45.24862" lon="5.05043">
        <ele>373.47799682617</ele>
        <time>2010-12-11T15:10:22Z</time>
      </trkpt>
      <trkpt lat="45.24834" lon="5.05109">
        <ele>373.93301391602</ele>
        <time>2010-12-11T15:10:30Z</time>
      </trkpt>
      <trkpt lat="45.24826" lon="5.05126">
        <ele>374.10000610352</ele>
        <time>2010-12-11T15:10:32Z</time>
      </trkpt>
      <trkpt lat="45.24815" lon="5.05168">
        <ele>375.42999267578</ele>
        <time>2010-12-11T15:10:37Z</time>
      </trkpt>
      <trkpt lat="45.24815" lon="5.05176">
        <ele>375.95300292969</ele>
        <time>2010-12-11T15:10:38Z</time>
      </trkpt>
      <trkpt lat="45.24812" lon="5.05227">
        <ele>378.06500244141</ele>
        <time>2010-12-11T15:10:45Z</time>
      </trkpt>
      <trkpt lat="45.248" lon="5.0527">
        <ele>379.20599365234</ele>
        <time>2010-12-11T15:10:51Z</time>
      </trkpt>
      <trkpt lat="45.24778" lon="5.05307">
        <ele>380.13800048828</ele>
        <time>2010-12-11T15:10:57Z</time>
      </trkpt>
      <trkpt lat="45.24752" lon="5.05349">
        <ele>381.34100341797</ele>
        <time>2010-12-11T15:11:04Z</time>
      </trkpt>
      <trkpt lat="45.24718" lon="5.0539">
        <ele>382.76599121094</ele>
        <time>2010-12-11T15:11:12Z</time>
      </trkpt>
      <trkpt lat="45.24683" lon="5.05417">
        <ele>384.33099365234</ele>
        <time>2010-12-11T15:11:19Z</time>
      </trkpt>
      <trkpt lat="45.24652" lon="5.05435">
        <ele>386.22399902344</ele>
        <time>2010-12-11T15:11:25Z</time>
      </trkpt>
      <trkpt lat="45.24637" lon="5.05462">
        <ele>387.50100708008</ele>
        <time>2010-12-11T15:11:30Z</time>
      </trkpt>
      <trkpt lat="45.24634" lon="5.05475">
        <ele>388.35400390625</ele>
        <time>2010-12-11T15:11:32Z</time>
      </trkpt>
      <trkpt lat="45.2463" lon="5.05518">
        <ele>390.9700012207</ele>
        <time>2010-12-11T15:11:39Z</time>
      </trkpt>
      <trkpt lat="45.24628" lon="5.05557">
        <ele>392.93798828125</ele>
        <time>2010-12-11T15:11:46Z</time>
      </trkpt>
      <trkpt lat="45.2463" lon="5.05579">
        <ele>394.36499023438</ele>
        <time>2010-12-11T15:11:50Z</time>
      </trkpt>
      <trkpt lat="45.24633" lon="5.05611">
        <ele>396.49398803711</ele>
        <time>2010-12-11T15:11:57Z</time>
      </trkpt>
      <trkpt lat="45.24634" lon="5.05631">
        <ele>397.76699829102</ele>
        <time>2010-12-11T15:12:02Z</time>
      </trkpt>
      <trkpt lat="45.24631" lon="5.05656">
        <ele>398.99301147461</ele>
        <time>2010-12-11T15:12:08Z</time>
      </trkpt>
      <trkpt lat="45.24628" lon="5.0567">
        <ele>400.3450012207</ele>
        <time>2010-12-11T15:12:12Z</time>
      </trkpt>
      <trkpt lat="45.24623" lon="5.05689">
        <ele>401.45700073242</ele>
        <time>2010-12-11T15:12:18Z</time>
      </trkpt>
      <trkpt lat="45.24614" lon="5.0571">
        <ele>402.61898803711</ele>
        <time>2010-12-11T15:12:24Z</time>
      </trkpt>
      <trkpt lat="45.24605" lon="5.05737">
        <ele>404.36199951172</ele>
        <time>2010-12-11T15:12:32Z</time>
      </trkpt>
      <trkpt lat="45.24596" lon="5.05759">
        <ele>406.02301025391</ele>
        <time>2010-12-11T15:12:39Z</time>
      </trkpt>
      <trkpt lat="45.2459" lon="5.05777">
        <ele>406.92300415039</ele>
        <time>2010-12-11T15:12:44Z</time>
      </trkpt>
      <trkpt lat="45.24588" lon="5.05781">
        <ele>407.38000488281</ele>
        <time>2010-12-11T15:12:45Z</time>
      </trkpt>
      <trkpt lat="45.24579" lon="5.05812">
        <ele>409.01000976562</ele>
        <time>2010-12-11T15:12:53Z</time>
      </trkpt>
      <trkpt lat="45.24578" lon="5.05815">
        <ele>409.15100097656</ele>
        <time>2010-12-11T15:12:54Z</time>
      </trkpt>
      <trkpt lat="45.24577" lon="5.05819">
        <ele>409.46200561523</ele>
        <time>2010-12-11T15:12:55Z</time>
      </trkpt>
      <trkpt lat="45.24574" lon="5.05831">
        <ele>410.45498657227</ele>
        <time>2010-12-11T15:12:58Z</time>
      </trkpt>
      <trkpt lat="45.24573" lon="5.05835">
        <ele>410.5950012207</ele>
        <time>2010-12-11T15:12:59Z</time>
      </trkpt>
      <trkpt lat="45.24561" lon="5.05866">
        <ele>412.73599243164</ele>
        <time>2010-12-11T15:13:06Z</time>
      </trkpt>
      <trkpt lat="45.24551" lon="5.05891">
        <ele>414.48498535156</ele>
        <time>2010-12-11T15:13:12Z</time>
      </trkpt>
      <trkpt lat="45.24538" lon="5.05915">
        <ele>416.02200317383</ele>
        <time>2010-12-11T15:13:19Z</time>
      </trkpt>
      <trkpt lat="45.24529" lon="5.05939">
        <ele>417.52099609375</ele>
        <time>2010-12-11T15:13:26Z</time>
      </trkpt>
      <trkpt lat="45.24523" lon="5.05953">
        <ele>418.51599121094</ele>
        <time>2010-12-11T15:13:30Z</time>
      </trkpt>
      <trkpt lat="45.24522" lon="5.05956">
        <ele>418.76599121094</ele>
        <time>2010-12-11T15:13:31Z</time>
      </trkpt>
      <trkpt lat="45.2452" lon="5.05959">
        <ele>418.89300537109</ele>
        <time>2010-12-11T15:13:32Z</time>
      </trkpt>
      <trkpt lat="45.24509" lon="5.05981">
        <ele>420.45300292969</ele>
        <time>2010-12-11T15:13:39Z</time>
      </trkpt>
      <trkpt lat="45.24495" lon="5.06009">
        <ele>421.84201049805</ele>
        <time>2010-12-11T15:13:47Z</time>
      </trkpt>
      <trkpt lat="45.24488" lon="5.06023">
        <ele>422.80200195312</ele>
        <time>2010-12-11T15:13:51Z</time>
      </trkpt>
      <trkpt lat="45.24475" lon="5.06048">
        <ele>424.82299804688</ele>
        <time>2010-12-11T15:13:58Z</time>
      </trkpt>
      <trkpt lat="45.2446" lon="5.06075">
        <ele>426.34201049805</ele>
        <time>2010-12-11T15:14:05Z</time>
      </trkpt>
      <trkpt lat="45.24453" lon="5.0609">
        <ele>427.45199584961</ele>
        <time>2010-12-11T15:14:09Z</time>
      </trkpt>
      <trkpt lat="45.24442" lon="5.06111">
        <ele>429.0830078125</ele>
        <time>2010-12-11T15:14:15Z</time>
      </trkpt>
      <trkpt lat="45.24431" lon="5.06132">
        <ele>430.42401123047</ele>
        <time>2010-12-11T15:14:21Z</time>
      </trkpt>
      <trkpt lat="45.24421" lon="5.06152">
        <ele>432.10998535156</ele>
        <time>2010-12-11T15:14:27Z</time>
      </trkpt>
      <trkpt lat="45.24408" lon="5.06176">
        <ele>433.66400146484</ele>
        <time>2010-12-11T15:14:34Z</time>
      </trkpt>
      <trkpt lat="45.24397" lon="5.06198">
        <ele>435.41598510742</ele>
        <time>2010-12-11T15:14:40Z</time>
      </trkpt>
      <trkpt lat="45.24386" lon="5.06222">
        <ele>437.3630065918</ele>
        <time>2010-12-11T15:14:47Z</time>
      </trkpt>
      <trkpt lat="45.24372" lon="5.06241">
        <ele>439.08099365234</ele>
        <time>2010-12-11T15:14:53Z</time>
      </trkpt>
      <trkpt lat="45.24368" lon="5.06243">
        <ele>439.57598876953</ele>
        <time>2010-12-11T15:14:54Z</time>
      </trkpt>
      <trkpt lat="45.24358" lon="5.06239">
        <ele>441.39599609375</ele>
        <time>2010-12-11T15:14:58Z</time>
      </trkpt>
      <trkpt lat="45.24349" lon="5.0622">
        <ele>442.68399047852</ele>
        <time>2010-12-11T15:15:04Z</time>
      </trkpt>
      <trkpt lat="45.24335" lon="5.06192">
        <ele>443.93399047852</ele>
        <time>2010-12-11T15:15:12Z</time>
      </trkpt>
      <trkpt lat="45.24328" lon="5.06176">
        <ele>444.70999145508</ele>
        <time>2010-12-11T15:15:17Z</time>
      </trkpt>
      <trkpt lat="45.24319" lon="5.06156">
        <ele>446.0719909668</ele>
        <time>2010-12-11T15:15:24Z</time>
      </trkpt>
      <trkpt lat="45.24311" lon="5.06138">
        <ele>447.14001464844</ele>
        <time>2010-12-11T15:15:30Z</time>
      </trkpt>
      <trkpt lat="45.24308" lon="5.06132">
        <ele>447.57699584961</ele>
        <time>2010-12-11T15:15:32Z</time>
      </trkpt>
      <trkpt lat="45.24297" lon="5.06114">
        <ele>448.49200439453</ele>
        <time>2010-12-11T15:15:39Z</time>
      </trkpt>
      <trkpt lat="45.24294" lon="5.06109">
        <ele>449.03601074219</ele>
        <time>2010-12-11T15:15:41Z</time>
      </trkpt>
      <trkpt lat="45.24289" lon="5.06103">
        <ele>449.3219909668</ele>
        <time>2010-12-11T15:15:43Z</time>
      </trkpt>
      <trkpt lat="45.24287" lon="5.06101">
        <ele>449.38800048828</ele>
        <time>2010-12-11T15:15:44Z</time>
      </trkpt>
      <trkpt lat="45.24285" lon="5.06098">
        <ele>449.53900146484</ele>
        <time>2010-12-11T15:15:45Z</time>
      </trkpt>
      <trkpt lat="45.24283" lon="5.06096">
        <ele>449.80499267578</ele>
        <time>2010-12-11T15:15:46Z</time>
      </trkpt>
      <trkpt lat="45.24274" lon="5.06083">
        <ele>450.36199951172</ele>
        <time>2010-12-11T15:15:51Z</time>
      </trkpt>
      <trkpt lat="45.24268" lon="5.06073">
        <ele>450.76098632812</ele>
        <time>2010-12-11T15:15:55Z</time>
      </trkpt>
      <trkpt lat="45.24256" lon="5.06057">
        <ele>450.92700195312</ele>
        <time>2010-12-11T15:16:01Z</time>
      </trkpt>
      <trkpt lat="45.2423" lon="5.06031">
        <ele>451.74301147461</ele>
        <time>2010-12-11T15:16:11Z</time>
      </trkpt>
      <trkpt lat="45.24215" lon="5.06014">
        <ele>452.37701416016</ele>
        <time>2010-12-11T15:16:17Z</time>
      </trkpt>
      <trkpt lat="45.24199" lon="5.05993">
        <ele>453.58200073242</ele>
        <time>2010-12-11T15:16:24Z</time>
      </trkpt>
      <trkpt lat="45.24184" lon="5.05974">
        <ele>454.94799804688</ele>
        <time>2010-12-11T15:16:31Z</time>
      </trkpt>
      <trkpt lat="45.24168" lon="5.05955">
        <ele>456.55099487305</ele>
        <time>2010-12-11T15:16:39Z</time>
      </trkpt>
      <trkpt lat="45.24155" lon="5.05939">
        <ele>457.87600708008</ele>
        <time>2010-12-11T15:16:46Z</time>
      </trkpt>
      <trkpt lat="45.24137" lon="5.05921">
        <ele>459.29400634766</ele>
        <time>2010-12-11T15:16:54Z</time>
      </trkpt>
      <trkpt lat="45.24116" lon="5.05908">
        <ele>460.79299926758</ele>
        <time>2010-12-11T15:17:02Z</time>
      </trkpt>
      <trkpt lat="45.24094" lon="5.05907">
        <ele>461.9700012207</ele>
        <time>2010-12-11T15:17:09Z</time>
      </trkpt>
      <trkpt lat="45.24072" lon="5.05912">
        <ele>463.41299438477</ele>
        <time>2010-12-11T15:17:16Z</time>
      </trkpt>
      <trkpt lat="45.24049" lon="5.0592">
        <ele>464.97299194336</ele>
        <time>2010-12-11T15:17:24Z</time>
      </trkpt>
      <trkpt lat="45.24027" lon="5.05927">
        <ele>466.93798828125</ele>
        <time>2010-12-11T15:17:32Z</time>
      </trkpt>
      <trkpt lat="45.24004" lon="5.05939">
        <ele>468.63198852539</ele>
        <time>2010-12-11T15:17:39Z</time>
      </trkpt>
      <trkpt lat="45.23977" lon="5.05954">
        <ele>470.64001464844</ele>
        <time>2010-12-11T15:17:46Z</time>
      </trkpt>
      <trkpt lat="45.23956" lon="5.05972">
        <ele>472.57400512695</ele>
        <time>2010-12-11T15:17:53Z</time>
      </trkpt>
      <trkpt lat="45.23936" lon="5.05994">
        <ele>474.43499755859</ele>
        <time>2010-12-11T15:18:00Z</time>
      </trkpt>
      <trkpt lat="45.23918" lon="5.06018">
        <ele>476.53100585938</ele>
        <time>2010-12-11T15:18:08Z</time>
      </trkpt>
      <trkpt lat="45.23907" lon="5.06035">
        <ele>478.01800537109</ele>
        <time>2010-12-11T15:18:13Z</time>
      </trkpt>
      <trkpt lat="45.23894" lon="5.06061">
        <ele>479.83401489258</ele>
        <time>2010-12-11T15:18:20Z</time>
      </trkpt>
      <trkpt lat="45.23883" lon="5.0609">
        <ele>481.23400878906</ele>
        <time>2010-12-11T15:18:27Z</time>
      </trkpt>
      <trkpt lat="45.23874" lon="5.06115">
        <ele>482.89099121094</ele>
        <time>2010-12-11T15:18:33Z</time>
      </trkpt>
      <trkpt lat="45.23861" lon="5.06139">
        <ele>484.22500610352</ele>
        <time>2010-12-11T15:18:39Z</time>
      </trkpt>
      <trkpt lat="45.23841" lon="5.06167">
        <ele>484.69500732422</ele>
        <time>2010-12-11T15:18:46Z</time>
      </trkpt>
      <trkpt lat="45.23829" lon="5.06203">
        <ele>485.46200561523</ele>
        <time>2010-12-11T15:18:53Z</time>
      </trkpt>
      <trkpt lat="45.23825" lon="5.06221">
        <ele>485.70300292969</ele>
        <time>2010-12-11T15:18:56Z</time>
      </trkpt>
      <trkpt lat="45.23823" lon="5.06234">
        <ele>485.90701293945</ele>
        <time>2010-12-11T15:18:58Z</time>
      </trkpt>
      <trkpt lat="45.23811" lon="5.06264">
        <ele>486.15200805664</ele>
        <time>2010-12-11T15:19:03Z</time>
      </trkpt>
      <trkpt lat="45.238" lon="5.06275">
        <ele>486.81399536133</ele>
        <time>2010-12-11T15:19:06Z</time>
      </trkpt>
      <trkpt lat="45.23762" lon="5.06297">
        <ele>488.44100952148</ele>
        <time>2010-12-11T15:19:15Z</time>
      </trkpt>
      <trkpt lat="45.23732" lon="5.06317">
        <ele>488.02499389648</ele>
        <time>2010-12-11T15:19:23Z</time>
      </trkpt>
      <trkpt lat="45.23698" lon="5.06335">
        <ele>487.90301513672</ele>
        <time>2010-12-11T15:19:30Z</time>
      </trkpt>
      <trkpt lat="45.23674" lon="5.06335">
        <ele>487.23199462891</ele>
        <time>2010-12-11T15:19:34Z</time>
      </trkpt>
      <trkpt lat="45.23658" lon="5.06314">
        <ele>487.62600708008</ele>
        <time>2010-12-11T15:19:38Z</time>
      </trkpt>
      <trkpt lat="45.23629" lon="5.06259">
        <ele>488.36499023438</ele>
        <time>2010-12-11T15:19:47Z</time>
      </trkpt>
      <trkpt lat="45.23621" lon="5.06242">
        <ele>488.17999267578</ele>
        <time>2010-12-11T15:19:50Z</time>
      </trkpt>
      <trkpt lat="45.23597" lon="5.06204">
        <ele>487.79598999023</ele>
        <time>2010-12-11T15:19:57Z</time>
      </trkpt>
      <trkpt lat="45.23589" lon="5.06183">
        <ele>487.79501342773</ele>
        <time>2010-12-11T15:20:01Z</time>
      </trkpt>
      <trkpt lat="45.23584" lon="5.06185">
        <ele>487.78399658203</ele>
        <time>2010-12-11T15:20:04Z</time>
      </trkpt>
      <trkpt lat="45.23586" lon="5.06198">
        <ele>487.81600952148</ele>
        <time>2010-12-11T15:20:10Z</time>
      </trkpt>
      <trkpt lat="45.23589" lon="5.06197">
        <ele>487.91101074219</ele>
        <time>2010-12-11T15:20:12Z</time>
      </trkpt>
      <trkpt lat="45.23592" lon="5.06193">
        <ele>488.10000610352</ele>
        <time>2010-12-11T15:20:15Z</time>
      </trkpt>
      <trkpt lat="45.23589" lon="5.06184">
        <ele>488.08898925781</ele>
        <time>2010-12-11T15:20:20Z</time>
      </trkpt>
      <trkpt lat="45.23586" lon="5.06184">
        <ele>488.12298583984</ele>
        <time>2010-12-11T15:20:22Z</time>
      </trkpt>
      <trkpt lat="45.23582" lon="5.06185">
        <ele>487.97601318359</ele>
        <time>2010-12-11T15:20:26Z</time>
      </trkpt>
      <trkpt lat="45.2357" lon="5.06179">
        <ele>487.48999023438</ele>
        <time>2010-12-11T15:21:09Z</time>
      </trkpt>
      <trkpt lat="45.2356" lon="5.0616">
        <ele>486.95300292969</ele>
        <time>2010-12-11T15:21:15Z</time>
      </trkpt>
      <trkpt lat="45.23545" lon="5.06134">
        <ele>486.5</ele>
        <time>2010-12-11T15:21:22Z</time>
      </trkpt>
      <trkpt lat="45.2354" lon="5.06125">
        <ele>486.14300537109</ele>
        <time>2010-12-11T15:21:27Z</time>
      </trkpt>
      <trkpt lat="45.2354" lon="5.06125">
        <ele>486.13400268555</ele>
        <time>2010-12-11T15:21:28Z</time>
      </trkpt>
      <trkpt lat="45.23538" lon="5.0612">
        <ele>485.67098999023</ele>
        <time>2010-12-11T15:24:25Z</time>
      </trkpt>
      <trkpt lat="45.23537" lon="5.06118">
        <ele>485.53799438477</ele>
        <time>2010-12-11T15:24:26Z</time>
      </trkpt>
      <trkpt lat="45.23525" lon="5.06103">
        <ele>484.73199462891</ele>
        <time>2010-12-11T15:24:31Z</time>
      </trkpt>
      <trkpt lat="45.23522" lon="5.06099">
        <ele>484.51000976562</ele>
        <time>2010-12-11T15:24:32Z</time>
      </trkpt>
      <trkpt lat="45.235" lon="5.06076">
        <ele>482.65899658203</ele>
        <time>2010-12-11T15:24:37Z</time>
      </trkpt>
      <trkpt lat="45.23475" lon="5.06049">
        <ele>479.31500244141</ele>
        <time>2010-12-11T15:24:41Z</time>
      </trkpt>
      <trkpt lat="45.23454" lon="5.06007">
        <ele>475.73901367188</ele>
        <time>2010-12-11T15:24:45Z</time>
      </trkpt>
      <trkpt lat="45.23426" lon="5.0594">
        <ele>471.40301513672</ele>
        <time>2010-12-11T15:24:50Z</time>
      </trkpt>
      <trkpt lat="45.23382" lon="5.05878">
        <ele>466.56600952148</ele>
        <time>2010-12-11T15:24:55Z</time>
      </trkpt>
      <trkpt lat="45.23326" lon="5.05784">
        <ele>459.86401367188</ele>
        <time>2010-12-11T15:25:02Z</time>
      </trkpt>
      <trkpt lat="45.23303" lon="5.0574">
        <ele>456.98199462891</ele>
        <time>2010-12-11T15:25:05Z</time>
      </trkpt>
      <trkpt lat="45.23273" lon="5.05717">
        <ele>455.12701416016</ele>
        <time>2010-12-11T15:25:08Z</time>
      </trkpt>
      <trkpt lat="45.23254" lon="5.05729">
        <ele>453.06500244141</ele>
        <time>2010-12-11T15:25:10Z</time>
      </trkpt>
      <trkpt lat="45.23247" lon="5.05745">
        <ele>452.8219909668</ele>
        <time>2010-12-11T15:25:11Z</time>
      </trkpt>
      <trkpt lat="45.23241" lon="5.0576">
        <ele>452.6669921875</ele>
        <time>2010-12-11T15:25:12Z</time>
      </trkpt>
      <trkpt lat="45.23231" lon="5.05789">
        <ele>450.91500854492</ele>
        <time>2010-12-11T15:25:14Z</time>
      </trkpt>
      <trkpt lat="45.23196" lon="5.05833">
        <ele>446.90200805664</ele>
        <time>2010-12-11T15:25:18Z</time>
      </trkpt>
      <trkpt lat="45.23139" lon="5.05871">
        <ele>442.75601196289</ele>
        <time>2010-12-11T15:25:23Z</time>
      </trkpt>
      <trkpt lat="45.2305" lon="5.05912">
        <ele>436.14999389648</ele>
        <time>2010-12-11T15:25:30Z</time>
      </trkpt>
      <trkpt lat="45.22968" lon="5.05947">
        <ele>431.50698852539</ele>
        <time>2010-12-11T15:25:36Z</time>
      </trkpt>
      <trkpt lat="45.22939" lon="5.05953">
        <ele>428.46701049805</ele>
        <time>2010-12-11T15:25:38Z</time>
      </trkpt>
      <trkpt lat="45.22865" lon="5.05945">
        <ele>422.47399902344</ele>
        <time>2010-12-11T15:25:43Z</time>
      </trkpt>
      <trkpt lat="45.22793" lon="5.0592">
        <ele>418.3030090332</ele>
        <time>2010-12-11T15:25:48Z</time>
      </trkpt>
      <trkpt lat="45.22752" lon="5.05893">
        <ele>414.12298583984</ele>
        <time>2010-12-11T15:25:51Z</time>
      </trkpt>
      <trkpt lat="45.22719" lon="5.05848">
        <ele>410.59100341797</ele>
        <time>2010-12-11T15:25:54Z</time>
      </trkpt>
      <trkpt lat="45.22712" lon="5.05829">
        <ele>409.28698730469</ele>
        <time>2010-12-11T15:25:55Z</time>
      </trkpt>
      <trkpt lat="45.22695" lon="5.05769">
        <ele>406.70199584961</ele>
        <time>2010-12-11T15:25:58Z</time>
      </trkpt>
      <trkpt lat="45.22663" lon="5.05727">
        <ele>404.63800048828</ele>
        <time>2010-12-11T15:26:01Z</time>
      </trkpt>
      <trkpt lat="45.22649" lon="5.05722">
        <ele>404.33700561523</ele>
        <time>2010-12-11T15:26:02Z</time>
      </trkpt>
      <trkpt lat="45.22621" lon="5.05722">
        <ele>403.25601196289</ele>
        <time>2010-12-11T15:26:04Z</time>
      </trkpt>
      <trkpt lat="45.22515" lon="5.05726">
        <ele>401.33801269531</ele>
        <time>2010-12-11T15:26:12Z</time>
      </trkpt>
      <trkpt lat="45.22443" lon="5.05737">
        <ele>399.8630065918</ele>
        <time>2010-12-11T15:26:18Z</time>
      </trkpt>
      <trkpt lat="45.22353" lon="5.05762">
        <ele>397.79699707031</ele>
        <time>2010-12-11T15:26:26Z</time>
      </trkpt>
      <trkpt lat="45.22258" lon="5.05786">
        <ele>392.89300537109</ele>
        <time>2010-12-11T15:26:34Z</time>
      </trkpt>
      <trkpt lat="45.22196" lon="5.05801">
        <ele>389.76098632812</ele>
        <time>2010-12-11T15:26:39Z</time>
      </trkpt>
      <trkpt lat="45.22132" lon="5.05817">
        <ele>387.04800415039</ele>
        <time>2010-12-11T15:26:44Z</time>
      </trkpt>
      <trkpt lat="45.22066" lon="5.05818">
        <ele>382.5</ele>
        <time>2010-12-11T15:26:49Z</time>
      </trkpt>
      <trkpt lat="45.22028" lon="5.05831">
        <ele>378.91299438477</ele>
        <time>2010-12-11T15:26:52Z</time>
      </trkpt>
      <trkpt lat="45.22017" lon="5.05841">
        <ele>378.38500976562</ele>
        <time>2010-12-11T15:26:53Z</time>
      </trkpt>
      <trkpt lat="45.21996" lon="5.05863">
        <ele>377.77200317383</ele>
        <time>2010-12-11T15:26:55Z</time>
      </trkpt>
      <trkpt lat="45.21939" lon="5.05901">
        <ele>375.10699462891</ele>
        <time>2010-12-11T15:27:00Z</time>
      </trkpt>
      <trkpt lat="45.21849" lon="5.05957">
        <ele>371.79901123047</ele>
        <time>2010-12-11T15:27:08Z</time>
      </trkpt>
      <trkpt lat="45.2179" lon="5.06015">
        <ele>370.12298583984</ele>
        <time>2010-12-11T15:27:14Z</time>
      </trkpt>
      <trkpt lat="45.21762" lon="5.06045">
        <ele>368.90399169922</ele>
        <time>2010-12-11T15:27:17Z</time>
      </trkpt>
      <trkpt lat="45.21721" lon="5.06082">
        <ele>366.29598999023</ele>
        <time>2010-12-11T15:27:21Z</time>
      </trkpt>
      <trkpt lat="45.2167" lon="5.06097">
        <ele>361.70498657227</ele>
        <time>2010-12-11T15:27:25Z</time>
      </trkpt>
      <trkpt lat="45.21657" lon="5.06096">
        <ele>360.96600341797</ele>
        <time>2010-12-11T15:27:26Z</time>
      </trkpt>
      <trkpt lat="45.2163" lon="5.06093">
        <ele>359.09600830078</ele>
        <time>2010-12-11T15:27:28Z</time>
      </trkpt>
      <trkpt lat="45.21552" lon="5.06111">
        <ele>355.20199584961</ele>
        <time>2010-12-11T15:27:34Z</time>
      </trkpt>
      <trkpt lat="45.21526" lon="5.06119">
        <ele>354.39801025391</ele>
        <time>2010-12-11T15:27:36Z</time>
      </trkpt>
      <trkpt lat="45.21514" lon="5.06123">
        <ele>353.78298950195</ele>
        <time>2010-12-11T15:27:37Z</time>
      </trkpt>
      <trkpt lat="45.21437" lon="5.06147">
        <ele>349.67999267578</ele>
        <time>2010-12-11T15:27:43Z</time>
      </trkpt>
      <trkpt lat="45.2138" lon="5.06172">
        <ele>351.10000610352</ele>
        <time>2010-12-11T15:27:48Z</time>
      </trkpt>
      <trkpt lat="45.21331" lon="5.06198">
        <ele>351.75299072266</ele>
        <time>2010-12-11T15:27:53Z</time>
      </trkpt>
      <trkpt lat="45.213" lon="5.06229">
        <ele>351.25</ele>
        <time>2010-12-11T15:27:57Z</time>
      </trkpt>
      <trkpt lat="45.21254" lon="5.06278">
        <ele>348.48498535156</ele>
        <time>2010-12-11T15:28:03Z</time>
      </trkpt>
      <trkpt lat="45.21194" lon="5.06333">
        <ele>346.04000854492</ele>
        <time>2010-12-11T15:28:10Z</time>
      </trkpt>
      <trkpt lat="45.21128" lon="5.06394">
        <ele>342.75201416016</ele>
        <time>2010-12-11T15:28:17Z</time>
      </trkpt>
      <trkpt lat="45.21091" lon="5.06428">
        <ele>341.19799804688</ele>
        <time>2010-12-11T15:28:21Z</time>
      </trkpt>
      <trkpt lat="45.21051" lon="5.06471">
        <ele>340.89300537109</ele>
        <time>2010-12-11T15:28:26Z</time>
      </trkpt>
      <trkpt lat="45.21003" lon="5.06536">
        <ele>341.09201049805</ele>
        <time>2010-12-11T15:28:33Z</time>
      </trkpt>
      <trkpt lat="45.20971" lon="5.0658">
        <ele>340.20098876953</ele>
        <time>2010-12-11T15:28:38Z</time>
      </trkpt>
      <trkpt lat="45.20958" lon="5.06596">
        <ele>339.83099365234</ele>
        <time>2010-12-11T15:28:40Z</time>
      </trkpt>
      <trkpt lat="45.20945" lon="5.06611">
        <ele>339.44799804688</ele>
        <time>2010-12-11T15:28:42Z</time>
      </trkpt>
      <trkpt lat="45.20906" lon="5.06652">
        <ele>338.93399047852</ele>
        <time>2010-12-11T15:28:48Z</time>
      </trkpt>
      <trkpt lat="45.20863" lon="5.067">
        <ele>337.17199707031</ele>
        <time>2010-12-11T15:28:55Z</time>
      </trkpt>
      <trkpt lat="45.20819" lon="5.06748">
        <ele>337.29901123047</ele>
        <time>2010-12-11T15:29:02Z</time>
      </trkpt>
      <trkpt lat="45.20767" lon="5.06803">
        <ele>335.44100952148</ele>
        <time>2010-12-11T15:29:10Z</time>
      </trkpt>
      <trkpt lat="45.20753" lon="5.06816">
        <ele>334.66198730469</ele>
        <time>2010-12-11T15:29:12Z</time>
      </trkpt>
      <trkpt lat="45.20745" lon="5.06823">
        <ele>334.33801269531</ele>
        <time>2010-12-11T15:29:13Z</time>
      </trkpt>
      <trkpt lat="45.20726" lon="5.06863">
        <ele>332.40798950195</ele>
        <time>2010-12-11T15:29:17Z</time>
      </trkpt>
      <trkpt lat="45.20717" lon="5.06906">
        <ele>331.81500244141</ele>
        <time>2010-12-11T15:29:21Z</time>
      </trkpt>
      <trkpt lat="45.20707" lon="5.06914">
        <ele>332.61999511719</ele>
        <time>2010-12-11T15:29:24Z</time>
      </trkpt>
      <trkpt lat="45.207" lon="5.06915">
        <ele>332.89401245117</ele>
        <time>2010-12-11T15:29:31Z</time>
      </trkpt>
      <trkpt lat="45.20692" lon="5.06912">
        <ele>332.3869934082</ele>
        <time>2010-12-11T15:29:43Z</time>
      </trkpt>
      <trkpt lat="45.20689" lon="5.06911">
        <ele>332.23300170898</ele>
        <time>2010-12-11T15:29:44Z</time>
      </trkpt>
      <trkpt lat="45.20675" lon="5.06894">
        <ele>331.67498779297</ele>
        <time>2010-12-11T15:29:48Z</time>
      </trkpt>
      <trkpt lat="45.20658" lon="5.06854">
        <ele>331.13900756836</ele>
        <time>2010-12-11T15:29:54Z</time>
      </trkpt>
      <trkpt lat="45.20641" lon="5.06815">
        <ele>330.60598754883</ele>
        <time>2010-12-11T15:29:59Z</time>
      </trkpt>
      <trkpt lat="45.20613" lon="5.06769">
        <ele>330.48599243164</ele>
        <time>2010-12-11T15:30:05Z</time>
      </trkpt>
      <trkpt lat="45.20585" lon="5.06726">
        <ele>331.0299987793</ele>
        <time>2010-12-11T15:30:11Z</time>
      </trkpt>
      <trkpt lat="45.20577" lon="5.06714">
        <ele>331.28601074219</ele>
        <time>2010-12-11T15:30:13Z</time>
      </trkpt>
      <trkpt lat="45.20543" lon="5.06661">
        <ele>332.7919921875</ele>
        <time>2010-12-11T15:30:22Z</time>
      </trkpt>
      <trkpt lat="45.20523" lon="5.06632">
        <ele>333.35900878906</ele>
        <time>2010-12-11T15:30:27Z</time>
      </trkpt>
      <trkpt lat="45.20494" lon="5.06592">
        <ele>333.39801025391</ele>
        <time>2010-12-11T15:30:34Z</time>
      </trkpt>
      <trkpt lat="45.20472" lon="5.06562">
        <ele>333.25299072266</ele>
        <time>2010-12-11T15:30:39Z</time>
      </trkpt>
      <trkpt lat="45.20458" lon="5.06544">
        <ele>332.79800415039</ele>
        <time>2010-12-11T15:30:42Z</time>
      </trkpt>
      <trkpt lat="45.20421" lon="5.06493">
        <ele>333.15899658203</ele>
        <time>2010-12-11T15:30:51Z</time>
      </trkpt>
      <trkpt lat="45.20412" lon="5.06483">
        <ele>333.36999511719</ele>
        <time>2010-12-11T15:30:53Z</time>
      </trkpt>
      <trkpt lat="45.20395" lon="5.06466">
        <ele>333.32800292969</ele>
        <time>2010-12-11T15:30:57Z</time>
      </trkpt>
      <trkpt lat="45.2036" lon="5.06438">
        <ele>333.45401000977</ele>
        <time>2010-12-11T15:31:04Z</time>
      </trkpt>
      <trkpt lat="45.20354" lon="5.06433">
        <ele>333.31799316406</ele>
        <time>2010-12-11T15:31:05Z</time>
      </trkpt>
      <trkpt lat="45.20331" lon="5.06411">
        <ele>332.76098632812</ele>
        <time>2010-12-11T15:31:09Z</time>
      </trkpt>
      <trkpt lat="45.20291" lon="5.06374">
        <ele>331.64199829102</ele>
        <time>2010-12-11T15:31:16Z</time>
      </trkpt>
      <trkpt lat="45.20243" lon="5.0634">
        <ele>329.80999755859</ele>
        <time>2010-12-11T15:31:23Z</time>
      </trkpt>
      <trkpt lat="45.20186" lon="5.06306">
        <ele>326.94198608398</ele>
        <time>2010-12-11T15:31:30Z</time>
      </trkpt>
      <trkpt lat="45.20102" lon="5.06251">
        <ele>324.13900756836</ele>
        <time>2010-12-11T15:31:40Z</time>
      </trkpt>
      <trkpt lat="45.20038" lon="5.06211">
        <ele>322.8210144043</ele>
        <time>2010-12-11T15:31:47Z</time>
      </trkpt>
      <trkpt lat="45.19933" lon="5.06144">
        <ele>319.80499267578</ele>
        <time>2010-12-11T15:31:58Z</time>
      </trkpt>
      <trkpt lat="45.19879" lon="5.06093">
        <ele>318.43099975586</ele>
        <time>2010-12-11T15:32:04Z</time>
      </trkpt>
      <trkpt lat="45.19851" lon="5.06066">
        <ele>317.09698486328</ele>
        <time>2010-12-11T15:32:07Z</time>
      </trkpt>
      <trkpt lat="45.19812" lon="5.06029">
        <ele>315.26998901367</ele>
        <time>2010-12-11T15:32:11Z</time>
      </trkpt>
      <trkpt lat="45.19802" lon="5.06019">
        <ele>315.03799438477</ele>
        <time>2010-12-11T15:32:12Z</time>
      </trkpt>
      <trkpt lat="45.19717" lon="5.05938">
        <ele>313.2380065918</ele>
        <time>2010-12-11T15:32:21Z</time>
      </trkpt>
      <trkpt lat="45.19671" lon="5.05893">
        <ele>311.50500488281</ele>
        <time>2010-12-11T15:32:26Z</time>
      </trkpt>
      <trkpt lat="45.19655" lon="5.05873">
        <ele>311.25201416016</ele>
        <time>2010-12-11T15:32:28Z</time>
      </trkpt>
      <trkpt lat="45.19626" lon="5.05811">
        <ele>311.70599365234</ele>
        <time>2010-12-11T15:32:33Z</time>
      </trkpt>
      <trkpt lat="45.19622" lon="5.05798">
        <ele>312.04299926758</ele>
        <time>2010-12-11T15:32:34Z</time>
      </trkpt>
      <trkpt lat="45.19617" lon="5.05786">
        <ele>312.37701416016</ele>
        <time>2010-12-11T15:32:35Z</time>
      </trkpt>
      <trkpt lat="45.19601" lon="5.05721">
        <ele>312.83599853516</ele>
        <time>2010-12-11T15:32:40Z</time>
      </trkpt>
      <trkpt lat="45.19592" lon="5.05681">
        <ele>312.27700805664</ele>
        <time>2010-12-11T15:32:43Z</time>
      </trkpt>
      <trkpt lat="45.19558" lon="5.0561">
        <ele>311.07400512695</ele>
        <time>2010-12-11T15:32:49Z</time>
      </trkpt>
      <trkpt lat="45.19514" lon="5.05547">
        <ele>308.9700012207</ele>
        <time>2010-12-11T15:32:55Z</time>
      </trkpt>
      <trkpt lat="45.19507" lon="5.05538">
        <ele>308.67999267578</ele>
        <time>2010-12-11T15:32:56Z</time>
      </trkpt>
      <trkpt lat="45.19499" lon="5.05529">
        <ele>308.47799682617</ele>
        <time>2010-12-11T15:32:57Z</time>
      </trkpt>
      <trkpt lat="45.19444" lon="5.05472">
        <ele>308.69100952148</ele>
        <time>2010-12-11T15:33:04Z</time>
      </trkpt>
      <trkpt lat="45.194" lon="5.05427">
        <ele>308.38198852539</ele>
        <time>2010-12-11T15:33:10Z</time>
      </trkpt>
      <trkpt lat="45.19341" lon="5.05358">
        <ele>307.40701293945</ele>
        <time>2010-12-11T15:33:18Z</time>
      </trkpt>
      <trkpt lat="45.19281" lon="5.05275">
        <ele>304.9460144043</ele>
        <time>2010-12-11T15:33:26Z</time>
      </trkpt>
      <trkpt lat="45.19208" lon="5.05174">
        <ele>302.16500854492</ele>
        <time>2010-12-11T15:33:35Z</time>
      </trkpt>
      <trkpt lat="45.19137" lon="5.05086">
        <ele>299.06201171875</ele>
        <time>2010-12-11T15:33:43Z</time>
      </trkpt>
      <trkpt lat="45.19061" lon="5.05007">
        <ele>297.36801147461</ele>
        <time>2010-12-11T15:33:51Z</time>
      </trkpt>
      <trkpt lat="45.18983" lon="5.04922">
        <ele>296.96099853516</ele>
        <time>2010-12-11T15:34:00Z</time>
      </trkpt>
      <trkpt lat="45.18927" lon="5.04858">
        <ele>296.76599121094</ele>
        <time>2010-12-11T15:34:07Z</time>
      </trkpt>
      <trkpt lat="45.18859" lon="5.04777">
        <ele>294.92498779297</ele>
        <time>2010-12-11T15:34:15Z</time>
      </trkpt>
      <trkpt lat="45.18804" lon="5.04709">
        <ele>294.64599609375</ele>
        <time>2010-12-11T15:34:22Z</time>
      </trkpt>
      <trkpt lat="45.18783" lon="5.04682">
        <ele>294.78100585938</ele>
        <time>2010-12-11T15:34:25Z</time>
      </trkpt>
      <trkpt lat="45.18772" lon="5.04652">
        <ele>296.14599609375</ele>
        <time>2010-12-11T15:34:28Z</time>
      </trkpt>
      <trkpt lat="45.18751" lon="5.04631">
        <ele>296.40100097656</ele>
        <time>2010-12-11T15:34:32Z</time>
      </trkpt>
      <trkpt lat="45.1869" lon="5.04612">
        <ele>294.62100219727</ele>
        <time>2010-12-11T15:34:39Z</time>
      </trkpt>
      <trkpt lat="45.18615" lon="5.04576">
        <ele>293.35699462891</ele>
        <time>2010-12-11T15:34:47Z</time>
      </trkpt>
      <trkpt lat="45.18566" lon="5.04552">
        <ele>292.02099609375</ele>
        <time>2010-12-11T15:34:52Z</time>
      </trkpt>
      <trkpt lat="45.18556" lon="5.04547">
        <ele>292.01501464844</ele>
        <time>2010-12-11T15:34:53Z</time>
      </trkpt>
      <trkpt lat="45.18466" lon="5.04504">
        <ele>289.74700927734</ele>
        <time>2010-12-11T15:35:02Z</time>
      </trkpt>
      <trkpt lat="45.18354" lon="5.04449">
        <ele>288.68399047852</ele>
        <time>2010-12-11T15:35:13Z</time>
      </trkpt>
      <trkpt lat="45.18251" lon="5.04398">
        <ele>287.06399536133</ele>
        <time>2010-12-11T15:35:23Z</time>
      </trkpt>
      <trkpt lat="45.1815" lon="5.04344">
        <ele>285.09399414062</ele>
        <time>2010-12-11T15:35:33Z</time>
      </trkpt>
      <trkpt lat="45.18099" lon="5.04326">
        <ele>284.71798706055</ele>
        <time>2010-12-11T15:35:38Z</time>
      </trkpt>
      <trkpt lat="45.18034" lon="5.04331">
        <ele>283.61999511719</ele>
        <time>2010-12-11T15:35:44Z</time>
      </trkpt>
      <trkpt lat="45.1799" lon="5.04324">
        <ele>283.64700317383</ele>
        <time>2010-12-11T15:35:48Z</time>
      </trkpt>
      <trkpt lat="45.17869" lon="5.04287">
        <ele>281.48999023438</ele>
        <time>2010-12-11T15:35:59Z</time>
      </trkpt>
      <trkpt lat="45.1777" lon="5.04256">
        <ele>280.46701049805</ele>
        <time>2010-12-11T15:36:08Z</time>
      </trkpt>
      <trkpt lat="45.17672" lon="5.0422">
        <ele>279.35198974609</ele>
        <time>2010-12-11T15:36:17Z</time>
      </trkpt>
      <trkpt lat="45.17633" lon="5.04188">
        <ele>277.80099487305</ele>
        <time>2010-12-11T15:36:21Z</time>
      </trkpt>
      <trkpt lat="45.17592" lon="5.0416">
        <ele>277.63299560547</ele>
        <time>2010-12-11T15:36:25Z</time>
      </trkpt>
      <trkpt lat="45.17538" lon="5.04141">
        <ele>276.85699462891</ele>
        <time>2010-12-11T15:36:30Z</time>
      </trkpt>
      <trkpt lat="45.17439" lon="5.04103">
        <ele>275.20498657227</ele>
        <time>2010-12-11T15:36:39Z</time>
      </trkpt>
      <trkpt lat="45.17361" lon="5.04073">
        <ele>274.50698852539</ele>
        <time>2010-12-11T15:36:46Z</time>
      </trkpt>
      <trkpt lat="45.17295" lon="5.04048">
        <ele>272.91598510742</ele>
        <time>2010-12-11T15:36:52Z</time>
      </trkpt>
      <trkpt lat="45.17216" lon="5.04016">
        <ele>271.62701416016</ele>
        <time>2010-12-11T15:36:59Z</time>
      </trkpt>
      <trkpt lat="45.17127" lon="5.03981">
        <ele>270.24899291992</ele>
        <time>2010-12-11T15:37:07Z</time>
      </trkpt>
      <trkpt lat="45.17049" lon="5.0395">
        <ele>269.9289855957</ele>
        <time>2010-12-11T15:37:14Z</time>
      </trkpt>
      <trkpt lat="45.16958" lon="5.03914">
        <ele>269.38500976562</ele>
        <time>2010-12-11T15:37:22Z</time>
      </trkpt>
      <trkpt lat="45.16924" lon="5.03902">
        <ele>268.16000366211</ele>
        <time>2010-12-11T15:37:25Z</time>
      </trkpt>
      <trkpt lat="45.16824" lon="5.03862">
        <ele>267.58898925781</ele>
        <time>2010-12-11T15:37:34Z</time>
      </trkpt>
      <trkpt lat="45.16792" lon="5.03848">
        <ele>267.48300170898</ele>
        <time>2010-12-11T15:37:37Z</time>
      </trkpt>
      <trkpt lat="45.16781" lon="5.03844">
        <ele>267.44799804688</ele>
        <time>2010-12-11T15:37:38Z</time>
      </trkpt>
      <trkpt lat="45.16705" lon="5.03814">
        <ele>267.23699951172</ele>
        <time>2010-12-11T15:37:45Z</time>
      </trkpt>
      <trkpt lat="45.16661" lon="5.03796">
        <ele>265.73699951172</ele>
        <time>2010-12-11T15:37:49Z</time>
      </trkpt>
      <trkpt lat="45.16651" lon="5.03792">
        <ele>265.68798828125</ele>
        <time>2010-12-11T15:37:50Z</time>
      </trkpt>
      <trkpt lat="45.16552" lon="5.03755">
        <ele>261.48498535156</ele>
        <time>2010-12-11T15:37:59Z</time>
      </trkpt>
      <trkpt lat="45.16507" lon="5.03753">
        <ele>260.77301025391</ele>
        <time>2010-12-11T15:38:03Z</time>
      </trkpt>
      <trkpt lat="45.16406" lon="5.03761">
        <ele>259.49798583984</ele>
        <time>2010-12-11T15:38:12Z</time>
      </trkpt>
      <trkpt lat="45.16291" lon="5.03772">
        <ele>257.92199707031</ele>
        <time>2010-12-11T15:38:22Z</time>
      </trkpt>
      <trkpt lat="45.16253" lon="5.03773">
        <ele>257.77301025391</ele>
        <time>2010-12-11T15:38:26Z</time>
      </trkpt>
      <trkpt lat="45.16206" lon="5.03774">
        <ele>257.36898803711</ele>
        <time>2010-12-11T15:38:32Z</time>
      </trkpt>
      <trkpt lat="45.1619" lon="5.03759">
        <ele>257.35699462891</ele>
        <time>2010-12-11T15:38:36Z</time>
      </trkpt>
      <trkpt lat="45.16189" lon="5.03746">
        <ele>257.13299560547</ele>
        <time>2010-12-11T15:38:38Z</time>
      </trkpt>
      <trkpt lat="45.1619" lon="5.03684">
        <ele>257.18200683594</ele>
        <time>2010-12-11T15:38:47Z</time>
      </trkpt>
      <trkpt lat="45.1619" lon="5.0367">
        <ele>257.23300170898</ele>
        <time>2010-12-11T15:38:49Z</time>
      </trkpt>
      <trkpt lat="45.1619" lon="5.03646">
        <ele>257.17199707031</ele>
        <time>2010-12-11T15:38:52Z</time>
      </trkpt>
      <trkpt lat="45.1619" lon="5.03638">
        <ele>257.21301269531</ele>
        <time>2010-12-11T15:38:53Z</time>
      </trkpt>
      <trkpt lat="45.16189" lon="5.03629">
        <ele>257.3210144043</ele>
        <time>2010-12-11T15:38:54Z</time>
      </trkpt>
      <trkpt lat="45.16185" lon="5.03572">
        <ele>256.28500366211</ele>
        <time>2010-12-11T15:39:00Z</time>
      </trkpt>
      <trkpt lat="45.16183" lon="5.03562">
        <ele>256.27899169922</ele>
        <time>2010-12-11T15:39:01Z</time>
      </trkpt>
      <trkpt lat="45.1618" lon="5.03541">
        <ele>256.27600097656</ele>
        <time>2010-12-11T15:39:03Z</time>
      </trkpt>
      <trkpt lat="45.16179" lon="5.03531">
        <ele>256.30999755859</ele>
        <time>2010-12-11T15:39:04Z</time>
      </trkpt>
      <trkpt lat="45.16178" lon="5.03521">
        <ele>256.38101196289</ele>
        <time>2010-12-11T15:39:05Z</time>
      </trkpt>
      <trkpt lat="45.1616" lon="5.03437">
        <ele>256.71701049805</ele>
        <time>2010-12-11T15:39:13Z</time>
      </trkpt>
      <trkpt lat="45.16134" lon="5.03366">
        <ele>257.18499755859</ele>
        <time>2010-12-11T15:39:20Z</time>
      </trkpt>
      <trkpt lat="45.16096" lon="5.03302">
        <ele>257.24398803711</ele>
        <time>2010-12-11T15:39:27Z</time>
      </trkpt>
      <trkpt lat="45.16074" lon="5.03263">
        <ele>257.13598632812</ele>
        <time>2010-12-11T15:39:31Z</time>
      </trkpt>
      <trkpt lat="45.16034" lon="5.03185">
        <ele>257.09298706055</ele>
        <time>2010-12-11T15:39:38Z</time>
      </trkpt>
      <trkpt lat="45.15991" lon="5.03107">
        <ele>256.0119934082</ele>
        <time>2010-12-11T15:39:45Z</time>
      </trkpt>
      <trkpt lat="45.15929" lon="5.0302">
        <ele>254.05400085449</ele>
        <time>2010-12-11T15:39:54Z</time>
      </trkpt>
      <trkpt lat="45.15879" lon="5.02951">
        <ele>252.69400024414</ele>
        <time>2010-12-11T15:40:01Z</time>
      </trkpt>
      <trkpt lat="45.1584" lon="5.02903">
        <ele>252.03100585938</ele>
        <time>2010-12-11T15:40:06Z</time>
      </trkpt>
      <trkpt lat="45.15764" lon="5.02826">
        <ele>250.14599609375</ele>
        <time>2010-12-11T15:40:15Z</time>
      </trkpt>
      <trkpt lat="45.1571" lon="5.02774">
        <ele>249.35499572754</ele>
        <time>2010-12-11T15:40:21Z</time>
      </trkpt>
      <trkpt lat="45.15673" lon="5.02738">
        <ele>249.33999633789</ele>
        <time>2010-12-11T15:40:25Z</time>
      </trkpt>
      <trkpt lat="45.15637" lon="5.02703">
        <ele>248.55099487305</ele>
        <time>2010-12-11T15:40:29Z</time>
      </trkpt>
      <trkpt lat="45.15628" lon="5.02693">
        <ele>248.29100036621</ele>
        <time>2010-12-11T15:40:30Z</time>
      </trkpt>
      <trkpt lat="45.15569" lon="5.02623">
        <ele>246.64999389648</ele>
        <time>2010-12-11T15:40:37Z</time>
      </trkpt>
      <trkpt lat="45.15496" lon="5.02522">
        <ele>245.06100463867</ele>
        <time>2010-12-11T15:40:46Z</time>
      </trkpt>
      <trkpt lat="45.15424" lon="5.02423">
        <ele>244.07400512695</ele>
        <time>2010-12-11T15:40:55Z</time>
      </trkpt>
      <trkpt lat="45.1537" lon="5.02362">
        <ele>243.06900024414</ele>
        <time>2010-12-11T15:41:01Z</time>
      </trkpt>
      <trkpt lat="45.15308" lon="5.02291">
        <ele>242.54800415039</ele>
        <time>2010-12-11T15:41:08Z</time>
      </trkpt>
      <trkpt lat="45.15274" lon="5.02232">
        <ele>243.11199951172</ele>
        <time>2010-12-11T15:41:13Z</time>
      </trkpt>
      <trkpt lat="45.15238" lon="5.0217">
        <ele>244.13600158691</ele>
        <time>2010-12-11T15:41:19Z</time>
      </trkpt>
      <trkpt lat="45.152" lon="5.02102">
        <ele>243.19400024414</ele>
        <time>2010-12-11T15:41:26Z</time>
      </trkpt>
      <trkpt lat="45.15189" lon="5.02086">
        <ele>243.33099365234</ele>
        <time>2010-12-11T15:41:28Z</time>
      </trkpt>
      <trkpt lat="45.15181" lon="5.02068">
        <ele>243.36099243164</ele>
        <time>2010-12-11T15:41:30Z</time>
      </trkpt>
      <trkpt lat="45.15165" lon="5.02046">
        <ele>243.6130065918</ele>
        <time>2010-12-11T15:41:33Z</time>
      </trkpt>
      <trkpt lat="45.15133" lon="5.01999">
        <ele>243.32899475098</ele>
        <time>2010-12-11T15:41:39Z</time>
      </trkpt>
      <trkpt lat="45.15094" lon="5.01946">
        <ele>243.20700073242</ele>
        <time>2010-12-11T15:41:46Z</time>
      </trkpt>
      <trkpt lat="45.15083" lon="5.01931">
        <ele>243.09700012207</ele>
        <time>2010-12-11T15:41:48Z</time>
      </trkpt>
      <trkpt lat="45.15048" lon="5.01882">
        <ele>242.79699707031</ele>
        <time>2010-12-11T15:41:55Z</time>
      </trkpt>
      <trkpt lat="45.15012" lon="5.01829">
        <ele>242.25399780273</ele>
        <time>2010-12-11T15:42:03Z</time>
      </trkpt>
      <trkpt lat="45.14981" lon="5.01784">
        <ele>242.07299804688</ele>
        <time>2010-12-11T15:42:10Z</time>
      </trkpt>
      <trkpt lat="45.14953" lon="5.0175">
        <ele>241.31399536133</ele>
        <time>2010-12-11T15:42:15Z</time>
      </trkpt>
      <trkpt lat="45.1491" lon="5.01686">
        <ele>240.64100646973</ele>
        <time>2010-12-11T15:42:23Z</time>
      </trkpt>
      <trkpt lat="45.14877" lon="5.01648">
        <ele>240.93899536133</ele>
        <time>2010-12-11T15:42:29Z</time>
      </trkpt>
      <trkpt lat="45.14861" lon="5.01627">
        <ele>241.10499572754</ele>
        <time>2010-12-11T15:42:32Z</time>
      </trkpt>
      <trkpt lat="45.1483" lon="5.01593">
        <ele>242.65800476074</ele>
        <time>2010-12-11T15:42:38Z</time>
      </trkpt>
      <trkpt lat="45.14822" lon="5.01582">
        <ele>243.02600097656</ele>
        <time>2010-12-11T15:42:40Z</time>
      </trkpt>
      <trkpt lat="45.14789" lon="5.01548">
        <ele>242.35200500488</ele>
        <time>2010-12-11T15:42:47Z</time>
      </trkpt>
      <trkpt lat="45.14752" lon="5.01512">
        <ele>239.80499267578</ele>
        <time>2010-12-11T15:42:53Z</time>
      </trkpt>
      <trkpt lat="45.14745" lon="5.01506">
        <ele>239.11000061035</ele>
        <time>2010-12-11T15:42:54Z</time>
      </trkpt>
      <trkpt lat="45.14718" lon="5.01453">
        <ele>236.65800476074</ele>
        <time>2010-12-11T15:42:59Z</time>
      </trkpt>
      <trkpt lat="45.14695" lon="5.0139">
        <ele>234.68400573731</ele>
        <time>2010-12-11T15:43:04Z</time>
      </trkpt>
      <trkpt lat="45.14661" lon="5.01289">
        <ele>234.54899597168</ele>
        <time>2010-12-11T15:43:12Z</time>
      </trkpt>
      <trkpt lat="45.14636" lon="5.01237">
        <ele>234.42700195312</ele>
        <time>2010-12-11T15:43:17Z</time>
      </trkpt>
      <trkpt lat="45.1463" lon="5.01229">
        <ele>234.49499511719</ele>
        <time>2010-12-11T15:43:18Z</time>
      </trkpt>
      <trkpt lat="45.14588" lon="5.01194">
        <ele>235.71200561523</ele>
        <time>2010-12-11T15:43:24Z</time>
      </trkpt>
      <trkpt lat="45.14523" lon="5.01147">
        <ele>236.17999267578</ele>
        <time>2010-12-11T15:43:33Z</time>
      </trkpt>
      <trkpt lat="45.14466" lon="5.01099">
        <ele>236.45700073242</ele>
        <time>2010-12-11T15:43:41Z</time>
      </trkpt>
      <trkpt lat="45.14413" lon="5.01041">
        <ele>235.98199462891</ele>
        <time>2010-12-11T15:43:49Z</time>
      </trkpt>
      <trkpt lat="45.1436" lon="5.00981">
        <ele>235.83299255371</ele>
        <time>2010-12-11T15:43:57Z</time>
      </trkpt>
      <trkpt lat="45.14303" lon="5.0092">
        <ele>234.45899963379</ele>
        <time>2010-12-11T15:44:05Z</time>
      </trkpt>
      <trkpt lat="45.14253" lon="5.00888">
        <ele>234.13299560547</ele>
        <time>2010-12-11T15:44:11Z</time>
      </trkpt>
      <trkpt lat="45.14184" lon="5.00854">
        <ele>233.35699462891</ele>
        <time>2010-12-11T15:44:19Z</time>
      </trkpt>
      <trkpt lat="45.14072" lon="5.00799">
        <ele>232.72500610352</ele>
        <time>2010-12-11T15:44:32Z</time>
      </trkpt>
      <trkpt lat="45.13974" lon="5.00751">
        <ele>232.19000244141</ele>
        <time>2010-12-11T15:44:43Z</time>
      </trkpt>
      <trkpt lat="45.13901" lon="5.00715">
        <ele>231.95399475098</ele>
        <time>2010-12-11T15:44:51Z</time>
      </trkpt>
      <trkpt lat="45.13855" lon="5.00692">
        <ele>231.80799865723</ele>
        <time>2010-12-11T15:44:56Z</time>
      </trkpt>
      <trkpt lat="45.13845" lon="5.00687">
        <ele>231.72500610352</ele>
        <time>2010-12-11T15:44:57Z</time>
      </trkpt>
      <trkpt lat="45.13775" lon="5.00638">
        <ele>230.98500061035</ele>
        <time>2010-12-11T15:45:05Z</time>
      </trkpt>
      <trkpt lat="45.13719" lon="5.00583">
        <ele>230.39399719238</ele>
        <time>2010-12-11T15:45:12Z</time>
      </trkpt>
      <trkpt lat="45.13643" lon="5.00497">
        <ele>229.38900756836</ele>
        <time>2010-12-11T15:45:22Z</time>
      </trkpt>
      <trkpt lat="45.13636" lon="5.0049">
        <ele>229.11199951172</ele>
        <time>2010-12-11T15:45:23Z</time>
      </trkpt>
      <trkpt lat="45.13602" lon="5.0047">
        <ele>229.30499267578</ele>
        <time>2010-12-11T15:45:27Z</time>
      </trkpt>
      <trkpt lat="45.13536" lon="5.00453">
        <ele>228.72399902344</ele>
        <time>2010-12-11T15:45:34Z</time>
      </trkpt>
      <trkpt lat="45.1349" lon="5.00433">
        <ele>229.19799804688</ele>
        <time>2010-12-11T15:45:39Z</time>
      </trkpt>
      <trkpt lat="45.134" lon="5.00374">
        <ele>228.10499572754</ele>
        <time>2010-12-11T15:45:49Z</time>
      </trkpt>
      <trkpt lat="45.13363" lon="5.00351">
        <ele>227.55700683594</ele>
        <time>2010-12-11T15:45:53Z</time>
      </trkpt>
      <trkpt lat="45.13334" lon="5.0034">
        <ele>225.82400512695</ele>
        <time>2010-12-11T15:45:56Z</time>
      </trkpt>
      <trkpt lat="45.13284" lon="5.00335">
        <ele>225.3690032959</ele>
        <time>2010-12-11T15:46:01Z</time>
      </trkpt>
      <trkpt lat="45.132" lon="5.00338">
        <ele>223.66799926758</ele>
        <time>2010-12-11T15:46:09Z</time>
      </trkpt>
      <trkpt lat="45.13159" lon="5.00332">
        <ele>223.1549987793</ele>
        <time>2010-12-11T15:46:13Z</time>
      </trkpt>
      <trkpt lat="45.131" lon="5.00305">
        <ele>222.51600646973</ele>
        <time>2010-12-11T15:46:19Z</time>
      </trkpt>
      <trkpt lat="45.13031" lon="5.00277">
        <ele>221.71899414062</ele>
        <time>2010-12-11T15:46:26Z</time>
      </trkpt>
      <trkpt lat="45.12964" lon="5.00248">
        <ele>221.95599365234</ele>
        <time>2010-12-11T15:46:33Z</time>
      </trkpt>
      <trkpt lat="45.12921" lon="5.00215">
        <ele>221.54899597168</ele>
        <time>2010-12-11T15:46:38Z</time>
      </trkpt>
      <trkpt lat="45.12891" lon="5.00175">
        <ele>219.91000366211</ele>
        <time>2010-12-11T15:46:42Z</time>
      </trkpt>
      <trkpt lat="45.12857" lon="5.00115">
        <ele>217.20700073242</ele>
        <time>2010-12-11T15:46:47Z</time>
      </trkpt>
      <trkpt lat="45.12825" lon="5.00078">
        <ele>215.13200378418</ele>
        <time>2010-12-11T15:46:51Z</time>
      </trkpt>
      <trkpt lat="45.12816" lon="5.00073">
        <ele>215.31399536133</ele>
        <time>2010-12-11T15:46:52Z</time>
      </trkpt>
      <trkpt lat="45.12766" lon="5.00056">
        <ele>213.38900756836</ele>
        <time>2010-12-11T15:46:57Z</time>
      </trkpt>
      <trkpt lat="45.12725" lon="5.00036">
        <ele>212.06700134277</ele>
        <time>2010-12-11T15:47:01Z</time>
      </trkpt>
      <trkpt lat="45.12681" lon="4.99991">
        <ele>210.39799499512</ele>
        <time>2010-12-11T15:47:06Z</time>
      </trkpt>
      <trkpt lat="45.12674" lon="4.9998">
        <ele>210.28100585938</ele>
        <time>2010-12-11T15:47:07Z</time>
      </trkpt>
      <trkpt lat="45.12653" lon="4.99929">
        <ele>209.64799499512</ele>
        <time>2010-12-11T15:47:11Z</time>
      </trkpt>
      <trkpt lat="45.1264" lon="4.99877">
        <ele>209.90600585938</ele>
        <time>2010-12-11T15:47:15Z</time>
      </trkpt>
      <trkpt lat="45.12616" lon="4.99838">
        <ele>210.54699707031</ele>
        <time>2010-12-11T15:47:19Z</time>
      </trkpt>
      <trkpt lat="45.12594" lon="4.99814">
        <ele>210.77799987793</ele>
        <time>2010-12-11T15:47:22Z</time>
      </trkpt>
      <trkpt lat="45.12558" lon="4.99755">
        <ele>211.17300415039</ele>
        <time>2010-12-11T15:47:28Z</time>
      </trkpt>
      <trkpt lat="45.12547" lon="4.99735">
        <ele>211.28500366211</ele>
        <time>2010-12-11T15:47:30Z</time>
      </trkpt>
      <trkpt lat="45.12497" lon="4.9968">
        <ele>211.8630065918</ele>
        <time>2010-12-11T15:47:37Z</time>
      </trkpt>
      <trkpt lat="45.12466" lon="4.99636">
        <ele>211.77000427246</ele>
        <time>2010-12-11T15:47:42Z</time>
      </trkpt>
      <trkpt lat="45.12414" lon="4.99555">
        <ele>211.99200439453</ele>
        <time>2010-12-11T15:47:51Z</time>
      </trkpt>
      <trkpt lat="45.12393" lon="4.99506">
        <ele>211.91200256348</ele>
        <time>2010-12-11T15:47:56Z</time>
      </trkpt>
      <trkpt lat="45.12378" lon="4.9944">
        <ele>212.5359954834</ele>
        <time>2010-12-11T15:48:02Z</time>
      </trkpt>
      <trkpt lat="45.12362" lon="4.99355">
        <ele>213.25100708008</ele>
        <time>2010-12-11T15:48:10Z</time>
      </trkpt>
      <trkpt lat="45.12347" lon="4.99276">
        <ele>213.98899841309</ele>
        <time>2010-12-11T15:48:18Z</time>
      </trkpt>
      <trkpt lat="45.12334" lon="4.99222">
        <ele>214.33000183106</ele>
        <time>2010-12-11T15:48:24Z</time>
      </trkpt>
      <trkpt lat="45.1231" lon="4.99177">
        <ele>213.19099426269</ele>
        <time>2010-12-11T15:48:30Z</time>
      </trkpt>
      <trkpt lat="45.12289" lon="4.99134">
        <ele>211.66400146484</ele>
        <time>2010-12-11T15:48:35Z</time>
      </trkpt>
      <trkpt lat="45.12277" lon="4.99092">
        <ele>210.22599792481</ele>
        <time>2010-12-11T15:48:39Z</time>
      </trkpt>
      <trkpt lat="45.12251" lon="4.99062">
        <ele>207.87699890137</ele>
        <time>2010-12-11T15:48:43Z</time>
      </trkpt>
      <trkpt lat="45.12217" lon="4.99031">
        <ele>202.99800109863</ele>
        <time>2010-12-11T15:48:47Z</time>
      </trkpt>
      <trkpt lat="45.1217" lon="4.98996">
        <ele>199.83500671387</ele>
        <time>2010-12-11T15:48:52Z</time>
      </trkpt>
      <trkpt lat="45.12136" lon="4.98954">
        <ele>197.21200561523</ele>
        <time>2010-12-11T15:48:56Z</time>
      </trkpt>
      <trkpt lat="45.121" lon="4.98895">
        <ele>195.80299377441</ele>
        <time>2010-12-11T15:49:01Z</time>
      </trkpt>
      <trkpt lat="45.12067" lon="4.98823">
        <ele>195.40699768066</ele>
        <time>2010-12-11T15:49:07Z</time>
      </trkpt>
      <trkpt lat="45.12039" lon="4.98733">
        <ele>194.88999938965</ele>
        <time>2010-12-11T15:49:14Z</time>
      </trkpt>
      <trkpt lat="45.12025" lon="4.98657">
        <ele>195.16299438477</ele>
        <time>2010-12-11T15:49:20Z</time>
      </trkpt>
      <trkpt lat="45.12019" lon="4.98586">
        <ele>195.45599365234</ele>
        <time>2010-12-11T15:49:26Z</time>
      </trkpt>
      <trkpt lat="45.12019" lon="4.98565">
        <ele>196.16900634766</ele>
        <time>2010-12-11T15:49:29Z</time>
      </trkpt>
      <trkpt lat="45.12019" lon="4.98542">
        <ele>195.98899841309</ele>
        <time>2010-12-11T15:49:33Z</time>
      </trkpt>
      <trkpt lat="45.12021" lon="4.985">
        <ele>195.97500610352</ele>
        <time>2010-12-11T15:49:40Z</time>
      </trkpt>
      <trkpt lat="45.1203" lon="4.98453">
        <ele>196.01899719238</ele>
        <time>2010-12-11T15:49:46Z</time>
      </trkpt>
      <trkpt lat="45.12035" lon="4.98438">
        <ele>195.96299743652</ele>
        <time>2010-12-11T15:49:48Z</time>
      </trkpt>
      <trkpt lat="45.12053" lon="4.98405">
        <ele>195.99699401856</ele>
        <time>2010-12-11T15:49:53Z</time>
      </trkpt>
      <trkpt lat="45.12053" lon="4.98389">
        <ele>196.23100280762</ele>
        <time>2010-12-11T15:49:55Z</time>
      </trkpt>
      <trkpt lat="45.12054" lon="4.9835">
        <ele>195.81399536133</ele>
        <time>2010-12-11T15:50:00Z</time>
      </trkpt>
      <trkpt lat="45.12065" lon="4.98287">
        <ele>194.51800537109</ele>
        <time>2010-12-11T15:50:07Z</time>
      </trkpt>
      <trkpt lat="45.12071" lon="4.98213">
        <ele>194.19200134277</ele>
        <time>2010-12-11T15:50:14Z</time>
      </trkpt>
      <trkpt lat="45.12066" lon="4.98132">
        <ele>194.04800415039</ele>
        <time>2010-12-11T15:50:21Z</time>
      </trkpt>
      <trkpt lat="45.12048" lon="4.98047">
        <ele>193.19500732422</ele>
        <time>2010-12-11T15:50:28Z</time>
      </trkpt>
      <trkpt lat="45.12022" lon="4.97952">
        <ele>192.2619934082</ele>
        <time>2010-12-11T15:50:36Z</time>
      </trkpt>
      <trkpt lat="45.12005" lon="4.97869">
        <ele>191.23399353027</ele>
        <time>2010-12-11T15:50:43Z</time>
      </trkpt>
      <trkpt lat="45.11988" lon="4.97775">
        <ele>190.54899597168</ele>
        <time>2010-12-11T15:50:51Z</time>
      </trkpt>
      <trkpt lat="45.11978" lon="4.97714">
        <ele>189.89300537109</ele>
        <time>2010-12-11T15:50:56Z</time>
      </trkpt>
      <trkpt lat="45.11975" lon="4.97702">
        <ele>189.84899902344</ele>
        <time>2010-12-11T15:50:57Z</time>
      </trkpt>
      <trkpt lat="45.11971" lon="4.97678">
        <ele>189.75</ele>
        <time>2010-12-11T15:50:59Z</time>
      </trkpt>
      <trkpt lat="45.11969" lon="4.97666">
        <ele>189.7559967041</ele>
        <time>2010-12-11T15:51:00Z</time>
      </trkpt>
      <trkpt lat="45.11959" lon="4.97608">
        <ele>190.02600097656</ele>
        <time>2010-12-11T15:51:05Z</time>
      </trkpt>
      <trkpt lat="45.1195" lon="4.97557">
        <ele>189.67100524902</ele>
        <time>2010-12-11T15:51:10Z</time>
      </trkpt>
      <trkpt lat="45.11948" lon="4.97547">
        <ele>189.59899902344</ele>
        <time>2010-12-11T15:51:11Z</time>
      </trkpt>
      <trkpt lat="45.11946" lon="4.97538">
        <ele>189.64199829102</ele>
        <time>2010-12-11T15:51:12Z</time>
      </trkpt>
      <trkpt lat="45.11932" lon="4.97453">
        <ele>188.39700317383</ele>
        <time>2010-12-11T15:51:20Z</time>
      </trkpt>
      <trkpt lat="45.11914" lon="4.97352">
        <ele>188.10699462891</ele>
        <time>2010-12-11T15:51:29Z</time>
      </trkpt>
      <trkpt lat="45.11892" lon="4.97231">
        <ele>187.51600646973</ele>
        <time>2010-12-11T15:51:39Z</time>
      </trkpt>
      <trkpt lat="45.11883" lon="4.97175">
        <ele>187.84599304199</ele>
        <time>2010-12-11T15:51:44Z</time>
      </trkpt>
      <trkpt lat="45.11879" lon="4.97154">
        <ele>187.98899841309</ele>
        <time>2010-12-11T15:51:46Z</time>
      </trkpt>
      <trkpt lat="45.11878" lon="4.97143">
        <ele>188.05000305176</ele>
        <time>2010-12-11T15:51:47Z</time>
      </trkpt>
      <trkpt lat="45.11884" lon="4.97097">
        <ele>188.79299926758</ele>
        <time>2010-12-11T15:51:52Z</time>
      </trkpt>
      <trkpt lat="45.11888" lon="4.9709">
        <ele>188.94599914551</ele>
        <time>2010-12-11T15:51:53Z</time>
      </trkpt>
      <trkpt lat="45.119" lon="4.97062">
        <ele>190.15299987793</ele>
        <time>2010-12-11T15:51:57Z</time>
      </trkpt>
      <trkpt lat="45.11892" lon="4.97049">
        <ele>190.38299560547</ele>
        <time>2010-12-11T15:51:59Z</time>
      </trkpt>
      <trkpt lat="45.11869" lon="4.97028">
        <ele>189.76600646973</ele>
        <time>2010-12-11T15:52:03Z</time>
      </trkpt>
      <trkpt lat="45.11842" lon="4.96993">
        <ele>189.63499450684</ele>
        <time>2010-12-11T15:52:08Z</time>
      </trkpt>
      <trkpt lat="45.11832" lon="4.9698">
        <ele>189.35099792481</ele>
        <time>2010-12-11T15:52:10Z</time>
      </trkpt>
      <trkpt lat="45.11827" lon="4.96973">
        <ele>189.12699890137</ele>
        <time>2010-12-11T15:52:11Z</time>
      </trkpt>
      <trkpt lat="45.11789" lon="4.96914">
        <ele>189.16400146484</ele>
        <time>2010-12-11T15:52:19Z</time>
      </trkpt>
      <trkpt lat="45.11768" lon="4.96879">
        <ele>189.51800537109</ele>
        <time>2010-12-11T15:52:24Z</time>
      </trkpt>
      <trkpt lat="45.11762" lon="4.96846">
        <ele>188.90100097656</ele>
        <time>2010-12-11T15:52:28Z</time>
      </trkpt>
      <trkpt lat="45.1175" lon="4.96816">
        <ele>189.23399353027</ele>
        <time>2010-12-11T15:52:32Z</time>
      </trkpt>
      <trkpt lat="45.11725" lon="4.96803">
        <ele>188.59100341797</ele>
        <time>2010-12-11T15:52:35Z</time>
      </trkpt>
      <trkpt lat="45.11716" lon="4.96795">
        <ele>188.59100341797</ele>
        <time>2010-12-11T15:52:36Z</time>
      </trkpt>
      <trkpt lat="45.11665" lon="4.96711">
        <ele>187.30999755859</ele>
        <time>2010-12-11T15:52:44Z</time>
      </trkpt>
      <trkpt lat="45.11636" lon="4.96641">
        <ele>186.57499694824</ele>
        <time>2010-12-11T15:52:50Z</time>
      </trkpt>
      <trkpt lat="45.11618" lon="4.96594">
        <ele>186.92900085449</ele>
        <time>2010-12-11T15:52:55Z</time>
      </trkpt>
      <trkpt lat="45.11608" lon="4.96568">
        <ele>187.14199829102</ele>
        <time>2010-12-11T15:52:58Z</time>
      </trkpt>
      <trkpt lat="45.11595" lon="4.96534">
        <ele>186.79600524902</ele>
        <time>2010-12-11T15:53:02Z</time>
      </trkpt>
      <trkpt lat="45.1158" lon="4.96497">
        <ele>187.16600036621</ele>
        <time>2010-12-11T15:53:07Z</time>
      </trkpt>
      <trkpt lat="45.11576" lon="4.96469">
        <ele>187.60299682617</ele>
        <time>2010-12-11T15:53:11Z</time>
      </trkpt>
      <trkpt lat="45.11576" lon="4.96448">
        <ele>188.30000305176</ele>
        <time>2010-12-11T15:53:15Z</time>
      </trkpt>
      <trkpt lat="45.11573" lon="4.96439">
        <ele>188.89999389648</ele>
        <time>2010-12-11T15:53:20Z</time>
      </trkpt>
      <trkpt lat="45.11573" lon="4.96439">
        <ele>188.86399841309</ele>
        <time>2010-12-11T15:53:21Z</time>
      </trkpt>
      <trkpt lat="45.11572" lon="4.96444">
        <ele>188.66999816894</ele>
        <time>2010-12-11T15:54:07Z</time>
      </trkpt>
      <trkpt lat="45.11572" lon="4.96445">
        <ele>188.64799499512</ele>
        <time>2010-12-11T15:54:08Z</time>
      </trkpt>
      <trkpt lat="45.1157" lon="4.96447">
        <ele>188.56799316406</ele>
        <time>2010-12-11T15:54:10Z</time>
      </trkpt>
      <trkpt lat="45.11561" lon="4.96443">
        <ele>188.38999938965</ele>
        <time>2010-12-11T15:54:15Z</time>
      </trkpt>
      <trkpt lat="45.11552" lon="4.96428">
        <ele>188.16200256348</ele>
        <time>2010-12-11T15:54:20Z</time>
      </trkpt>
      <trkpt lat="45.11551" lon="4.96425">
        <ele>188.20599365234</ele>
        <time>2010-12-11T15:54:21Z</time>
      </trkpt>
      <trkpt lat="45.11546" lon="4.9641">
        <ele>188.51300048828</ele>
        <time>2010-12-11T15:54:26Z</time>
      </trkpt>
      <trkpt lat="45.11547" lon="4.96405">
        <ele>188.85200500488</ele>
        <time>2010-12-11T15:54:30Z</time>
      </trkpt>
      <trkpt lat="45.11558" lon="4.96417">
        <ele>189.18499755859</ele>
        <time>2010-12-11T15:55:02Z</time>
      </trkpt>
      <trkpt lat="45.11565" lon="4.96423">
        <ele>189.43800354004</ele>
        <time>2010-12-11T15:55:09Z</time>
      </trkpt>
    </trkseg>
  </trk>
</gpx>